Wetterdaten: Mittwoch, 11.05.2022
Datum Zeit Temp. 2m Temp +5 cm Feuchte A. Luftdruck Regen Wind Richtung Richtung Sonnenschein UV Solar Taupunkt Windchill Windben
11.05.2022 00:00 16,8 C 15,0 C 63 % 1016,8 hPa 0,0 l/m 9,7 km/h (2 Bft) S 180 0 min 0,0 UV-I 0 W/m 9,7 C 15,2 C 12,9 km/h (3 Bft)
11.05.2022 00:01 16,8 C 15,0 C 63 % 1016,8 hPa 0,0 l/m 8,0 km/h (2 Bft) S 180 0 min 0,0 UV-I 0 W/m 9,7 C 16,0 C 14,5 km/h (3 Bft)
11.05.2022 00:02 16,8 C 15,0 C 63 % 1016,9 hPa 0,0 l/m 9,7 km/h (2 Bft) S-SW 202 0 min 0,0 UV-I 0 W/m 9,7 C 15,2 C 16,1 km/h (3 Bft)
11.05.2022 00:03 16,8 C 15,0 C 63 % 1016,7 hPa 0,0 l/m 8,0 km/h (2 Bft) S 180 0 min 0,0 UV-I 0 W/m 9,7 C 16,0 C 11,3 km/h (2 Bft)
11.05.2022 00:04 16,8 C 15,0 C 63 % 1016,8 hPa 0,0 l/m 6,4 km/h (2 Bft) S 180 0 min 0,0 UV-I 0 W/m 9,7 C 16,8 C 9,7 km/h (2 Bft)
11.05.2022 00:05 16,8 C 15,0 C 63 % 1016,8 hPa 0,0 l/m 8,0 km/h (2 Bft) S 180 0 min 0,0 UV-I 0 W/m 9,7 C 16,0 C 11,3 km/h (2 Bft)
11.05.2022 00:06 16,7 C 15,0 C 64 % 1016,8 hPa 0,0 l/m 11,3 km/h (2 Bft) S 180 0 min 0,0 UV-I 0 W/m 9,9 C 14,5 C 16,1 km/h (3 Bft)
11.05.2022 00:07 16,8 C 15,0 C 63 % 1016,7 hPa 0,0 l/m 9,7 km/h (2 Bft) S 180 0 min 0,0 UV-I 0 W/m 9,7 C 15,2 C 14,5 km/h (3 Bft)
11.05.2022 00:08 16,8 C 15,0 C 63 % 1016,7 hPa 0,0 l/m 9,7 km/h (2 Bft) S 180 0 min 0,0 UV-I 0 W/m 9,7 C 15,2 C 12,9 km/h (3 Bft)
11.05.2022 00:09 16,8 C 15,0 C 63 % 1016,8 hPa 0,0 l/m 8,0 km/h (2 Bft) S 180 0 min 0,0 UV-I 0 W/m 9,7 C 16,0 C 14,5 km/h (3 Bft)
11.05.2022 00:10 16,8 C 15,0 C 64 % 1016,7 hPa 0,0 l/m 8,0 km/h (2 Bft) S 180 0 min 0,0 UV-I 0 W/m 10,0 C 16,0 C 14,5 km/h (3 Bft)
11.05.2022 00:11 16,7 C 15,0 C 64 % 1016,7 hPa 0,0 l/m 6,4 km/h (2 Bft) S 180 0 min 0,0 UV-I 0 W/m 9,9 C 16,7 C 11,3 km/h (2 Bft)
11.05.2022 00:12 16,7 C 15,0 C 64 % 1016,7 hPa 0,0 l/m 8,0 km/h (2 Bft) S 180 0 min 0,0 UV-I 0 W/m 9,9 C 15,9 C 11,3 km/h (2 Bft)
11.05.2022 00:13 16,7 C 15,0 C 64 % 1016,7 hPa 0,0 l/m 6,4 km/h (2 Bft) S 180 0 min 0,0 UV-I 0 W/m 9,9 C 16,7 C 9,7 km/h (2 Bft)
11.05.2022 00:14 16,7 C 15,0 C 64 % 1016,7 hPa 0,0 l/m 8,0 km/h (2 Bft) S 180 0 min 0,0 UV-I 0 W/m 9,9 C 15,9 C 9,7 km/h (2 Bft)
11.05.2022 00:15 16,7 C 15,0 C 64 % 1016,7 hPa 0,0 l/m 6,4 km/h (2 Bft) S 180 0 min 0,0 UV-I 0 W/m 9,9 C 16,7 C 9,7 km/h (2 Bft)
11.05.2022 00:16 16,7 C 15,0 C 64 % 1016,7 hPa 0,0 l/m 8,0 km/h (2 Bft) S 180 0 min 0,0 UV-I 0 W/m 9,9 C 15,9 C 11,3 km/h (2 Bft)
11.05.2022 00:17 16,7 C 15,0 C 64 % 1016,6 hPa 0,0 l/m 6,4 km/h (2 Bft) S 180 0 min 0,0 UV-I 0 W/m 9,9 C 16,7 C 8,0 km/h (2 Bft)
11.05.2022 00:18 16,7 C 15,0 C 64 % 1016,7 hPa 0,0 l/m 8,0 km/h (2 Bft) S 180 0 min 0,0 UV-I 0 W/m 9,9 C 15,9 C 11,3 km/h (2 Bft)
11.05.2022 00:19 16,7 C 15,0 C 64 % 1016,6 hPa 0,0 l/m 6,4 km/h (2 Bft) S 180 0 min 0,0 UV-I 0 W/m 9,9 C 16,7 C 11,3 km/h (2 Bft)
11.05.2022 00:20 16,7 C 15,0 C 64 % 1016,6 hPa 0,0 l/m 8,0 km/h (2 Bft) S 180 0 min 0,0 UV-I 0 W/m 9,9 C 15,9 C 11,3 km/h (2 Bft)
11.05.2022 00:21 16,7 C 15,0 C 64 % 1016,6 hPa 0,0 l/m 8,0 km/h (2 Bft) S 180 0 min 0,0 UV-I 0 W/m 9,9 C 15,9 C 14,5 km/h (3 Bft)
11.05.2022 00:22 16,8 C 15,0 C 64 % 1016,6 hPa 0,0 l/m 9,7 km/h (2 Bft) S 180 0 min 0,0 UV-I 0 W/m 10,0 C 15,2 C 11,3 km/h (2 Bft)
11.05.2022 00:23 16,8 C 15,0 C 64 % 1016,6 hPa 0,0 l/m 8,0 km/h (2 Bft) S 180 0 min 0,0 UV-I 0 W/m 10,0 C 16,0 C 11,3 km/h (2 Bft)
11.05.2022 00:24 16,8 C 15,0 C 64 % 1016,6 hPa 0,0 l/m 8,0 km/h (2 Bft) S 180 0 min 0,0 UV-I 0 W/m 10,0 C 16,0 C 11,3 km/h (2 Bft)
11.05.2022 00:25 16,7 C 15,0 C 64 % 1016,5 hPa 0,0 l/m 6,4 km/h (2 Bft) S-SO 157 0 min 0,0 UV-I 0 W/m 9,9 C 16,7 C 8,0 km/h (2 Bft)
11.05.2022 00:26 16,7 C 15,0 C 64 % 1016,5 hPa 0,0 l/m 8,0 km/h (2 Bft) S 180 0 min 0,0 UV-I 0 W/m 9,9 C 15,9 C 9,7 km/h (2 Bft)
11.05.2022 00:27 16,7 C 15,0 C 64 % 1016,6 hPa 0,0 l/m 8,0 km/h (2 Bft) S-SW 202 0 min 0,0 UV-I 0 W/m 9,9 C 15,9 C 11,3 km/h (2 Bft)
11.05.2022 00:28 16,7 C 15,0 C 64 % 1016,5 hPa 0,0 l/m 8,0 km/h (2 Bft) S-SW 202 0 min 0,0 UV-I 0 W/m 9,9 C 15,9 C 9,7 km/h (2 Bft)
11.05.2022 00:29 16,7 C 15,0 C 64 % 1016,6 hPa 0,0 l/m 8,0 km/h (2 Bft) S-SW 202 0 min 0,0 UV-I 0 W/m 9,9 C 15,9 C 11,3 km/h (2 Bft)
11.05.2022 00:30 16,7 C 15,0 C 64 % 1016,5 hPa 0,0 l/m 6,4 km/h (2 Bft) S-SW 202 0 min 0,0 UV-I 0 W/m 9,9 C 16,7 C 8,0 km/h (2 Bft)
11.05.2022 00:31 16,7 C 15,0 C 64 % 1016,6 hPa 0,0 l/m 9,7 km/h (2 Bft) S-SW 202 0 min 0,0 UV-I 0 W/m 9,9 C 15,1 C 14,5 km/h (3 Bft)
11.05.2022 00:32 16,7 C 15,0 C 64 % 1016,5 hPa 0,0 l/m 8,0 km/h (2 Bft) S-SW 202 0 min 0,0 UV-I 0 W/m 9,9 C 15,9 C 12,9 km/h (3 Bft)
11.05.2022 00:33 16,7 C 15,0 C 64 % 1016,5 hPa 0,0 l/m 8,0 km/h (2 Bft) S 180 0 min 0,0 UV-I 0 W/m 9,9 C 15,9 C 11,3 km/h (2 Bft)
11.05.2022 00:34 16,7 C 15,0 C 64 % 1016,6 hPa 0,0 l/m 9,7 km/h (2 Bft) S-SW 202 0 min 0,0 UV-I 0 W/m 9,9 C 15,1 C 14,5 km/h (3 Bft)
11.05.2022 00:35 16,8 C 15,0 C 64 % 1016,5 hPa 0,0 l/m 9,7 km/h (2 Bft) S 180 0 min 0,0 UV-I 0 W/m 10,0 C 15,2 C 14,5 km/h (3 Bft)
11.05.2022 00:36 16,8 C 15,0 C 63 % 1016,6 hPa 0,0 l/m 9,7 km/h (2 Bft) S 180 0 min 0,0 UV-I 0 W/m 9,7 C 15,2 C 14,5 km/h (3 Bft)
11.05.2022 00:37 16,8 C 15,0 C 63 % 1016,5 hPa 0,0 l/m 9,7 km/h (2 Bft) S-SW 202 0 min 0,0 UV-I 0 W/m 9,7 C 15,2 C 14,5 km/h (3 Bft)
11.05.2022 00:38 16,9 C 15,0 C 63 % 1016,5 hPa 0,0 l/m 8,0 km/h (2 Bft) S 180 0 min 0,0 UV-I 0 W/m 9,8 C 16,1 C 12,9 km/h (3 Bft)
11.05.2022 00:39 16,9 C 15,0 C 63 % 1016,6 hPa 0,0 l/m 9,7 km/h (2 Bft) S 180 0 min 0,0 UV-I 0 W/m 9,8 C 15,3 C 12,9 km/h (3 Bft)
11.05.2022 00:40 16,9 C 15,0 C 63 % 1016,6 hPa 0,0 l/m 9,7 km/h (2 Bft) S 180 0 min 0,0 UV-I 0 W/m 9,8 C 15,3 C 12,9 km/h (3 Bft)
11.05.2022 00:41 16,9 C 15,6 C 63 % 1016,5 hPa 0,0 l/m 9,7 km/h (2 Bft) S-SW 202 0 min 0,0 UV-I 0 W/m 9,8 C 15,3 C 14,5 km/h (3 Bft)
11.05.2022 00:42 16,9 C 15,6 C 63 % 1016,6 hPa 0,0 l/m 8,0 km/h (2 Bft) S 180 0 min 0,0 UV-I 0 W/m 9,8 C 16,1 C 11,3 km/h (2 Bft)
11.05.2022 00:43 16,9 C 15,6 C 63 % 1016,5 hPa 0,0 l/m 6,4 km/h (2 Bft) S 180 0 min 0,0 UV-I 0 W/m 9,8 C 16,9 C 8,0 km/h (2 Bft)
11.05.2022 00:44 16,9 C 15,6 C 63 % 1016,5 hPa 0,0 l/m 8,0 km/h (2 Bft) S 180 0 min 0,0 UV-I 0 W/m 9,8 C 16,1 C 11,3 km/h (2 Bft)
11.05.2022 00:45 16,9 C 15,6 C 63 % 1016,5 hPa 0,0 l/m 9,7 km/h (2 Bft) S 180 0 min 0,0 UV-I 0 W/m 9,8 C 15,3 C 12,9 km/h (3 Bft)
11.05.2022 00:46 16,9 C 15,6 C 63 % 1016,6 hPa 0,0 l/m 8,0 km/h (2 Bft) S 180 0 min 0,0 UV-I 0 W/m 9,8 C 16,1 C 11,3 km/h (2 Bft)
11.05.2022 00:47 16,9 C 15,6 C 63 % 1016,6 hPa 0,0 l/m 6,4 km/h (2 Bft) S 180 0 min 0,0 UV-I 0 W/m 9,8 C 16,9 C 9,7 km/h (2 Bft)
11.05.2022 00:48 16,9 C 15,6 C 63 % 1016,4 hPa 0,0 l/m 8,0 km/h (2 Bft) S-SW 202 0 min 0,0 UV-I 0 W/m 9,8 C 16,1 C 9,7 km/h (2 Bft)
11.05.2022 00:49 16,9 C 15,6 C 63 % 1016,5 hPa 0,0 l/m 8,0 km/h (2 Bft) S 180 0 min 0,0 UV-I 0 W/m 9,8 C 16,1 C 9,7 km/h (2 Bft)
11.05.2022 00:50 16,9 C 15,6 C 63 % 1016,4 hPa 0,0 l/m 8,0 km/h (2 Bft) S 180 0 min 0,0 UV-I 0 W/m 9,8 C 16,1 C 11,3 km/h (2 Bft)
11.05.2022 00:51 16,9 C 15,6 C 63 % 1016,5 hPa 0,0 l/m 8,0 km/h (2 Bft) S-SW 202 0 min 0,0 UV-I 0 W/m 9,8 C 16,1 C 9,7 km/h (2 Bft)
11.05.2022 00:52 16,9 C 15,0 C 63 % 1016,5 hPa 0,0 l/m 8,0 km/h (2 Bft) S-SW 202 0 min 0,0 UV-I 0 W/m 9,8 C 16,1 C 9,7 km/h (2 Bft)
11.05.2022 00:53 16,9 C 15,6 C 63 % 1016,5 hPa 0,0 l/m 8,0 km/h (2 Bft) S-SW 202 0 min 0,0 UV-I 0 W/m 9,8 C 16,1 C 12,9 km/h (3 Bft)
11.05.2022 00:54 16,8 C 15,6 C 64 % 1016,5 hPa 0,0 l/m 8,0 km/h (2 Bft) S-SW 202 0 min 0,0 UV-I 0 W/m 10,0 C 16,0 C 12,9 km/h (3 Bft)
11.05.2022 00:55 16,9 C 15,6 C 63 % 1016,5 hPa 0,0 l/m 8,0 km/h (2 Bft) S-SW 202 0 min 0,0 UV-I 0 W/m 9,8 C 16,1 C 9,7 km/h (2 Bft)
11.05.2022 00:56 16,9 C 15,6 C 63 % 1016,4 hPa 0,0 l/m 8,0 km/h (2 Bft) S-SW 202 0 min 0,0 UV-I 0 W/m 9,8 C 16,1 C 11,3 km/h (2 Bft)
11.05.2022 00:57 16,9 C 15,6 C 63 % 1016,4 hPa 0,0 l/m 9,7 km/h (2 Bft) S 180 0 min 0,0 UV-I 0 W/m 9,8 C 15,3 C 12,9 km/h (3 Bft)
11.05.2022 00:58 16,8 C 15,0 C 63 % 1016,4 hPa 0,0 l/m 9,7 km/h (2 Bft) S-SW 202 0 min 0,0 UV-I 0 W/m 9,7 C 15,2 C 11,3 km/h (2 Bft)
11.05.2022 00:59 16,9 C 15,0 C 64 % 1016,5 hPa 0,0 l/m 9,7 km/h (2 Bft) SW 225 0 min 0,0 UV-I 0 W/m 10,0 C 15,3 C 11,3 km/h (2 Bft)
11.05.2022 01:00 16,8 C 15,0 C 64 % 1016,5 hPa 0,0 l/m 8,0 km/h (2 Bft) S-SW 202 0 min 0,0 UV-I 0 W/m 10,0 C 16,0 C 11,3 km/h (2 Bft)
11.05.2022 01:01 16,8 C 15,0 C 64 % 1016,5 hPa 0,0 l/m 4,8 km/h (1 Bft) S-SW 202 0 min 0,0 UV-I 0 W/m 10,0 C 16,8 C 6,4 km/h (2 Bft)
11.05.2022 01:02 16,7 C 15,0 C 64 % 1016,5 hPa 0,0 l/m 6,4 km/h (2 Bft) S-SW 202 0 min 0,0 UV-I 0 W/m 9,9 C 16,7 C 11,3 km/h (2 Bft)
11.05.2022 01:03 16,7 C 15,0 C 64 % 1016,5 hPa 0,0 l/m 6,4 km/h (2 Bft) SW 225 0 min 0,0 UV-I 0 W/m 9,9 C 16,7 C 12,9 km/h (3 Bft)
11.05.2022 01:04 16,7 C 15,0 C 64 % 1016,5 hPa 0,0 l/m 9,7 km/h (2 Bft) W 270 0 min 0,0 UV-I 0 W/m 9,9 C 15,1 C 12,9 km/h (3 Bft)
11.05.2022 01:05 16,6 C 15,0 C 65 % 1016,5 hPa 0,0 l/m 9,7 km/h (2 Bft) W 270 0 min 0,0 UV-I 0 W/m 10,0 C 15,0 C 12,9 km/h (3 Bft)
11.05.2022 01:06 16,4 C 15,0 C 65 % 1016,5 hPa 0,0 l/m 9,7 km/h (2 Bft) W 270 0 min 0,0 UV-I 0 W/m 9,8 C 14,8 C 12,9 km/h (3 Bft)
11.05.2022 01:07 16,4 C 15,0 C 65 % 1016,5 hPa 0,0 l/m 8,0 km/h (2 Bft) W 270 0 min 0,0 UV-I 0 W/m 9,8 C 15,6 C 11,3 km/h (2 Bft)
11.05.2022 01:08 16,3 C 15,0 C 65 % 1016,5 hPa 0,0 l/m 8,0 km/h (2 Bft) W 270 0 min 0,0 UV-I 0 W/m 9,7 C 15,5 C 12,9 km/h (3 Bft)
11.05.2022 01:09 16,2 C 15,0 C 66 % 1016,5 hPa 0,0 l/m 8,0 km/h (2 Bft) W 270 0 min 0,0 UV-I 0 W/m 9,8 C 15,4 C 11,3 km/h (2 Bft)
11.05.2022 01:10 16,2 C 15,0 C 66 % 1016,5 hPa 0,0 l/m 9,7 km/h (2 Bft) W 270 0 min 0,0 UV-I 0 W/m 9,8 C 14,6 C 12,9 km/h (3 Bft)
11.05.2022 01:11 16,1 C 14,4 C 66 % 1016,5 hPa 0,0 l/m 4,8 km/h (1 Bft) W-SW 247 0 min 0,0 UV-I 0 W/m 9,7 C 16,1 C 8,0 km/h (2 Bft)
11.05.2022 01:12 16,1 C 14,4 C 66 % 1016,5 hPa 0,0 l/m 4,8 km/h (1 Bft) W-SW 247 0 min 0,0 UV-I 0 W/m 9,7 C 16,1 C 8,0 km/h (2 Bft)
11.05.2022 01:13 16,0 C 14,4 C 66 % 1016,5 hPa 0,0 l/m 3,2 km/h (1 Bft) SW 225 0 min 0,0 UV-I 0 W/m 9,7 C 16,0 C 4,8 km/h (1 Bft)
11.05.2022 01:14 15,9 C 14,4 C 67 % 1016,6 hPa 0,0 l/m 3,2 km/h (1 Bft) SW 225 0 min 0,0 UV-I 0 W/m 9,8 C 15,9 C 4,8 km/h (1 Bft)
11.05.2022 01:15 15,8 C 14,4 C 67 % 1016,6 hPa 0,0 l/m 4,8 km/h (1 Bft) W-SW 247 0 min 0,0 UV-I 0 W/m 9,7 C 15,8 C 8,0 km/h (2 Bft)
11.05.2022 01:16 15,7 C 13,9 C 68 % 1016,6 hPa 0,0 l/m 3,2 km/h (1 Bft) W-SW 247 0 min 0,0 UV-I 0 W/m 9,8 C 15,7 C 4,8 km/h (1 Bft)
11.05.2022 01:17 15,6 C 13,9 C 68 % 1016,5 hPa 0,0 l/m 3,2 km/h (1 Bft) W-SW 247 0 min 0,0 UV-I 0 W/m 9,7 C 15,6 C 4,8 km/h (1 Bft)
11.05.2022 01:18 15,5 C 13,9 C 68 % 1016,6 hPa 0,0 l/m 3,2 km/h (1 Bft) W-SW 247 0 min 0,0 UV-I 0 W/m 9,6 C 15,5 C 6,4 km/h (2 Bft)
11.05.2022 01:19 15,4 C 13,9 C 69 % 1016,5 hPa 0,0 l/m 1,6 km/h (1 Bft) W-SW 247 0 min 0,0 UV-I 0 W/m 9,7 C 15,4 C 3,2 km/h (1 Bft)
11.05.2022 01:20 15,3 C 13,3 C 69 % 1016,5 hPa 0,0 l/m 3,2 km/h (1 Bft) W-SW 247 0 min 0,0 UV-I 0 W/m 9,6 C 15,3 C 6,4 km/h (2 Bft)
11.05.2022 01:21 15,2 C 13,3 C 70 % 1016,5 hPa 0,0 l/m 3,2 km/h (1 Bft) W-SW 247 0 min 0,0 UV-I 0 W/m 9,8 C 15,2 C 6,4 km/h (2 Bft)
11.05.2022 01:22 15,1 C 13,3 C 70 % 1016,5 hPa 0,0 l/m 4,8 km/h (1 Bft) W-SW 247 0 min 0,0 UV-I 0 W/m 9,7 C 15,1 C 8,0 km/h (2 Bft)
11.05.2022 01:23 15,0 C 13,3 C 70 % 1016,5 hPa 0,0 l/m 4,8 km/h (1 Bft) SW 225 0 min 0,0 UV-I 0 W/m 9,6 C 15,0 C 6,4 km/h (2 Bft)
11.05.2022 01:24 14,9 C 13,3 C 71 % 1016,5 hPa 0,0 l/m 4,8 km/h (1 Bft) SW 225 0 min 0,0 UV-I 0 W/m 9,7 C 14,9 C 6,4 km/h (2 Bft)
11.05.2022 01:25 14,8 C 12,8 C 71 % 1016,5 hPa 0,0 l/m 4,8 km/h (1 Bft) SW 225 0 min 0,0 UV-I 0 W/m 9,6 C 14,8 C 4,8 km/h (1 Bft)
11.05.2022 01:26 14,7 C 12,8 C 71 % 1016,5 hPa 0,0 l/m 3,2 km/h (1 Bft) SW 225 0 min 0,0 UV-I 0 W/m 9,5 C 14,7 C 4,8 km/h (1 Bft)
11.05.2022 01:27 14,6 C 12,8 C 72 % 1016,4 hPa 0,0 l/m 3,2 km/h (1 Bft) SW 225 0 min 0,0 UV-I 0 W/m 9,6 C 14,6 C 4,8 km/h (1 Bft)
11.05.2022 01:28 14,6 C 12,8 C 72 % 1016,5 hPa 0,0 l/m 4,8 km/h (1 Bft) SW 225 0 min 0,0 UV-I 0 W/m 9,6 C 14,6 C 4,8 km/h (1 Bft)
11.05.2022 01:29 14,6 C 12,8 C 72 % 1016,5 hPa 0,0 l/m 4,8 km/h (1 Bft) SW 225 0 min 0,0 UV-I 0 W/m 9,6 C 14,6 C 6,4 km/h (2 Bft)
11.05.2022 01:30 14,6 C 12,8 C 72 % 1016,5 hPa 0,0 l/m 4,8 km/h (1 Bft) SW 225 0 min 0,0 UV-I 0 W/m 9,6 C 14,6 C 6,4 km/h (2 Bft)
11.05.2022 01:31 14,6 C 12,8 C 72 % 1016,4 hPa 0,0 l/m 4,8 km/h (1 Bft) SW 225 0 min 0,0 UV-I 0 W/m 9,6 C 14,6 C 6,4 km/h (2 Bft)
11.05.2022 01:32 14,6 C 12,8 C 72 % 1016,4 hPa 0,0 l/m 3,2 km/h (1 Bft) SW 225 0 min 0,0 UV-I 0 W/m 9,6 C 14,6 C 4,8 km/h (1 Bft)
11.05.2022 01:33 14,6 C 12,8 C 72 % 1016,4 hPa 0,0 l/m 1,6 km/h (1 Bft) SW 225 0 min 0,0 UV-I 0 W/m 9,6 C 14,6 C 3,2 km/h (1 Bft)
11.05.2022 01:34 14,6 C 12,8 C 72 % 1016,4 hPa 0,0 l/m 3,2 km/h (1 Bft) SW 225 0 min 0,0 UV-I 0 W/m 9,6 C 14,6 C 4,8 km/h (1 Bft)
11.05.2022 01:35 14,7 C 12,8 C 72 % 1016,4 hPa 0,0 l/m 3,2 km/h (1 Bft) SW 225 0 min 0,0 UV-I 0 W/m 9,7 C 14,7 C 3,2 km/h (1 Bft)
11.05.2022 01:36 14,7 C 12,8 C 72 % 1016,4 hPa 0,0 l/m 1,6 km/h (1 Bft) SW 225 0 min 0,0 UV-I 0 W/m 9,7 C 14,7 C 3,2 km/h (1 Bft)
11.05.2022 01:37 14,7 C 12,8 C 72 % 1016,4 hPa 0,0 l/m 3,2 km/h (1 Bft) SW 225 0 min 0,0 UV-I 0 W/m 9,7 C 14,7 C 4,8 km/h (1 Bft)
11.05.2022 01:38 14,7 C 12,8 C 72 % 1016,4 hPa 0,0 l/m 1,6 km/h (1 Bft) SW 225 0 min 0,0 UV-I 0 W/m 9,7 C 14,7 C 3,2 km/h (1 Bft)
11.05.2022 01:39 14,6 C 12,8 C 72 % 1016,4 hPa 0,0 l/m 3,2 km/h (1 Bft) SW 225 0 min 0,0 UV-I 0 W/m 9,6 C 14,6 C 3,2 km/h (1 Bft)
11.05.2022 01:40 14,6 C 12,8 C 72 % 1016,3 hPa 0,0 l/m 3,2 km/h (1 Bft) SW 225 0 min 0,0 UV-I 0 W/m 9,6 C 14,6 C 4,8 km/h (1 Bft)
11.05.2022 01:41 14,5 C 12,8 C 72 % 1016,3 hPa 0,0 l/m 3,2 km/h (1 Bft) SW 225 0 min 0,0 UV-I 0 W/m 9,5 C 14,5 C 4,8 km/h (1 Bft)
11.05.2022 01:42 14,4 C 12,8 C 72 % 1016,3 hPa 0,0 l/m 3,2 km/h (1 Bft) SW 225 0 min 0,0 UV-I 0 W/m 9,4 C 14,4 C 4,8 km/h (1 Bft)
11.05.2022 01:43 14,4 C 12,8 C 73 % 1016,3 hPa 0,0 l/m 3,2 km/h (1 Bft) SW 225 0 min 0,0 UV-I 0 W/m 9,6 C 14,4 C 4,8 km/h (1 Bft)
11.05.2022 01:44 14,4 C 12,8 C 73 % 1016,3 hPa 0,0 l/m 3,2 km/h (1 Bft) SW 225 0 min 0,0 UV-I 0 W/m 9,6 C 14,4 C 4,8 km/h (1 Bft)
11.05.2022 01:45 14,4 C 12,8 C 73 % 1016,2 hPa 0,0 l/m 3,2 km/h (1 Bft) SW 225 0 min 0,0 UV-I 0 W/m 9,6 C 14,4 C 4,8 km/h (1 Bft)
11.05.2022 01:46 14,3 C 12,8 C 73 % 1016,3 hPa 0,0 l/m 4,8 km/h (1 Bft) SW 225 0 min 0,0 UV-I 0 W/m 9,5 C 14,3 C 4,8 km/h (1 Bft)
11.05.2022 01:47 14,3 C 12,8 C 73 % 1016,2 hPa 0,0 l/m 3,2 km/h (1 Bft) SW 225 0 min 0,0 UV-I 0 W/m 9,5 C 14,3 C 6,4 km/h (2 Bft)
11.05.2022 01:48 14,3 C 12,8 C 73 % 1016,2 hPa 0,0 l/m 3,2 km/h (1 Bft) SW 225 0 min 0,0 UV-I 0 W/m 9,5 C 14,3 C 6,4 km/h (2 Bft)
11.05.2022 01:49 14,3 C 12,8 C 73 % 1016,2 hPa 0,0 l/m 3,2 km/h (1 Bft) SW 225 0 min 0,0 UV-I 0 W/m 9,5 C 14,3 C 3,2 km/h (1 Bft)
11.05.2022 01:50 14,3 C 12,2 C 73 % 1016,2 hPa 0,0 l/m 3,2 km/h (1 Bft) SW 225 0 min 0,0 UV-I 0 W/m 9,5 C 14,3 C 6,4 km/h (2 Bft)
11.05.2022 01:51 14,3 C 12,2 C 73 % 1016,2 hPa 0,0 l/m 4,8 km/h (1 Bft) SW 225 0 min 0,0 UV-I 0 W/m 9,5 C 14,3 C 4,8 km/h (1 Bft)
11.05.2022 01:52 14,3 C 12,8 C 73 % 1016,3 hPa 0,0 l/m 4,8 km/h (1 Bft) SW 225 0 min 0,0 UV-I 0 W/m 9,5 C 14,3 C 4,8 km/h (1 Bft)
11.05.2022 01:53 14,4 C 12,8 C 73 % 1016,1 hPa 0,0 l/m 4,8 km/h (1 Bft) SW 225 0 min 0,0 UV-I 0 W/m 9,6 C 14,4 C 6,4 km/h (2 Bft)
11.05.2022 01:54 14,4 C 12,8 C 73 % 1016,2 hPa 0,0 l/m 4,8 km/h (1 Bft) SW 225 0 min 0,0 UV-I 0 W/m 9,6 C 14,4 C 6,4 km/h (2 Bft)
11.05.2022 01:55 14,4 C 12,8 C 73 % 1016,2 hPa 0,0 l/m 4,8 km/h (1 Bft) SW 225 0 min 0,0 UV-I 0 W/m 9,6 C 14,4 C 6,4 km/h (2 Bft)
11.05.2022 01:56 14,4 C 12,8 C 73 % 1016,1 hPa 0,0 l/m 4,8 km/h (1 Bft) SW 225 0 min 0,0 UV-I 0 W/m 9,6 C 14,4 C 4,8 km/h (1 Bft)
11.05.2022 01:57 14,4 C 12,2 C 73 % 1016,2 hPa 0,0 l/m 3,2 km/h (1 Bft) SW 225 0 min 0,0 UV-I 0 W/m 9,6 C 14,4 C 4,8 km/h (1 Bft)
11.05.2022 01:58 14,4 C 12,2 C 73 % 1016,1 hPa 0,0 l/m 3,2 km/h (1 Bft) SW 225 0 min 0,0 UV-I 0 W/m 9,6 C 14,4 C 4,8 km/h (1 Bft)
11.05.2022 01:59 14,4 C 12,2 C 73 % 1016,2 hPa 0,0 l/m 3,2 km/h (1 Bft) SW 225 0 min 0,0 UV-I 0 W/m 9,6 C 14,4 C 4,8 km/h (1 Bft)
11.05.2022 02:00 14,4 C 12,2 C 73 % 1016,2 hPa 0,0 l/m 3,2 km/h (1 Bft) SW 225 0 min 0,0 UV-I 0 W/m 9,6 C 14,4 C 4,8 km/h (1 Bft)
11.05.2022 02:01 14,4 C 12,8 C 73 % 1016,1 hPa 0,0 l/m 3,2 km/h (1 Bft) SW 225 0 min 0,0 UV-I 0 W/m 9,6 C 14,4 C 4,8 km/h (1 Bft)
11.05.2022 02:02 14,5 C 12,8 C 73 % 1016,1 hPa 0,0 l/m 3,2 km/h (1 Bft) SW 225 0 min 0,0 UV-I 0 W/m 9,7 C 14,5 C 4,8 km/h (1 Bft)
11.05.2022 02:03 14,5 C 12,8 C 73 % 1016,1 hPa 0,0 l/m 3,2 km/h (1 Bft) SW 225 0 min 0,0 UV-I 0 W/m 9,7 C 14,5 C 4,8 km/h (1 Bft)
11.05.2022 02:04 14,6 C 12,8 C 73 % 1016,0 hPa 0,0 l/m 3,2 km/h (1 Bft) SW 225 0 min 0,0 UV-I 0 W/m 9,8 C 14,6 C 4,8 km/h (1 Bft)
11.05.2022 02:05 14,6 C 12,8 C 72 % 1016,0 hPa 0,0 l/m 3,2 km/h (1 Bft) SW 225 0 min 0,0 UV-I 0 W/m 9,6 C 14,6 C 4,8 km/h (1 Bft)
11.05.2022 02:06 14,6 C 12,8 C 72 % 1016,1 hPa 0,0 l/m 3,2 km/h (1 Bft) SW 225 0 min 0,0 UV-I 0 W/m 9,6 C 14,6 C 6,4 km/h (2 Bft)
11.05.2022 02:07 14,6 C 12,8 C 72 % 1016,0 hPa 0,0 l/m 3,2 km/h (1 Bft) SW 225 0 min 0,0 UV-I 0 W/m 9,6 C 14,6 C 4,8 km/h (1 Bft)
11.05.2022 02:08 14,6 C 12,8 C 72 % 1016,0 hPa 0,0 l/m 3,2 km/h (1 Bft) SW 225 0 min 0,0 UV-I 0 W/m 9,6 C 14,6 C 4,8 km/h (1 Bft)
11.05.2022 02:09 14,6 C 12,8 C 72 % 1015,9 hPa 0,0 l/m 3,2 km/h (1 Bft) SW 225 0 min 0,0 UV-I 0 W/m 9,6 C 14,6 C 4,8 km/h (1 Bft)
11.05.2022 02:10 14,6 C 12,8 C 72 % 1016,0 hPa 0,0 l/m 3,2 km/h (1 Bft) SW 225 0 min 0,0 UV-I 0 W/m 9,6 C 14,6 C 4,8 km/h (1 Bft)
11.05.2022 02:11 14,6 C 12,8 C 72 % 1016,0 hPa 0,0 l/m 3,2 km/h (1 Bft) SW 225 0 min 0,0 UV-I 0 W/m 9,6 C 14,6 C 4,8 km/h (1 Bft)
11.05.2022 02:12 14,7 C 12,8 C 72 % 1016,0 hPa 0,0 l/m 4,8 km/h (1 Bft) SW 225 0 min 0,0 UV-I 0 W/m 9,7 C 14,7 C 4,8 km/h (1 Bft)
11.05.2022 02:13 14,7 C 12,8 C 72 % 1015,9 hPa 0,0 l/m 3,2 km/h (1 Bft) SW 225 0 min 0,0 UV-I 0 W/m 9,7 C 14,7 C 4,8 km/h (1 Bft)
11.05.2022 02:14 14,7 C 12,8 C 72 % 1015,9 hPa 0,0 l/m 3,2 km/h (1 Bft) SW 225 0 min 0,0 UV-I 0 W/m 9,7 C 14,7 C 4,8 km/h (1 Bft)
11.05.2022 02:15 14,7 C 12,8 C 72 % 1015,9 hPa 0,0 l/m 3,2 km/h (1 Bft) SW 225 0 min 0,0 UV-I 0 W/m 9,7 C 14,7 C 3,2 km/h (1 Bft)
11.05.2022 02:16 14,7 C 12,8 C 72 % 1015,9 hPa 0,0 l/m 3,2 km/h (1 Bft) SW 225 0 min 0,0 UV-I 0 W/m 9,7 C 14,7 C 4,8 km/h (1 Bft)
11.05.2022 02:17 14,7 C 12,8 C 72 % 1015,9 hPa 0,0 l/m 3,2 km/h (1 Bft) SW 225 0 min 0,0 UV-I 0 W/m 9,7 C 14,7 C 3,2 km/h (1 Bft)
11.05.2022 02:18 14,7 C 12,8 C 72 % 1015,9 hPa 0,0 l/m 3,2 km/h (1 Bft) SW 225 0 min 0,0 UV-I 0 W/m 9,7 C 14,7 C 4,8 km/h (1 Bft)
11.05.2022 02:19 14,7 C 12,8 C 72 % 1015,9 hPa 0,0 l/m 3,2 km/h (1 Bft) SW 225 0 min 0,0 UV-I 0 W/m 9,7 C 14,7 C 4,8 km/h (1 Bft)
11.05.2022 02:20 14,7 C 12,8 C 72 % 1015,7 hPa 0,0 l/m 1,6 km/h (1 Bft) SW 225 0 min 0,0 UV-I 0 W/m 9,7 C 14,7 C 3,2 km/h (1 Bft)
11.05.2022 02:21 14,6 C 12,8 C 72 % 1015,8 hPa 0,0 l/m 3,2 km/h (1 Bft) SW 225 0 min 0,0 UV-I 0 W/m 9,6 C 14,6 C 3,2 km/h (1 Bft)
11.05.2022 02:22 14,6 C 12,8 C 72 % 1015,9 hPa 0,0 l/m 3,2 km/h (1 Bft) SW 225 0 min 0,0 UV-I 0 W/m 9,6 C 14,6 C 4,8 km/h (1 Bft)
11.05.2022 02:23 14,6 C 12,8 C 72 % 1015,8 hPa 0,0 l/m 3,2 km/h (1 Bft) SW 225 0 min 0,0 UV-I 0 W/m 9,6 C 14,6 C 4,8 km/h (1 Bft)
11.05.2022 02:24 14,6 C 12,8 C 72 % 1015,9 hPa 0,0 l/m 3,2 km/h (1 Bft) SW 225 0 min 0,0 UV-I 0 W/m 9,6 C 14,6 C 4,8 km/h (1 Bft)
11.05.2022 02:25 14,6 C 12,8 C 72 % 1015,9 hPa 0,0 l/m 3,2 km/h (1 Bft) SW 225 0 min 0,0 UV-I 0 W/m 9,6 C 14,6 C 4,8 km/h (1 Bft)
11.05.2022 02:26 14,6 C 12,8 C 73 % 1015,9 hPa 0,0 l/m 3,2 km/h (1 Bft) SW 225 0 min 0,0 UV-I 0 W/m 9,8 C 14,6 C 3,2 km/h (1 Bft)
11.05.2022 02:27 14,6 C 12,2 C 73 % 1015,7 hPa 0,0 l/m 3,2 km/h (1 Bft) SW 225 0 min 0,0 UV-I 0 W/m 9,8 C 14,6 C 4,8 km/h (1 Bft)
11.05.2022 02:28 14,5 C 12,2 C 73 % 1015,8 hPa 0,0 l/m 1,6 km/h (1 Bft) SW 225 0 min 0,0 UV-I 0 W/m 9,7 C 14,5 C 3,2 km/h (1 Bft)
11.05.2022 02:29 14,4 C 12,2 C 73 % 1015,7 hPa 0,0 l/m 3,2 km/h (1 Bft) SW 225 0 min 0,0 UV-I 0 W/m 9,6 C 14,4 C 4,8 km/h (1 Bft)
11.05.2022 02:30 14,4 C 11,7 C 73 % 1015,7 hPa 0,0 l/m 3,2 km/h (1 Bft) SW 225 0 min 0,0 UV-I 0 W/m 9,6 C 14,4 C 4,8 km/h (1 Bft)
11.05.2022 02:31 14,3 C 11,7 C 73 % 1015,8 hPa 0,0 l/m 3,2 km/h (1 Bft) SW 225 0 min 0,0 UV-I 0 W/m 9,5 C 14,3 C 3,2 km/h (1 Bft)
11.05.2022 02:32 14,3 C 11,7 C 74 % 1015,8 hPa 0,0 l/m 3,2 km/h (1 Bft) SW 225 0 min 0,0 UV-I 0 W/m 9,7 C 14,3 C 3,2 km/h (1 Bft)
11.05.2022 02:33 14,2 C 11,7 C 74 % 1015,7 hPa 0,0 l/m 3,2 km/h (1 Bft) SW 225 0 min 0,0 UV-I 0 W/m 9,6 C 14,2 C 4,8 km/h (1 Bft)
11.05.2022 02:34 14,2 C 11,7 C 74 % 1015,7 hPa 0,0 l/m 4,8 km/h (1 Bft) SW 225 0 min 0,0 UV-I 0 W/m 9,6 C 14,2 C 6,4 km/h (2 Bft)
11.05.2022 02:35 14,2 C 12,2 C 74 % 1015,7 hPa 0,0 l/m 4,8 km/h (1 Bft) SW 225 0 min 0,0 UV-I 0 W/m 9,6 C 14,2 C 4,8 km/h (1 Bft)
11.05.2022 02:36 14,3 C 12,2 C 74 % 1015,7 hPa 0,0 l/m 3,2 km/h (1 Bft) SW 225 0 min 0,0 UV-I 0 W/m 9,7 C 14,3 C 4,8 km/h (1 Bft)
11.05.2022 02:37 14,2 C 12,2 C 73 % 1015,7 hPa 0,0 l/m 3,2 km/h (1 Bft) SW 225 0 min 0,0 UV-I 0 W/m 9,4 C 14,2 C 4,8 km/h (1 Bft)
11.05.2022 02:38 14,2 C 11,7 C 74 % 1015,6 hPa 0,0 l/m 3,2 km/h (1 Bft) SW 225 0 min 0,0 UV-I 0 W/m 9,6 C 14,2 C 4,8 km/h (1 Bft)
11.05.2022 02:39 14,2 C 11,7 C 74 % 1015,7 hPa 0,0 l/m 3,2 km/h (1 Bft) SW 225 0 min 0,0 UV-I 0 W/m 9,6 C 14,2 C 4,8 km/h (1 Bft)
11.05.2022 02:40 14,2 C 11,7 C 74 % 1015,6 hPa 0,0 l/m 3,2 km/h (1 Bft) SW 225 0 min 0,0 UV-I 0 W/m 9,6 C 14,2 C 4,8 km/h (1 Bft)
11.05.2022 02:41 14,2 C 11,7 C 74 % 1015,6 hPa 0,0 l/m 3,2 km/h (1 Bft) SW 225 0 min 0,0 UV-I 0 W/m 9,6 C 14,2 C 4,8 km/h (1 Bft)
11.05.2022 02:42 14,1 C 11,7 C 74 % 1015,6 hPa 0,0 l/m 3,2 km/h (1 Bft) SW 225 0 min 0,0 UV-I 0 W/m 9,5 C 14,1 C 4,8 km/h (1 Bft)
11.05.2022 02:43 14,1 C 11,7 C 74 % 1015,5 hPa 0,0 l/m 4,8 km/h (1 Bft) SW 225 0 min 0,0 UV-I 0 W/m 9,5 C 14,1 C 4,8 km/h (1 Bft)
11.05.2022 02:44 14,1 C 11,1 C 74 % 1015,6 hPa 0,0 l/m 3,2 km/h (1 Bft) SW 225 0 min 0,0 UV-I 0 W/m 9,5 C 14,1 C 4,8 km/h (1 Bft)
11.05.2022 02:45 14,0 C 11,1 C 74 % 1015,6 hPa 0,0 l/m 1,6 km/h (1 Bft) SW 225 0 min 0,0 UV-I 0 W/m 9,4 C 14,0 C 3,2 km/h (1 Bft)
11.05.2022 02:46 13,9 C 11,1 C 74 % 1015,6 hPa 0,0 l/m 1,6 km/h (1 Bft) SW 225 0 min 0,0 UV-I 0 W/m 9,3 C 13,9 C 3,2 km/h (1 Bft)
11.05.2022 02:47 13,9 C 11,1 C 74 % 1015,6 hPa 0,0 l/m 3,2 km/h (1 Bft) SW 225 0 min 0,0 UV-I 0 W/m 9,3 C 13,9 C 4,8 km/h (1 Bft)
11.05.2022 02:48 13,9 C 11,1 C 74 % 1015,6 hPa 0,0 l/m 3,2 km/h (1 Bft) SW 225 0 min 0,0 UV-I 0 W/m 9,3 C 13,9 C 4,8 km/h (1 Bft)
11.05.2022 02:49 13,9 C 11,1 C 74 % 1015,5 hPa 0,0 l/m 3,2 km/h (1 Bft) SW 225 0 min 0,0 UV-I 0 W/m 9,3 C 13,9 C 4,8 km/h (1 Bft)
11.05.2022 02:50 13,9 C 11,1 C 74 % 1015,6 hPa 0,0 l/m 1,6 km/h (1 Bft) SW 225 0 min 0,0 UV-I 0 W/m 9,3 C 13,9 C 3,2 km/h (1 Bft)
11.05.2022 02:51 13,9 C 11,1 C 74 % 1015,6 hPa 0,0 l/m 1,6 km/h (1 Bft) SW 225 0 min 0,0 UV-I 0 W/m 9,3 C 13,9 C 3,2 km/h (1 Bft)
11.05.2022 02:52 13,9 C 11,1 C 74 % 1015,6 hPa 0,0 l/m 3,2 km/h (1 Bft) SW 225 0 min 0,0 UV-I 0 W/m 9,3 C 13,9 C 4,8 km/h (1 Bft)
11.05.2022 02:53 13,9 C 11,1 C 74 % 1015,5 hPa 0,0 l/m 3,2 km/h (1 Bft) SW 225 0 min 0,0 UV-I 0 W/m 9,3 C 13,9 C 4,8 km/h (1 Bft)
11.05.2022 02:54 13,9 C 11,1 C 74 % 1015,4 hPa 0,0 l/m 3,2 km/h (1 Bft) SW 225 0 min 0,0 UV-I 0 W/m 9,3 C 13,9 C 4,8 km/h (1 Bft)
11.05.2022 02:55 13,9 C 11,1 C 74 % 1015,4 hPa 0,0 l/m 1,6 km/h (1 Bft) SW 225 0 min 0,0 UV-I 0 W/m 9,3 C 13,9 C 4,8 km/h (1 Bft)
11.05.2022 02:56 13,9 C 11,1 C 74 % 1015,5 hPa 0,0 l/m 3,2 km/h (1 Bft) SW 225 0 min 0,0 UV-I 0 W/m 9,3 C 13,9 C 3,2 km/h (1 Bft)
11.05.2022 02:57 13,9 C 11,1 C 74 % 1015,4 hPa 0,0 l/m 1,6 km/h (1 Bft) SW 225 0 min 0,0 UV-I 0 W/m 9,3 C 13,9 C 3,2 km/h (1 Bft)
11.05.2022 02:58 14,0 C 11,1 C 74 % 1015,5 hPa 0,0 l/m 3,2 km/h (1 Bft) SW 225 0 min 0,0 UV-I 0 W/m 9,4 C 14,0 C 4,8 km/h (1 Bft)
11.05.2022 02:59 14,0 C 10,6 C 74 % 1015,5 hPa 0,0 l/m 3,2 km/h (1 Bft) SW 225 0 min 0,0 UV-I 0 W/m 9,4 C 14,0 C 3,2 km/h (1 Bft)
11.05.2022 03:00 13,9 C 10,6 C 74 % 1015,4 hPa 0,0 l/m 1,6 km/h (1 Bft) SW 225 0 min 0,0 UV-I 0 W/m 9,3 C 13,9 C 3,2 km/h (1 Bft)
11.05.2022 03:01 13,9 C 10,6 C 74 % 1015,4 hPa 0,0 l/m 0,0 km/h (0 Bft) SW 225 0 min 0,0 UV-I 0 W/m 9,3 C 13,9 C 1,6 km/h (1 Bft)
11.05.2022 03:02 13,7 C 10,6 C 75 % 1015,4 hPa 0,0 l/m 1,6 km/h (1 Bft) SW 225 0 min 0,0 UV-I 0 W/m 9,3 C 13,7 C 3,2 km/h (1 Bft)
11.05.2022 03:03 13,6 C 10,0 C 75 % 1015,4 hPa 0,0 l/m 0,0 km/h (0 Bft) SW 225 0 min 0,0 UV-I 0 W/m 9,3 C 13,6 C 1,6 km/h (1 Bft)
11.05.2022 03:04 13,4 C 10,0 C 75 % 1015,4 hPa 0,0 l/m 0,0 km/h (0 Bft) SW 225 0 min 0,0 UV-I 0 W/m 9,1 C 13,4 C 1,6 km/h (1 Bft)
11.05.2022 03:05 13,3 C 10,0 C 76 % 1015,4 hPa 0,0 l/m 0,0 km/h (0 Bft) SW 225 0 min 0,0 UV-I 0 W/m 9,2 C 13,3 C 1,6 km/h (1 Bft)
11.05.2022 03:06 13,2 C 10,0 C 77 % 1015,4 hPa 0,0 l/m 0,0 km/h (0 Bft) N 0 0 min 0,0 UV-I 0 W/m 9,3 C 13,2 C 0,0 km/h (0 Bft)
11.05.2022 03:07 13,1 C 9,4 C 77 % 1015,4 hPa 0,0 l/m 0,0 km/h (0 Bft) SW 225 0 min 0,0 UV-I 0 W/m 9,2 C 13,1 C 1,6 km/h (1 Bft)
11.05.2022 03:08 13,0 C 9,4 C 77 % 1015,4 hPa 0,0 l/m 0,0 km/h (0 Bft) N 0 0 min 0,0 UV-I 0 W/m 9,1 C 13,0 C 0,0 km/h (0 Bft)
11.05.2022 03:09 12,9 C 9,4 C 77 % 1015,3 hPa 0,0 l/m 0,0 km/h (0 Bft) N 0 0 min 0,0 UV-I 0 W/m 9,0 C 12,9 C 0,0 km/h (0 Bft)
11.05.2022 03:10 12,8 C 9,4 C 77 % 1015,3 hPa 0,0 l/m 0,0 km/h (0 Bft) SW 225 0 min 0,0 UV-I 0 W/m 8,9 C 12,8 C 1,6 km/h (1 Bft)
11.05.2022 03:11 12,8 C 9,4 C 77 % 1015,3 hPa 0,0 l/m 0,0 km/h (0 Bft) N 0 0 min 0,0 UV-I 0 W/m 8,9 C 12,8 C 0,0 km/h (0 Bft)
11.05.2022 03:12 12,7 C 9,4 C 78 % 1015,4 hPa 0,0 l/m 0,0 km/h (0 Bft) N 0 0 min 0,0 UV-I 0 W/m 9,0 C 12,7 C 0,0 km/h (0 Bft)
11.05.2022 03:13 12,6 C 9,4 C 78 % 1015,3 hPa 0,0 l/m 0,0 km/h (0 Bft) N 0 0 min 0,0 UV-I 0 W/m 8,9 C 12,6 C 0,0 km/h (0 Bft)
11.05.2022 03:14 12,6 C 9,4 C 78 % 1015,3 hPa 0,0 l/m 0,0 km/h (0 Bft) N 0 0 min 0,0 UV-I 0 W/m 8,9 C 12,6 C 0,0 km/h (0 Bft)
11.05.2022 03:15 12,5 C 9,4 C 79 % 1015,3 hPa 0,0 l/m 0,0 km/h (0 Bft) N 0 0 min 0,0 UV-I 0 W/m 9,0 C 12,5 C 0,0 km/h (0 Bft)
11.05.2022 03:16 12,5 C 9,4 C 79 % 1015,2 hPa 0,0 l/m 0,0 km/h (0 Bft) SW 225 0 min 0,0 UV-I 0 W/m 9,0 C 12,5 C 1,6 km/h (1 Bft)
11.05.2022 03:17 12,4 C 9,4 C 79 % 1015,3 hPa 0,0 l/m 0,0 km/h (0 Bft) N 0 0 min 0,0 UV-I 0 W/m 8,9 C 12,4 C 0,0 km/h (0 Bft)
11.05.2022 03:18 12,4 C 9,4 C 79 % 1015,2 hPa 0,0 l/m 0,0 km/h (0 Bft) N 0 0 min 0,0 UV-I 0 W/m 8,9 C 12,4 C 0,0 km/h (0 Bft)
11.05.2022 03:19 12,4 C 9,4 C 79 % 1015,2 hPa 0,0 l/m 0,0 km/h (0 Bft) N 0 0 min 0,0 UV-I 0 W/m 8,9 C 12,4 C 0,0 km/h (0 Bft)
11.05.2022 03:20 12,4 C 9,4 C 79 % 1015,3 hPa 0,0 l/m 0,0 km/h (0 Bft) N 0 0 min 0,0 UV-I 0 W/m 8,9 C 12,4 C 0,0 km/h (0 Bft)
11.05.2022 03:21 12,4 C 9,4 C 79 % 1015,3 hPa 0,0 l/m 0,0 km/h (0 Bft) N 0 0 min 0,0 UV-I 0 W/m 8,9 C 12,4 C 0,0 km/h (0 Bft)
11.05.2022 03:22 12,4 C 9,4 C 79 % 1015,2 hPa 0,0 l/m 0,0 km/h (0 Bft) N 0 0 min 0,0 UV-I 0 W/m 8,9 C 12,4 C 0,0 km/h (0 Bft)
11.05.2022 03:23 12,4 C 8,9 C 79 % 1015,2 hPa 0,0 l/m 1,6 km/h (1 Bft) SW 225 0 min 0,0 UV-I 0 W/m 8,9 C 12,4 C 1,6 km/h (1 Bft)
11.05.2022 03:24 12,3 C 9,4 C 79 % 1015,2 hPa 0,0 l/m 1,6 km/h (1 Bft) SW 225 0 min 0,0 UV-I 0 W/m 8,8 C 12,3 C 1,6 km/h (1 Bft)
11.05.2022 03:25 12,3 C 8,9 C 80 % 1015,2 hPa 0,0 l/m 1,6 km/h (1 Bft) SW 225 0 min 0,0 UV-I 0 W/m 8,9 C 12,3 C 1,6 km/h (1 Bft)
11.05.2022 03:26 12,3 C 9,4 C 80 % 1015,2 hPa 0,0 l/m 1,6 km/h (1 Bft) SW 225 0 min 0,0 UV-I 0 W/m 8,9 C 12,3 C 1,6 km/h (1 Bft)
11.05.2022 03:27 12,2 C 9,4 C 80 % 1015,2 hPa 0,0 l/m 1,6 km/h (1 Bft) SW 225 0 min 0,0 UV-I 0 W/m 8,9 C 12,2 C 3,2 km/h (1 Bft)
11.05.2022 03:28 12,2 C 9,4 C 80 % 1015,2 hPa 0,0 l/m 1,6 km/h (1 Bft) SW 225 0 min 0,0 UV-I 0 W/m 8,9 C 12,2 C 3,2 km/h (1 Bft)
11.05.2022 03:29 12,1 C 9,4 C 80 % 1015,2 hPa 0,0 l/m 1,6 km/h (1 Bft) SW 225 0 min 0,0 UV-I 0 W/m 8,8 C 12,1 C 3,2 km/h (1 Bft)
11.05.2022 03:30 12,0 C 9,4 C 80 % 1015,2 hPa 0,0 l/m 1,6 km/h (1 Bft) SW 225 0 min 0,0 UV-I 0 W/m 8,7 C 12,0 C 3,2 km/h (1 Bft)
11.05.2022 03:31 11,9 C 9,4 C 81 % 1015,2 hPa 0,0 l/m 1,6 km/h (1 Bft) SW 225 0 min 0,0 UV-I 0 W/m 8,7 C 11,9 C 1,6 km/h (1 Bft)
11.05.2022 03:32 11,9 C 9,4 C 81 % 1015,2 hPa 0,0 l/m 1,6 km/h (1 Bft) SW 225 0 min 0,0 UV-I 0 W/m 8,7 C 11,9 C 1,6 km/h (1 Bft)
11.05.2022 03:33 11,9 C 9,4 C 81 % 1015,3 hPa 0,0 l/m 1,6 km/h (1 Bft) SW 225 0 min 0,0 UV-I 0 W/m 8,7 C 11,9 C 3,2 km/h (1 Bft)
11.05.2022 03:34 11,9 C 9,4 C 81 % 1015,1 hPa 0,0 l/m 1,6 km/h (1 Bft) SW 225 0 min 0,0 UV-I 0 W/m 8,7 C 11,9 C 3,2 km/h (1 Bft)
11.05.2022 03:35 11,9 C 9,4 C 81 % 1015,2 hPa 0,0 l/m 1,6 km/h (1 Bft) SW 225 0 min 0,0 UV-I 0 W/m 8,7 C 11,9 C 3,2 km/h (1 Bft)
11.05.2022 03:36 11,8 C 8,9 C 81 % 1015,2 hPa 0,0 l/m 1,6 km/h (1 Bft) SW 225 0 min 0,0 UV-I 0 W/m 8,6 C 11,8 C 3,2 km/h (1 Bft)
11.05.2022 03:37 11,8 C 9,4 C 81 % 1015,1 hPa 0,0 l/m 1,6 km/h (1 Bft) SW 225 0 min 0,0 UV-I 0 W/m 8,6 C 11,8 C 3,2 km/h (1 Bft)
11.05.2022 03:38 11,8 C 8,9 C 81 % 1015,3 hPa 0,0 l/m 1,6 km/h (1 Bft) SW 225 0 min 0,0 UV-I 0 W/m 8,6 C 11,8 C 3,2 km/h (1 Bft)
11.05.2022 03:39 11,8 C 8,9 C 81 % 1015,1 hPa 0,0 l/m 1,6 km/h (1 Bft) SW 225 0 min 0,0 UV-I 0 W/m 8,6 C 11,8 C 1,6 km/h (1 Bft)
11.05.2022 03:40 11,8 C 8,9 C 81 % 1015,2 hPa 0,0 l/m 1,6 km/h (1 Bft) SW 225 0 min 0,0 UV-I 0 W/m 8,6 C 11,8 C 3,2 km/h (1 Bft)
11.05.2022 03:41 11,8 C 8,9 C 81 % 1015,1 hPa 0,0 l/m 0,0 km/h (0 Bft) SW 225 0 min 0,0 UV-I 0 W/m 8,6 C 11,8 C 1,6 km/h (1 Bft)
11.05.2022 03:42 11,8 C 8,9 C 81 % 1015,1 hPa 0,0 l/m 1,6 km/h (1 Bft) SW 225 0 min 0,0 UV-I 0 W/m 8,6 C 11,8 C 3,2 km/h (1 Bft)
11.05.2022 03:43 11,7 C 8,9 C 81 % 1015,1 hPa 0,0 l/m 0,0 km/h (0 Bft) SW 225 0 min 0,0 UV-I 0 W/m 8,5 C 11,7 C 1,6 km/h (1 Bft)
11.05.2022 03:44 11,7 C 8,9 C 81 % 1015,1 hPa 0,0 l/m 0,0 km/h (0 Bft) SW 225 0 min 0,0 UV-I 0 W/m 8,5 C 11,7 C 1,6 km/h (1 Bft)
11.05.2022 03:45 11,6 C 8,9 C 81 % 1015,2 hPa 0,0 l/m 1,6 km/h (1 Bft) SW 225 0 min 0,0 UV-I 0 W/m 8,5 C 11,6 C 3,2 km/h (1 Bft)
11.05.2022 03:46 11,6 C 8,9 C 81 % 1015,1 hPa 0,0 l/m 1,6 km/h (1 Bft) SW 225 0 min 0,0 UV-I 0 W/m 8,5 C 11,6 C 3,2 km/h (1 Bft)
11.05.2022 03:47 11,6 C 8,9 C 82 % 1015,1 hPa 0,0 l/m 1,6 km/h (1 Bft) SW 225 0 min 0,0 UV-I 0 W/m 8,6 C 11,6 C 1,6 km/h (1 Bft)
11.05.2022 03:48 11,6 C 8,9 C 82 % 1015,1 hPa 0,0 l/m 1,6 km/h (1 Bft) SW 225 0 min 0,0 UV-I 0 W/m 8,6 C 11,6 C 1,6 km/h (1 Bft)
11.05.2022 03:49 11,5 C 8,9 C 82 % 1015,1 hPa 0,0 l/m 1,6 km/h (1 Bft) SW 225 0 min 0,0 UV-I 0 W/m 8,5 C 11,5 C 3,2 km/h (1 Bft)
11.05.2022 03:50 11,6 C 8,9 C 82 % 1015,0 hPa 0,0 l/m 1,6 km/h (1 Bft) SW 225 0 min 0,0 UV-I 0 W/m 8,6 C 11,6 C 3,2 km/h (1 Bft)
11.05.2022 03:51 11,6 C 9,4 C 82 % 1015,1 hPa 0,0 l/m 0,0 km/h (0 Bft) N 0 0 min 0,0 UV-I 0 W/m 8,6 C 11,6 C 0,0 km/h (0 Bft)
11.05.2022 03:52 11,6 C 9,4 C 82 % 1015,0 hPa 0,0 l/m 0,0 km/h (0 Bft) SW 225 0 min 0,0 UV-I 0 W/m 8,6 C 11,6 C 1,6 km/h (1 Bft)
11.05.2022 03:53 11,6 C 9,4 C 82 % 1015,0 hPa 0,0 l/m 0,0 km/h (0 Bft) SW 225 0 min 0,0 UV-I 0 W/m 8,6 C 11,6 C 1,6 km/h (1 Bft)
11.05.2022 03:54 11,6 C 9,4 C 82 % 1015,0 hPa 0,0 l/m 1,6 km/h (1 Bft) SW 225 0 min 0,0 UV-I 0 W/m 8,6 C 11,6 C 3,2 km/h (1 Bft)
11.05.2022 03:55 11,6 C 9,4 C 82 % 1015,0 hPa 0,0 l/m 1,6 km/h (1 Bft) SW 225 0 min 0,0 UV-I 0 W/m 8,6 C 11,6 C 3,2 km/h (1 Bft)
11.05.2022 03:56 11,6 C 9,4 C 82 % 1015,0 hPa 0,0 l/m 1,6 km/h (1 Bft) SW 225 0 min 0,0 UV-I 0 W/m 8,6 C 11,6 C 1,6 km/h (1 Bft)
11.05.2022 03:57 11,6 C 9,4 C 82 % 1014,9 hPa 0,0 l/m 1,6 km/h (1 Bft) SW 225 0 min 0,0 UV-I 0 W/m 8,6 C 11,6 C 3,2 km/h (1 Bft)
11.05.2022 03:58 11,6 C 9,4 C 82 % 1015,0 hPa 0,0 l/m 1,6 km/h (1 Bft) SW 225 0 min 0,0 UV-I 0 W/m 8,6 C 11,6 C 3,2 km/h (1 Bft)
11.05.2022 03:59 11,6 C 9,4 C 82 % 1015,0 hPa 0,0 l/m 1,6 km/h (1 Bft) SW 225 0 min 0,0 UV-I 0 W/m 8,6 C 11,6 C 3,2 km/h (1 Bft)
11.05.2022 04:00 11,6 C 9,4 C 82 % 1015,0 hPa 0,0 l/m 1,6 km/h (1 Bft) SW 225 0 min 0,0 UV-I 0 W/m 8,6 C 11,6 C 3,2 km/h (1 Bft)
11.05.2022 04:01 11,6 C 9,4 C 82 % 1014,9 hPa 0,0 l/m 1,6 km/h (1 Bft) SW 225 0 min 0,0 UV-I 0 W/m 8,6 C 11,6 C 1,6 km/h (1 Bft)
11.05.2022 04:02 11,6 C 9,4 C 82 % 1015,1 hPa 0,0 l/m 0,0 km/h (0 Bft) SW 225 0 min 0,0 UV-I 0 W/m 8,6 C 11,6 C 1,6 km/h (1 Bft)
11.05.2022 04:03 11,6 C 9,4 C 82 % 1014,9 hPa 0,0 l/m 0,0 km/h (0 Bft) SW 225 0 min 0,0 UV-I 0 W/m 8,6 C 11,6 C 1,6 km/h (1 Bft)
11.05.2022 04:04 11,5 C 9,4 C 82 % 1014,9 hPa 0,0 l/m 3,2 km/h (1 Bft) SW 225 0 min 0,0 UV-I 0 W/m 8,5 C 11,5 C 4,8 km/h (1 Bft)
11.05.2022 04:05 11,6 C 9,4 C 82 % 1014,9 hPa 0,0 l/m 1,6 km/h (1 Bft) SW 225 0 min 0,0 UV-I 0 W/m 8,6 C 11,6 C 3,2 km/h (1 Bft)
11.05.2022 04:06 11,5 C 9,4 C 82 % 1015,0 hPa 0,0 l/m 1,6 km/h (1 Bft) SW 225 0 min 0,0 UV-I 0 W/m 8,5 C 11,5 C 3,2 km/h (1 Bft)
11.05.2022 04:07 11,5 C 9,4 C 82 % 1015,0 hPa 0,0 l/m 1,6 km/h (1 Bft) SW 225 0 min 0,0 UV-I 0 W/m 8,5 C 11,5 C 3,2 km/h (1 Bft)
11.05.2022 04:08 11,5 C 9,4 C 82 % 1014,9 hPa 0,0 l/m 1,6 km/h (1 Bft) SW 225 0 min 0,0 UV-I 0 W/m 8,5 C 11,5 C 3,2 km/h (1 Bft)
11.05.2022 04:09 11,5 C 9,4 C 82 % 1014,8 hPa 0,0 l/m 1,6 km/h (1 Bft) SW 225 0 min 0,0 UV-I 0 W/m 8,5 C 11,5 C 3,2 km/h (1 Bft)
11.05.2022 04:10 11,5 C 9,4 C 82 % 1014,8 hPa 0,0 l/m 1,6 km/h (1 Bft) SW 225 0 min 0,0 UV-I 0 W/m 8,5 C 11,5 C 3,2 km/h (1 Bft)
11.05.2022 04:11 11,4 C 9,4 C 82 % 1014,9 hPa 0,0 l/m 1,6 km/h (1 Bft) SW 225 0 min 0,0 UV-I 0 W/m 8,4 C 11,4 C 3,2 km/h (1 Bft)
11.05.2022 04:12 11,4 C 9,4 C 82 % 1014,9 hPa 0,0 l/m 0,0 km/h (0 Bft) SW 225 0 min 0,0 UV-I 0 W/m 8,4 C 11,4 C 1,6 km/h (1 Bft)
11.05.2022 04:13 11,4 C 8,9 C 82 % 1014,8 hPa 0,0 l/m 1,6 km/h (1 Bft) SW 225 0 min 0,0 UV-I 0 W/m 8,4 C 11,4 C 1,6 km/h (1 Bft)
11.05.2022 04:14 11,3 C 8,9 C 82 % 1014,8 hPa 0,0 l/m 0,0 km/h (0 Bft) SW 225 0 min 0,0 UV-I 0 W/m 8,3 C 11,3 C 1,6 km/h (1 Bft)
11.05.2022 04:15 11,3 C 8,9 C 82 % 1014,8 hPa 0,0 l/m 0,0 km/h (0 Bft) SW 225 0 min 0,0 UV-I 0 W/m 8,3 C 11,3 C 1,6 km/h (1 Bft)
11.05.2022 04:16 11,3 C 8,9 C 83 % 1014,9 hPa 0,0 l/m 0,0 km/h (0 Bft) SW 225 0 min 0,0 UV-I 0 W/m 8,5 C 11,3 C 1,6 km/h (1 Bft)
11.05.2022 04:17 11,3 C 8,9 C 83 % 1014,8 hPa 0,0 l/m 1,6 km/h (1 Bft) SW 225 0 min 0,0 UV-I 0 W/m 8,5 C 11,3 C 3,2 km/h (1 Bft)
11.05.2022 04:18 11,3 C 8,9 C 82 % 1014,7 hPa 0,0 l/m 3,2 km/h (1 Bft) SO 135 0 min 0,0 UV-I 0 W/m 8,3 C 11,3 C 6,4 km/h (2 Bft)
11.05.2022 04:19 11,3 C 8,9 C 82 % 1014,9 hPa 0,0 l/m 1,6 km/h (1 Bft) SO 135 0 min 0,0 UV-I 0 W/m 8,3 C 11,3 C 3,2 km/h (1 Bft)
11.05.2022 04:20 11,3 C 8,9 C 83 % 1014,9 hPa 0,0 l/m 1,6 km/h (1 Bft) SO 135 0 min 0,0 UV-I 0 W/m 8,5 C 11,3 C 1,6 km/h (1 Bft)
11.05.2022 04:21 11,3 C 8,9 C 83 % 1014,8 hPa 0,0 l/m 0,0 km/h (0 Bft) N 0 0 min 0,0 UV-I 0 W/m 8,5 C 11,3 C 0,0 km/h (0 Bft)
11.05.2022 04:22 11,3 C 8,9 C 83 % 1014,9 hPa 0,0 l/m 0,0 km/h (0 Bft) SO 135 0 min 0,0 UV-I 0 W/m 8,5 C 11,3 C 1,6 km/h (1 Bft)
11.05.2022 04:23 11,4 C 8,9 C 83 % 1014,7 hPa 0,0 l/m 3,2 km/h (1 Bft) SO 135 0 min 0,0 UV-I 0 W/m 8,6 C 11,4 C 8,0 km/h (2 Bft)
11.05.2022 04:24 11,4 C 8,9 C 82 % 1014,7 hPa 0,0 l/m 1,6 km/h (1 Bft) SO 135 0 min 0,0 UV-I 0 W/m 8,4 C 11,4 C 1,6 km/h (1 Bft)
11.05.2022 04:25 11,4 C 8,9 C 82 % 1014,8 hPa 0,0 l/m 0,0 km/h (0 Bft) SO 135 0 min 0,0 UV-I 0 W/m 8,4 C 11,4 C 1,6 km/h (1 Bft)
11.05.2022 04:26 11,4 C 8,9 C 82 % 1014,8 hPa 0,0 l/m 3,2 km/h (1 Bft) SO 135 0 min 0,0 UV-I 0 W/m 8,4 C 11,4 C 4,8 km/h (1 Bft)
11.05.2022 04:27 11,5 C 8,9 C 83 % 1014,7 hPa 0,0 l/m 1,6 km/h (1 Bft) SO 135 0 min 0,0 UV-I 0 W/m 8,7 C 11,5 C 3,2 km/h (1 Bft)
11.05.2022 04:28 11,6 C 8,9 C 82 % 1014,7 hPa 0,0 l/m 1,6 km/h (1 Bft) SO 135 0 min 0,0 UV-I 0 W/m 8,6 C 11,6 C 3,2 km/h (1 Bft)
11.05.2022 04:29 11,6 C 9,4 C 82 % 1014,7 hPa 0,0 l/m 1,6 km/h (1 Bft) SO 135 0 min 0,0 UV-I 0 W/m 8,6 C 11,6 C 3,2 km/h (1 Bft)
11.05.2022 04:30 11,7 C 9,4 C 82 % 1014,7 hPa 0,0 l/m 3,2 km/h (1 Bft) SO 135 0 min 0,0 UV-I 0 W/m 8,7 C 11,7 C 4,8 km/h (1 Bft)
11.05.2022 04:31 11,8 C 9,4 C 82 % 1014,7 hPa 0,0 l/m 3,2 km/h (1 Bft) SO 135 0 min 0,0 UV-I 0 W/m 8,8 C 11,8 C 4,8 km/h (1 Bft)
11.05.2022 04:32 11,8 C 8,9 C 81 % 1014,7 hPa 0,0 l/m 1,6 km/h (1 Bft) S-SO 157 0 min 0,0 UV-I 0 W/m 8,6 C 11,8 C 8,0 km/h (2 Bft)
11.05.2022 04:33 11,8 C 9,4 C 81 % 1014,7 hPa 0,0 l/m 4,8 km/h (1 Bft) S-SO 157 0 min 0,0 UV-I 0 W/m 8,6 C 11,8 C 11,3 km/h (2 Bft)
11.05.2022 04:34 11,9 C 9,4 C 81 % 1014,8 hPa 0,0 l/m 4,8 km/h (1 Bft) S 180 0 min 0,0 UV-I 0 W/m 8,7 C 11,9 C 9,7 km/h (2 Bft)
11.05.2022 04:35 11,9 C 9,4 C 81 % 1014,7 hPa 0,0 l/m 3,2 km/h (1 Bft) S 180 0 min 0,0 UV-I 0 W/m 8,7 C 11,9 C 4,8 km/h (1 Bft)
11.05.2022 04:36 12,1 C 9,4 C 81 % 1014,8 hPa 0,0 l/m 4,8 km/h (1 Bft) S 180 0 min 0,0 UV-I 0 W/m 8,9 C 12,1 C 8,0 km/h (2 Bft)
11.05.2022 04:37 12,1 C 9,4 C 80 % 1014,7 hPa 0,0 l/m 3,2 km/h (1 Bft) S 180 0 min 0,0 UV-I 0 W/m 8,8 C 12,1 C 4,8 km/h (1 Bft)
11.05.2022 04:38 12,1 C 9,4 C 80 % 1014,7 hPa 0,0 l/m 3,2 km/h (1 Bft) S 180 0 min 0,0 UV-I 0 W/m 8,8 C 12,1 C 9,7 km/h (2 Bft)
11.05.2022 04:39 12,2 C 9,4 C 80 % 1014,8 hPa 0,0 l/m 6,4 km/h (2 Bft) S-SW 202 0 min 0,0 UV-I 0 W/m 8,9 C 12,2 C 9,7 km/h (2 Bft)
11.05.2022 04:40 12,4 C 9,4 C 79 % 1014,7 hPa 0,0 l/m 6,4 km/h (2 Bft) S-SW 202 0 min 0,0 UV-I 0 W/m 8,9 C 12,4 C 9,7 km/h (2 Bft)
11.05.2022 04:41 12,4 C 9,4 C 79 % 1014,8 hPa 0,0 l/m 6,4 km/h (2 Bft) S-SW 202 0 min 0,0 UV-I 0 W/m 8,9 C 12,4 C 9,7 km/h (2 Bft)
11.05.2022 04:42 12,5 C 9,4 C 79 % 1014,7 hPa 0,0 l/m 4,8 km/h (1 Bft) S-SW 202 0 min 0,0 UV-I 0 W/m 9,0 C 12,5 C 6,4 km/h (2 Bft)
11.05.2022 04:43 12,6 C 10,0 C 79 % 1014,8 hPa 0,0 l/m 4,8 km/h (1 Bft) S-SW 202 0 min 0,0 UV-I 0 W/m 9,1 C 12,6 C 6,4 km/h (2 Bft)
11.05.2022 04:44 12,6 C 10,0 C 78 % 1014,8 hPa 0,0 l/m 4,8 km/h (1 Bft) S-SW 202 0 min 0,0 UV-I 0 W/m 8,9 C 12,6 C 4,8 km/h (1 Bft)
11.05.2022 04:45 12,5 C 10,0 C 78 % 1014,8 hPa 0,0 l/m 3,2 km/h (1 Bft) S-SW 202 0 min 0,0 UV-I 0 W/m 8,8 C 12,5 C 4,8 km/h (1 Bft)
11.05.2022 04:46 12,3 C 10,0 C 78 % 1014,7 hPa 0,0 l/m 3,2 km/h (1 Bft) S-SW 202 0 min 0,0 UV-I 0 W/m 8,6 C 12,3 C 3,2 km/h (1 Bft)
11.05.2022 04:47 12,1 C 10,0 C 78 % 1014,7 hPa 0,0 l/m 1,6 km/h (1 Bft) S-SW 202 0 min 0,0 UV-I 0 W/m 8,4 C 12,1 C 3,2 km/h (1 Bft)
11.05.2022 04:48 11,8 C 9,4 C 78 % 1014,8 hPa 0,0 l/m 1,6 km/h (1 Bft) S-SW 202 0 min 0,0 UV-I 0 W/m 8,1 C 11,8 C 4,8 km/h (1 Bft)
11.05.2022 04:49 11,6 C 9,4 C 79 % 1014,7 hPa 0,0 l/m 1,6 km/h (1 Bft) S-SW 202 0 min 0,0 UV-I 0 W/m 8,1 C 11,6 C 4,8 km/h (1 Bft)
11.05.2022 04:50 11,5 C 9,4 C 79 % 1014,7 hPa 0,0 l/m 1,6 km/h (1 Bft) S-SW 202 0 min 0,0 UV-I 0 W/m 8,0 C 11,5 C 3,2 km/h (1 Bft)
11.05.2022 04:51 11,4 C 9,4 C 80 % 1014,7 hPa 0,0 l/m 1,6 km/h (1 Bft) S-SW 202 0 min 0,0 UV-I 0 W/m 8,1 C 11,4 C 3,2 km/h (1 Bft)
11.05.2022 04:52 11,3 C 9,4 C 81 % 1014,8 hPa 0,0 l/m 1,6 km/h (1 Bft) S-SW 202 0 min 0,0 UV-I 0 W/m 8,2 C 11,3 C 3,2 km/h (1 Bft)
11.05.2022 04:53 11,3 C 8,9 C 81 % 1014,7 hPa 0,0 l/m 3,2 km/h (1 Bft) S-SW 202 0 min 0,0 UV-I 0 W/m 8,2 C 11,3 C 4,8 km/h (1 Bft)
11.05.2022 04:54 11,4 C 8,9 C 82 % 1014,7 hPa 0,0 l/m 3,2 km/h (1 Bft) S-SW 202 0 min 0,0 UV-I 0 W/m 8,4 C 11,4 C 4,8 km/h (1 Bft)
11.05.2022 04:55 11,7 C 8,9 C 82 % 1014,8 hPa 0,0 l/m 3,2 km/h (1 Bft) S-SW 202 0 min 0,0 UV-I 0 W/m 8,7 C 11,7 C 4,8 km/h (1 Bft)
11.05.2022 04:56 11,7 C 8,9 C 81 % 1014,7 hPa 0,0 l/m 3,2 km/h (1 Bft) S-SW 202 0 min 0,0 UV-I 0 W/m 8,5 C 11,7 C 6,4 km/h (2 Bft)
11.05.2022 04:57 11,8 C 8,9 C 81 % 1014,6 hPa 0,0 l/m 3,2 km/h (1 Bft) S-SW 202 0 min 0,0 UV-I 0 W/m 8,6 C 11,8 C 6,4 km/h (2 Bft)
11.05.2022 04:58 11,9 C 8,9 C 81 % 1014,7 hPa 0,0 l/m 4,8 km/h (1 Bft) S-SW 202 0 min 0,0 UV-I 0 W/m 8,7 C 11,9 C 8,0 km/h (2 Bft)
11.05.2022 04:59 12,0 C 9,4 C 80 % 1014,7 hPa 0,0 l/m 4,8 km/h (1 Bft) S-SW 202 0 min 0,0 UV-I 0 W/m 8,7 C 12,0 C 6,4 km/h (2 Bft)
11.05.2022 05:00 12,1 C 8,9 C 80 % 1014,7 hPa 0,0 l/m 3,2 km/h (1 Bft) S-SW 202 0 min 0,0 UV-I 0 W/m 8,8 C 12,1 C 4,8 km/h (1 Bft)
11.05.2022 05:01 12,1 C 8,9 C 80 % 1014,7 hPa 0,0 l/m 4,8 km/h (1 Bft) S-SW 202 0 min 0,0 UV-I 0 W/m 8,8 C 12,1 C 6,4 km/h (2 Bft)
11.05.2022 05:02 12,3 C 9,4 C 80 % 1014,6 hPa 0,0 l/m 4,8 km/h (1 Bft) S-SW 202 0 min 0,0 UV-I 0 W/m 8,9 C 12,3 C 8,0 km/h (2 Bft)
11.05.2022 05:03 12,3 C 9,4 C 79 % 1014,7 hPa 0,0 l/m 6,4 km/h (2 Bft) S-SW 202 0 min 0,0 UV-I 0 W/m 8,8 C 12,3 C 8,0 km/h (2 Bft)
11.05.2022 05:04 12,4 C 9,4 C 79 % 1014,6 hPa 0,0 l/m 4,8 km/h (1 Bft) S-SW 202 0 min 0,0 UV-I 0 W/m 8,9 C 12,4 C 6,4 km/h (2 Bft)
11.05.2022 05:05 12,4 C 9,4 C 78 % 1014,6 hPa 0,0 l/m 3,2 km/h (1 Bft) S-SW 202 0 min 0,0 UV-I 0 W/m 8,7 C 12,4 C 6,4 km/h (2 Bft)
11.05.2022 05:06 12,3 C 9,4 C 78 % 1014,6 hPa 0,0 l/m 4,8 km/h (1 Bft) S-SW 202 0 min 0,0 UV-I 0 W/m 8,6 C 12,3 C 8,0 km/h (2 Bft)
11.05.2022 05:07 12,3 C 9,4 C 79 % 1014,6 hPa 0,0 l/m 4,8 km/h (1 Bft) S-SW 202 0 min 0,0 UV-I 0 W/m 8,8 C 12,3 C 6,4 km/h (2 Bft)
11.05.2022 05:08 12,4 C 9,4 C 79 % 1014,5 hPa 0,0 l/m 4,8 km/h (1 Bft) S-SW 202 0 min 0,0 UV-I 0 W/m 8,9 C 12,4 C 6,4 km/h (2 Bft)
11.05.2022 05:09 12,4 C 9,4 C 79 % 1014,6 hPa 0,0 l/m 4,8 km/h (1 Bft) S-SW 202 0 min 0,0 UV-I 0 W/m 8,9 C 12,4 C 8,0 km/h (2 Bft)
11.05.2022 05:10 12,4 C 9,4 C 79 % 1014,6 hPa 0,0 l/m 4,8 km/h (1 Bft) S-SW 202 0 min 0,0 UV-I 0 W/m 8,9 C 12,4 C 6,4 km/h (2 Bft)
11.05.2022 05:11 12,4 C 9,4 C 78 % 1014,6 hPa 0,0 l/m 4,8 km/h (1 Bft) S-SW 202 0 min 0,0 UV-I 0 W/m 8,7 C 12,4 C 6,4 km/h (2 Bft)
11.05.2022 05:12 12,4 C 9,4 C 78 % 1014,5 hPa 0,0 l/m 4,8 km/h (1 Bft) S-SW 202 0 min 0,0 UV-I 0 W/m 8,7 C 12,4 C 6,4 km/h (2 Bft)
11.05.2022 05:13 12,3 C 9,4 C 78 % 1014,5 hPa 0,0 l/m 4,8 km/h (1 Bft) S-SW 202 0 min 0,0 UV-I 0 W/m 8,6 C 12,3 C 6,4 km/h (2 Bft)
11.05.2022 05:14 12,3 C 9,4 C 79 % 1014,5 hPa 0,0 l/m 4,8 km/h (1 Bft) S-SW 202 0 min 0,0 UV-I 0 W/m 8,8 C 12,3 C 6,4 km/h (2 Bft)
11.05.2022 05:15 12,3 C 9,4 C 79 % 1014,5 hPa 0,0 l/m 3,2 km/h (1 Bft) S-SW 202 0 min 0,0 UV-I 0 W/m 8,8 C 12,3 C 4,8 km/h (1 Bft)
11.05.2022 05:16 12,4 C 9,4 C 79 % 1014,4 hPa 0,0 l/m 4,8 km/h (1 Bft) S-SW 202 0 min 0,0 UV-I 0 W/m 8,9 C 12,4 C 8,0 km/h (2 Bft)
11.05.2022 05:17 12,4 C 10,0 C 79 % 1014,4 hPa 0,0 l/m 4,8 km/h (1 Bft) S-SW 202 0 min 0,0 UV-I 0 W/m 8,9 C 12,4 C 6,4 km/h (2 Bft)
11.05.2022 05:18 12,6 C 10,0 C 79 % 1014,4 hPa 0,0 l/m 6,4 km/h (2 Bft) S-SW 202 0 min 0,0 UV-I 0 W/m 9,1 C 12,6 C 8,0 km/h (2 Bft)
11.05.2022 05:19 12,6 C 10,0 C 78 % 1014,5 hPa 0,0 l/m 6,4 km/h (2 Bft) S-SW 202 0 min 0,0 UV-I 0 W/m 8,9 C 12,6 C 9,7 km/h (2 Bft)
11.05.2022 05:20 12,7 C 10,0 C 78 % 1014,4 hPa 0,0 l/m 6,4 km/h (2 Bft) S-SW 202 0 min 0,0 UV-I 0 W/m 9,0 C 12,7 C 9,7 km/h (2 Bft)
11.05.2022 05:21 12,8 C 10,0 C 77 % 1014,5 hPa 0,0 l/m 6,4 km/h (2 Bft) S-SW 202 0 min 0,0 UV-I 0 W/m 8,9 C 12,8 C 8,0 km/h (2 Bft)
11.05.2022 05:22 12,9 C 10,6 C 77 % 1014,4 hPa 0,0 l/m 6,4 km/h (2 Bft) S-SW 202 0 min 0,0 UV-I 0 W/m 9,0 C 12,9 C 9,7 km/h (2 Bft)
11.05.2022 05:23 12,9 C 10,6 C 77 % 1014,4 hPa 0,0 l/m 6,4 km/h (2 Bft) S-SW 202 0 min 0,0 UV-I 0 W/m 9,0 C 12,9 C 8,0 km/h (2 Bft)
11.05.2022 05:24 12,9 C 10,6 C 76 % 1014,5 hPa 0,0 l/m 6,4 km/h (2 Bft) S-SW 202 0 min 0,0 UV-I 0 W/m 8,8 C 12,9 C 9,7 km/h (2 Bft)
11.05.2022 05:25 13,0 C 10,6 C 76 % 1014,4 hPa 0,0 l/m 4,8 km/h (1 Bft) S-SW 202 0 min 0,0 UV-I 0 W/m 8,9 C 13,0 C 8,0 km/h (2 Bft)
11.05.2022 05:26 13,0 C 10,6 C 76 % 1014,4 hPa 0,0 l/m 6,4 km/h (2 Bft) S-SW 202 0 min 0,0 UV-I 0 W/m 8,9 C 13,0 C 8,0 km/h (2 Bft)
11.05.2022 05:27 13,1 C 10,6 C 76 % 1014,4 hPa 0,0 l/m 6,4 km/h (2 Bft) SW 225 0 min 0,0 UV-I 0 W/m 9,0 C 13,1 C 6,4 km/h (2 Bft)
11.05.2022 05:28 13,1 C 10,6 C 76 % 1014,3 hPa 0,0 l/m 4,8 km/h (1 Bft) SW 225 0 min 0,0 UV-I 0 W/m 9,0 C 13,1 C 8,0 km/h (2 Bft)
11.05.2022 05:29 13,0 C 10,6 C 76 % 1014,3 hPa 0,0 l/m 4,8 km/h (1 Bft) SW 225 0 min 0,0 UV-I 0 W/m 8,9 C 13,0 C 8,0 km/h (2 Bft)
11.05.2022 05:30 13,1 C 10,6 C 76 % 1014,3 hPa 0,0 l/m 4,8 km/h (1 Bft) SW 225 0 min 0,0 UV-I 0 W/m 9,0 C 13,1 C 8,0 km/h (2 Bft)
11.05.2022 05:31 13,0 C 10,6 C 76 % 1014,3 hPa 0,0 l/m 4,8 km/h (1 Bft) SW 225 0 min 0,0 UV-I 0 W/m 8,9 C 13,0 C 6,4 km/h (2 Bft)
11.05.2022 05:32 13,0 C 10,6 C 76 % 1014,3 hPa 0,0 l/m 4,8 km/h (1 Bft) SW 225 0 min 0,0 UV-I 0 W/m 8,9 C 13,0 C 8,0 km/h (2 Bft)
11.05.2022 05:33 13,0 C 10,6 C 76 % 1014,3 hPa 0,0 l/m 4,8 km/h (1 Bft) SW 225 0 min 0,0 UV-I 0 W/m 8,9 C 13,0 C 6,4 km/h (2 Bft)
11.05.2022 05:34 13,0 C 10,6 C 76 % 1014,2 hPa 0,0 l/m 3,2 km/h (1 Bft) SW 225 0 min 0,0 UV-I 0 W/m 8,9 C 13,0 C 6,4 km/h (2 Bft)
11.05.2022 05:35 12,9 C 10,6 C 76 % 1014,3 hPa 0,0 l/m 4,8 km/h (1 Bft) SW 225 0 min 0,0 UV-I 0 W/m 8,8 C 12,9 C 6,4 km/h (2 Bft)
11.05.2022 05:36 12,8 C 10,0 C 76 % 1014,4 hPa 0,0 l/m 4,8 km/h (1 Bft) SW 225 0 min 0,0 UV-I 0 W/m 8,7 C 12,8 C 6,4 km/h (2 Bft)
11.05.2022 05:37 12,8 C 10,0 C 76 % 1014,3 hPa 0,0 l/m 4,8 km/h (1 Bft) SW 225 0 min 0,0 UV-I 0 W/m 8,7 C 12,8 C 8,0 km/h (2 Bft)
11.05.2022 05:38 12,8 C 10,0 C 76 % 1014,4 hPa 0,0 l/m 4,8 km/h (1 Bft) SW 225 0 min 0,0 UV-I 0 W/m 8,7 C 12,8 C 8,0 km/h (2 Bft)
11.05.2022 05:39 12,8 C 10,0 C 77 % 1014,2 hPa 0,0 l/m 4,8 km/h (1 Bft) SW 225 0 min 0,0 UV-I 0 W/m 8,9 C 12,8 C 9,7 km/h (2 Bft)
11.05.2022 05:40 12,8 C 10,0 C 77 % 1014,3 hPa 0,0 l/m 6,4 km/h (2 Bft) SW 225 0 min 0,0 UV-I 0 W/m 8,9 C 12,8 C 9,7 km/h (2 Bft)
11.05.2022 05:41 12,7 C 10,0 C 76 % 1014,3 hPa 0,0 l/m 4,8 km/h (1 Bft) SW 225 0 min 0,0 UV-I 0 W/m 8,6 C 12,7 C 4,8 km/h (1 Bft)
11.05.2022 05:42 12,7 C 10,0 C 77 % 1014,3 hPa 0,0 l/m 4,8 km/h (1 Bft) SW 225 0 min 0,0 UV-I 0 W/m 8,8 C 12,7 C 6,4 km/h (2 Bft)
11.05.2022 05:43 12,7 C 10,0 C 77 % 1014,3 hPa 0,0 l/m 3,2 km/h (1 Bft) SW 225 0 min 0,0 UV-I 0 W/m 8,8 C 12,7 C 4,8 km/h (1 Bft)
11.05.2022 05:44 12,6 C 10,0 C 77 % 1014,3 hPa 0,0 l/m 6,4 km/h (2 Bft) SW 225 0 min 0,0 UV-I 0 W/m 8,7 C 12,6 C 9,7 km/h (2 Bft)
11.05.2022 05:45 12,7 C 10,6 C 77 % 1014,2 hPa 0,0 l/m 4,8 km/h (1 Bft) SW 225 0 min 0,0 UV-I 0 W/m 8,8 C 12,7 C 6,4 km/h (2 Bft)
11.05.2022 05:46 12,7 C 10,6 C 77 % 1014,3 hPa 0,0 l/m 6,4 km/h (2 Bft) SW 225 0 min 0,0 UV-I 0 W/m 8,8 C 12,7 C 6,4 km/h (2 Bft)
11.05.2022 05:47 12,6 C 10,0 C 77 % 1014,3 hPa 0,0 l/m 4,8 km/h (1 Bft) SW 225 0 min 0,0 UV-I 0 W/m 8,7 C 12,6 C 6,4 km/h (2 Bft)
11.05.2022 05:48 12,6 C 10,0 C 77 % 1014,3 hPa 0,0 l/m 4,8 km/h (1 Bft) SW 225 0 min 0,0 UV-I 0 W/m 8,7 C 12,6 C 6,4 km/h (2 Bft)
11.05.2022 05:49 12,6 C 10,0 C 77 % 1014,3 hPa 0,0 l/m 4,8 km/h (1 Bft) SW 225 0 min 0,0 UV-I 0 W/m 8,7 C 12,6 C 6,4 km/h (2 Bft)
11.05.2022 05:50 12,5 C 10,0 C 77 % 1014,3 hPa 0,0 l/m 4,8 km/h (1 Bft) SW 225 0 min 0,0 UV-I 0 W/m 8,6 C 12,5 C 4,8 km/h (1 Bft)
11.05.2022 05:51 12,4 C 10,0 C 77 % 1014,1 hPa 0,0 l/m 4,8 km/h (1 Bft) SW 225 0 min 0,0 UV-I 0 W/m 8,5 C 12,4 C 6,4 km/h (2 Bft)
11.05.2022 05:52 12,3 C 10,0 C 77 % 1014,2 hPa 0,0 l/m 4,8 km/h (1 Bft) SW 225 0 min 0,0 UV-I 0 W/m 8,4 C 12,3 C 4,8 km/h (1 Bft)
11.05.2022 05:53 12,3 C 10,0 C 78 % 1014,1 hPa 0,0 l/m 4,8 km/h (1 Bft) SW 225 0 min 0,0 UV-I 0 W/m 8,6 C 12,3 C 8,0 km/h (2 Bft)
11.05.2022 05:54 12,2 C 10,0 C 78 % 1014,2 hPa 0,0 l/m 4,8 km/h (1 Bft) SW 225 0 min 0,0 UV-I 0 W/m 8,5 C 12,2 C 6,4 km/h (2 Bft)
11.05.2022 05:55 12,2 C 10,0 C 78 % 1014,2 hPa 0,0 l/m 4,8 km/h (1 Bft) SW 225 0 min 0,0 UV-I 0 W/m 8,5 C 12,2 C 6,4 km/h (2 Bft)
11.05.2022 05:56 12,1 C 10,0 C 78 % 1014,2 hPa 0,0 l/m 4,8 km/h (1 Bft) SW 225 0 min 0,0 UV-I 0 W/m 8,4 C 12,1 C 8,0 km/h (2 Bft)
11.05.2022 05:57 12,1 C 10,0 C 78 % 1014,3 hPa 0,0 l/m 4,8 km/h (1 Bft) SW 225 0 min 0,0 UV-I 0 W/m 8,4 C 12,1 C 6,4 km/h (2 Bft)
11.05.2022 05:58 12,1 C 10,0 C 78 % 1014,1 hPa 0,0 l/m 6,4 km/h (2 Bft) SW 225 0 min 0,0 UV-I 0 W/m 8,4 C 12,1 C 8,0 km/h (2 Bft)
11.05.2022 05:59 12,1 C 10,0 C 78 % 1014,1 hPa 0,0 l/m 4,8 km/h (1 Bft) SW 225 0 min 0,0 UV-I 0 W/m 8,4 C 12,1 C 4,8 km/h (1 Bft)
11.05.2022 06:00 12,1 C 10,0 C 78 % 1014,1 hPa 0,0 l/m 3,2 km/h (1 Bft) SW 225 0 min 0,0 UV-I 5 W/m 8,4 C 12,1 C 6,4 km/h (2 Bft)
11.05.2022 06:01 12,0 C 10,0 C 78 % 1014,1 hPa 0,0 l/m 4,8 km/h (1 Bft) SW 225 0 min 0,0 UV-I 5 W/m 8,3 C 12,0 C 8,0 km/h (2 Bft)
11.05.2022 06:02 12,0 C 10,0 C 79 % 1014,1 hPa 0,0 l/m 4,8 km/h (1 Bft) SW 225 0 min 0,0 UV-I 5 W/m 8,5 C 12,0 C 6,4 km/h (2 Bft)
11.05.2022 06:03 11,9 C 10,0 C 78 % 1014,1 hPa 0,0 l/m 4,8 km/h (1 Bft) SW 225 0 min 0,0 UV-I 5 W/m 8,2 C 11,9 C 8,0 km/h (2 Bft)
11.05.2022 06:04 11,8 C 9,4 C 79 % 1014,0 hPa 0,0 l/m 4,8 km/h (1 Bft) SW 225 0 min 0,0 UV-I 5 W/m 8,3 C 11,8 C 6,4 km/h (2 Bft)
11.05.2022 06:05 11,8 C 9,4 C 79 % 1014,1 hPa 0,0 l/m 4,8 km/h (1 Bft) SW 225 0 min 0,0 UV-I 5 W/m 8,3 C 11,8 C 6,4 km/h (2 Bft)
11.05.2022 06:06 11,8 C 9,4 C 79 % 1014,1 hPa 0,0 l/m 4,8 km/h (1 Bft) SW 225 0 min 0,0 UV-I 5 W/m 8,3 C 11,8 C 8,0 km/h (2 Bft)
11.05.2022 06:07 11,8 C 9,4 C 79 % 1014,0 hPa 0,0 l/m 6,4 km/h (2 Bft) SW 225 0 min 0,0 UV-I 7 W/m 8,3 C 11,8 C 8,0 km/h (2 Bft)
11.05.2022 06:08 11,8 C 9,4 C 79 % 1014,1 hPa 0,0 l/m 6,4 km/h (2 Bft) SW 225 0 min 0,0 UV-I 7 W/m 8,3 C 11,8 C 9,7 km/h (2 Bft)
11.05.2022 06:09 11,8 C 9,4 C 79 % 1014,1 hPa 0,0 l/m 6,4 km/h (2 Bft) SW 225 0 min 0,0 UV-I 7 W/m 8,3 C 11,8 C 8,0 km/h (2 Bft)
11.05.2022 06:10 11,7 C 9,4 C 79 % 1014,1 hPa 0,0 l/m 6,4 km/h (2 Bft) SW 225 0 min 0,0 UV-I 7 W/m 8,2 C 11,7 C 6,4 km/h (2 Bft)
11.05.2022 06:11 11,8 C 9,4 C 79 % 1014,1 hPa 0,0 l/m 4,8 km/h (1 Bft) SW 225 0 min 0,0 UV-I 7 W/m 8,3 C 11,8 C 8,0 km/h (2 Bft)
11.05.2022 06:12 11,8 C 9,4 C 79 % 1014,1 hPa 0,0 l/m 6,4 km/h (2 Bft) SW 225 0 min 0,0 UV-I 7 W/m 8,3 C 11,8 C 9,7 km/h (2 Bft)
11.05.2022 06:13 11,8 C 9,4 C 79 % 1014,1 hPa 0,0 l/m 6,4 km/h (2 Bft) SW 225 0 min 0,0 UV-I 7 W/m 8,3 C 11,8 C 8,0 km/h (2 Bft)
11.05.2022 06:14 11,8 C 9,4 C 79 % 1014,1 hPa 0,0 l/m 6,4 km/h (2 Bft) SW 225 0 min 0,0 UV-I 7 W/m 8,3 C 11,8 C 9,7 km/h (2 Bft)
11.05.2022 06:15 11,8 C 9,4 C 79 % 1014,1 hPa 0,0 l/m 6,4 km/h (2 Bft) S-SW 202 0 min 0,0 UV-I 9 W/m 8,3 C 11,8 C 8,0 km/h (2 Bft)
11.05.2022 06:16 11,8 C 9,4 C 79 % 1014,2 hPa 0,0 l/m 6,4 km/h (2 Bft) S-SW 202 0 min 0,0 UV-I 9 W/m 8,3 C 11,8 C 8,0 km/h (2 Bft)
11.05.2022 06:17 11,8 C 9,4 C 79 % 1014,1 hPa 0,0 l/m 6,4 km/h (2 Bft) SW 225 0 min 0,0 UV-I 9 W/m 8,3 C 11,8 C 9,7 km/h (2 Bft)
11.05.2022 06:18 11,8 C 9,4 C 79 % 1014,1 hPa 0,0 l/m 4,8 km/h (1 Bft) SW 225 0 min 0,0 UV-I 9 W/m 8,3 C 11,8 C 6,4 km/h (2 Bft)
11.05.2022 06:19 11,7 C 9,4 C 79 % 1014,1 hPa 0,0 l/m 6,4 km/h (2 Bft) SW 225 0 min 0,0 UV-I 9 W/m 8,2 C 11,7 C 8,0 km/h (2 Bft)
11.05.2022 06:20 11,7 C 9,4 C 80 % 1014,1 hPa 0,0 l/m 4,8 km/h (1 Bft) SW 225 0 min 0,0 UV-I 11 W/m 8,4 C 11,7 C 8,0 km/h (2 Bft)
11.05.2022 06:21 11,7 C 9,4 C 79 % 1014,2 hPa 0,0 l/m 6,4 km/h (2 Bft) SW 225 0 min 0,0 UV-I 11 W/m 8,2 C 11,7 C 9,7 km/h (2 Bft)
11.05.2022 06:22 11,6 C 9,4 C 79 % 1014,1 hPa 0,0 l/m 4,8 km/h (1 Bft) SW 225 0 min 0,0 UV-I 11 W/m 8,1 C 11,6 C 8,0 km/h (2 Bft)
11.05.2022 06:23 11,5 C 9,4 C 79 % 1014,1 hPa 0,0 l/m 4,8 km/h (1 Bft) SW 225 0 min 0,0 UV-I 11 W/m 8,0 C 11,5 C 8,0 km/h (2 Bft)
11.05.2022 06:24 11,3 C 9,4 C 79 % 1014,2 hPa 0,0 l/m 4,8 km/h (1 Bft) SW 225 0 min 0,0 UV-I 11 W/m 7,8 C 11,3 C 8,0 km/h (2 Bft)
11.05.2022 06:25 11,2 C 8,9 C 80 % 1014,0 hPa 0,0 l/m 3,2 km/h (1 Bft) SW 225 0 min 0,0 UV-I 12 W/m 7,9 C 11,2 C 8,0 km/h (2 Bft)
11.05.2022 06:26 11,1 C 8,9 C 80 % 1014,2 hPa 0,0 l/m 4,8 km/h (1 Bft) SW 225 0 min 0,0 UV-I 12 W/m 7,8 C 11,1 C 8,0 km/h (2 Bft)
11.05.2022 06:27 11,0 C 8,9 C 80 % 1014,0 hPa 0,0 l/m 4,8 km/h (1 Bft) SW 225 0 min 0,0 UV-I 12 W/m 7,7 C 11,0 C 6,4 km/h (2 Bft)
11.05.2022 06:28 10,8 C 8,9 C 80 % 1014,2 hPa 0,0 l/m 6,4 km/h (2 Bft) SW 225 0 min 0,0 UV-I 12 W/m 7,5 C 10,8 C 11,3 km/h (2 Bft)
11.05.2022 06:29 10,7 C 8,3 C 81 % 1014,1 hPa 0,0 l/m 8,0 km/h (2 Bft) SW 225 0 min 0,0 UV-I 12 W/m 7,6 C 9,6 C 9,7 km/h (2 Bft)
11.05.2022 06:30 10,6 C 8,3 C 81 % 1014,1 hPa 0,0 l/m 4,8 km/h (1 Bft) SW 225 0 min 0,0 UV-I 14 W/m 7,5 C 10,6 C 8,0 km/h (2 Bft)
11.05.2022 06:31 10,5 C 8,3 C 81 % 1014,1 hPa 0,0 l/m 6,4 km/h (2 Bft) SW 225 0 min 0,0 UV-I 14 W/m 7,4 C 10,5 C 8,0 km/h (2 Bft)
11.05.2022 06:32 10,4 C 8,3 C 82 % 1014,0 hPa 0,0 l/m 4,8 km/h (1 Bft) SW 225 0 min 0,0 UV-I 16 W/m 7,5 C 10,4 C 8,0 km/h (2 Bft)
11.05.2022 06:33 10,4 C 8,3 C 82 % 1014,1 hPa 0,0 l/m 6,4 km/h (2 Bft) SW 225 0 min 0,0 UV-I 17 W/m 7,5 C 10,4 C 9,7 km/h (2 Bft)
11.05.2022 06:34 10,4 C 8,3 C 82 % 1014,1 hPa 0,0 l/m 6,4 km/h (2 Bft) SW 225 0 min 0,0 UV-I 19 W/m 7,5 C 10,4 C 9,7 km/h (2 Bft)
11.05.2022 06:35 10,4 C 8,3 C 83 % 1014,1 hPa 0,0 l/m 4,8 km/h (1 Bft) SW 225 0 min 0,0 UV-I 21 W/m 7,6 C 10,4 C 6,4 km/h (2 Bft)
11.05.2022 06:36 10,4 C 8,3 C 82 % 1014,1 hPa 0,0 l/m 4,8 km/h (1 Bft) SW 225 0 min 0,0 UV-I 23 W/m 7,5 C 10,4 C 8,0 km/h (2 Bft)
11.05.2022 06:37 10,5 C 8,3 C 83 % 1014,1 hPa 0,0 l/m 6,4 km/h (2 Bft) S-SW 202 0 min 0,0 UV-I 25 W/m 7,7 C 10,5 C 9,7 km/h (2 Bft)
11.05.2022 06:38 10,5 C 8,9 C 83 % 1014,2 hPa 0,0 l/m 6,4 km/h (2 Bft) SW 225 0 min 0,0 UV-I 26 W/m 7,7 C 10,5 C 8,0 km/h (2 Bft)
11.05.2022 06:39 10,6 C 8,9 C 83 % 1014,2 hPa 0,0 l/m 6,4 km/h (2 Bft) SW 225 0 min 0,0 UV-I 28 W/m 7,8 C 10,6 C 9,7 km/h (2 Bft)
11.05.2022 06:40 10,7 C 8,9 C 83 % 1014,1 hPa 0,0 l/m 8,0 km/h (2 Bft) SW 225 0 min 0,0 UV-I 32 W/m 7,9 C 9,6 C 9,7 km/h (2 Bft)
11.05.2022 06:41 10,9 C 8,9 C 84 % 1014,1 hPa 0,0 l/m 8,0 km/h (2 Bft) SW 225 0 min 0,0 UV-I 32 W/m 8,3 C 9,8 C 11,3 km/h (2 Bft)
11.05.2022 06:42 11,2 C 9,4 C 83 % 1014,1 hPa 0,0 l/m 6,4 km/h (2 Bft) SW 225 0 min 0,0 UV-I 33 W/m 8,4 C 11,2 C 9,7 km/h (2 Bft)
11.05.2022 06:43 11,4 C 9,4 C 82 % 1014,0 hPa 0,0 l/m 8,0 km/h (2 Bft) SW 225 0 min 0,0 UV-I 35 W/m 8,4 C 10,3 C 9,7 km/h (2 Bft)
11.05.2022 06:44 11,6 C 9,4 C 82 % 1014,0 hPa 0,0 l/m 9,7 km/h (2 Bft) S-SW 202 0 min 0,0 UV-I 35 W/m 8,6 C 9,5 C 11,3 km/h (2 Bft)
11.05.2022 06:45 11,8 C 10,0 C 82 % 1014,1 hPa 0,0 l/m 6,4 km/h (2 Bft) S-SW 202 0 min 0,0 UV-I 38 W/m 8,8 C 11,8 C 8,0 km/h (2 Bft)
11.05.2022 06:46 11,8 C 10,0 C 81 % 1014,0 hPa 0,0 l/m 6,4 km/h (2 Bft) S-SW 202 0 min 0,0 UV-I 40 W/m 8,6 C 11,8 C 9,7 km/h (2 Bft)
11.05.2022 06:47 11,9 C 10,6 C 80 % 1014,1 hPa 0,0 l/m 4,8 km/h (1 Bft) S-SW 202 0 min 0,0 UV-I 40 W/m 8,6 C 11,9 C 8,0 km/h (2 Bft)
11.05.2022 06:48 12,0 C 10,6 C 80 % 1014,1 hPa 0,0 l/m 6,4 km/h (2 Bft) SW 225 0 min 0,0 UV-I 42 W/m 8,7 C 12,0 C 9,7 km/h (2 Bft)
11.05.2022 06:49 12,1 C 10,6 C 80 % 1014,1 hPa 0,0 l/m 8,0 km/h (2 Bft) SW 225 0 min 0,0 UV-I 44 W/m 8,8 C 11,1 C 9,7 km/h (2 Bft)
11.05.2022 06:50 12,2 C 10,6 C 80 % 1014,1 hPa 0,0 l/m 8,0 km/h (2 Bft) SW 225 0 min 0,0 UV-I 44 W/m 8,9 C 11,2 C 9,7 km/h (2 Bft)
11.05.2022 06:51 12,3 C 10,6 C 80 % 1014,1 hPa 0,0 l/m 8,0 km/h (2 Bft) SW 225 0 min 0,0 UV-I 45 W/m 8,9 C 11,3 C 11,3 km/h (2 Bft)
11.05.2022 06:52 12,4 C 11,1 C 79 % 1014,1 hPa 0,0 l/m 8,0 km/h (2 Bft) S-SW 202 0 min 0,0 UV-I 47 W/m 8,9 C 11,4 C 11,3 km/h (2 Bft)
11.05.2022 06:53 12,6 C 11,1 C 79 % 1014,1 hPa 0,0 l/m 6,4 km/h (2 Bft) S-SW 202 0 min 0,0 UV-I 47 W/m 9,1 C 12,6 C 9,7 km/h (2 Bft)
11.05.2022 06:54 12,6 C 11,1 C 79 % 1014,1 hPa 0,0 l/m 8,0 km/h (2 Bft) S-SW 202 0 min 0,0 UV-I 47 W/m 9,1 C 11,6 C 9,7 km/h (2 Bft)
11.05.2022 06:55 12,7 C 11,1 C 79 % 1014,2 hPa 0,0 l/m 6,4 km/h (2 Bft) SW 225 0 min 0,0 UV-I 49 W/m 9,2 C 12,7 C 9,7 km/h (2 Bft)
11.05.2022 06:56 12,7 C 11,1 C 78 % 1014,1 hPa 0,0 l/m 9,7 km/h (2 Bft) S-SW 202 0 min 0,0 UV-I 49 W/m 9,0 C 10,7 C 12,9 km/h (3 Bft)
11.05.2022 06:57 12,8 C 11,7 C 78 % 1014,0 hPa 0,0 l/m 8,0 km/h (2 Bft) S-SW 202 0 min 0,0 UV-I 52 W/m 9,1 C 11,8 C 11,3 km/h (2 Bft)
11.05.2022 06:58 12,9 C 11,7 C 78 % 1014,2 hPa 0,0 l/m 8,0 km/h (2 Bft) S-SW 202 0 min 0,0 UV-I 54 W/m 9,2 C 11,9 C 9,7 km/h (2 Bft)
11.05.2022 06:59 12,9 C 11,7 C 78 % 1014,0 hPa 0,0 l/m 9,7 km/h (2 Bft) S-SW 202 0 min 0,0 UV-I 56 W/m 9,2 C 11,0 C 12,9 km/h (3 Bft)
11.05.2022 07:00 13,0 C 11,7 C 78 % 1014,0 hPa 0,0 l/m 9,7 km/h (2 Bft) S-SW 202 0 min 0,0 UV-I 58 W/m 9,3 C 11,1 C 11,3 km/h (2 Bft)
11.05.2022 07:01 13,1 C 11,7 C 78 % 1013,9 hPa 0,0 l/m 9,7 km/h (2 Bft) SW 225 0 min 0,0 UV-I 60 W/m 9,4 C 11,2 C 11,3 km/h (2 Bft)
11.05.2022 07:02 13,1 C 11,7 C 78 % 1014,0 hPa 0,0 l/m 6,4 km/h (2 Bft) SW 225 0 min 0,0 UV-I 62 W/m 9,4 C 13,1 C 9,7 km/h (2 Bft)
11.05.2022 07:03 13,1 C 11,7 C 77 % 1014,0 hPa 0,0 l/m 8,0 km/h (2 Bft) S-SW 202 0 min 0,0 UV-I 66 W/m 9,2 C 12,1 C 11,3 km/h (2 Bft)
11.05.2022 07:04 13,2 C 11,7 C 77 % 1014,0 hPa 0,0 l/m 8,0 km/h (2 Bft) S-SW 202 0 min 0,0 UV-I 70 W/m 9,3 C 12,2 C 11,3 km/h (2 Bft)
11.05.2022 07:05 13,2 C 12,2 C 77 % 1014,0 hPa 0,0 l/m 6,4 km/h (2 Bft) S-SW 202 0 min 0,0 UV-I 72 W/m 9,3 C 13,2 C 9,7 km/h (2 Bft)
11.05.2022 07:06 13,2 C 12,2 C 77 % 1014,0 hPa 0,0 l/m 8,0 km/h (2 Bft) S-SW 202 0 min 0,0 UV-I 76 W/m 9,3 C 12,2 C 9,7 km/h (2 Bft)
11.05.2022 07:07 13,2 C 12,2 C 77 % 1014,1 hPa 0,0 l/m 6,4 km/h (2 Bft) SW 225 0 min 0,0 UV-I 77 W/m 9,3 C 13,2 C 8,0 km/h (2 Bft)
11.05.2022 07:08 13,3 C 12,2 C 77 % 1014,1 hPa 0,0 l/m 6,4 km/h (2 Bft) SW 225 0 min 0,0 UV-I 79 W/m 9,4 C 13,3 C 9,7 km/h (2 Bft)
11.05.2022 07:09 13,3 C 12,2 C 77 % 1014,0 hPa 0,0 l/m 8,0 km/h (2 Bft) S-SW 202 0 min 0,0 UV-I 84 W/m 9,4 C 12,3 C 11,3 km/h (2 Bft)
11.05.2022 07:10 13,4 C 12,2 C 77 % 1014,0 hPa 0,0 l/m 8,0 km/h (2 Bft) S-SW 202 0 min 0,0 UV-I 84 W/m 9,5 C 12,4 C 12,9 km/h (3 Bft)
11.05.2022 07:11 13,4 C 12,2 C 77 % 1014,1 hPa 0,0 l/m 8,0 km/h (2 Bft) SW 225 0 min 0,0 UV-I 84 W/m 9,5 C 12,4 C 9,7 km/h (2 Bft)
11.05.2022 07:12 13,5 C 12,8 C 77 % 1014,1 hPa 0,0 l/m 8,0 km/h (2 Bft) SW 225 0 min 0,0 UV-I 90 W/m 9,5 C 12,5 C 11,3 km/h (2 Bft)
11.05.2022 07:13 13,5 C 12,8 C 77 % 1014,0 hPa 0,0 l/m 6,4 km/h (2 Bft) SW 225 0 min 0,0 UV-I 91 W/m 9,5 C 13,5 C 8,0 km/h (2 Bft)
11.05.2022 07:14 13,6 C 12,8 C 76 % 1014,1 hPa 0,0 l/m 8,0 km/h (2 Bft) SW 225 0 min 0,0 UV-I 95 W/m 9,4 C 12,6 C 11,3 km/h (2 Bft)
11.05.2022 07:15 13,7 C 12,8 C 76 % 1014,0 hPa 0,0 l/m 4,8 km/h (1 Bft) SW 225 0 min 0,0 UV-I 98 W/m 9,5 C 13,7 C 6,4 km/h (2 Bft)
11.05.2022 07:16 13,7 C 12,8 C 76 % 1014,1 hPa 0,0 l/m 6,4 km/h (2 Bft) SW 225 0 min 0,0 UV-I 100 W/m 9,5 C 13,7 C 8,0 km/h (2 Bft)
11.05.2022 07:17 13,7 C 12,8 C 76 % 1014,1 hPa 0,0 l/m 6,4 km/h (2 Bft) S-SW 202 0 min 0,0 UV-I 104 W/m 9,5 C 13,7 C 9,7 km/h (2 Bft)
11.05.2022 07:18 13,7 C 12,8 C 76 % 1014,1 hPa 0,0 l/m 4,8 km/h (1 Bft) S-SW 202 0 min 0,0 UV-I 105 W/m 9,5 C 13,7 C 8,0 km/h (2 Bft)
11.05.2022 07:19 13,8 C 12,8 C 76 % 1014,0 hPa 0,0 l/m 6,4 km/h (2 Bft) SW 225 0 min 0,0 UV-I 109 W/m 9,6 C 13,8 C 8,0 km/h (2 Bft)
11.05.2022 07:20 13,8 C 12,8 C 76 % 1014,0 hPa 0,0 l/m 4,8 km/h (1 Bft) SW 225 0 min 0,5 UV-I 112 W/m 9,6 C 13,8 C 8,0 km/h (2 Bft)
11.05.2022 07:21 13,8 C 12,8 C 76 % 1014,1 hPa 0,0 l/m 6,4 km/h (2 Bft) SW 225 0 min 0,5 UV-I 114 W/m 9,6 C 13,8 C 8,0 km/h (2 Bft)
11.05.2022 07:22 13,8 C 12,8 C 76 % 1014,1 hPa 0,0 l/m 6,4 km/h (2 Bft) SW 225 0 min 0,5 UV-I 118 W/m 9,6 C 13,8 C 8,0 km/h (2 Bft)
11.05.2022 07:23 13,8 C 12,8 C 76 % 1014,0 hPa 0,0 l/m 6,4 km/h (2 Bft) SW 225 0 min 0,5 UV-I 120 W/m 9,6 C 13,8 C 11,3 km/h (2 Bft)
11.05.2022 07:24 13,9 C 12,8 C 76 % 1014,0 hPa 0,0 l/m 4,8 km/h (1 Bft) SW 225 0 min 0,5 UV-I 121 W/m 9,7 C 13,9 C 8,0 km/h (2 Bft)
11.05.2022 07:25 13,9 C 12,8 C 76 % 1014,0 hPa 0,0 l/m 6,4 km/h (2 Bft) SW 225 0 min 0,5 UV-I 125 W/m 9,7 C 13,9 C 9,7 km/h (2 Bft)
11.05.2022 07:26 13,9 C 12,8 C 76 % 1014,0 hPa 0,0 l/m 6,4 km/h (2 Bft) SW 225 0 min 0,5 UV-I 128 W/m 9,7 C 13,9 C 9,7 km/h (2 Bft)
11.05.2022 07:27 13,9 C 12,8 C 76 % 1014,0 hPa 0,0 l/m 6,4 km/h (2 Bft) SW 225 0 min 0,5 UV-I 132 W/m 9,7 C 13,9 C 9,7 km/h (2 Bft)
11.05.2022 07:28 13,9 C 13,3 C 76 % 1014,0 hPa 0,0 l/m 4,8 km/h (1 Bft) SW 225 0 min 0,5 UV-I 134 W/m 9,7 C 13,9 C 8,0 km/h (2 Bft)
11.05.2022 07:29 14,1 C 13,3 C 75 % 1014,1 hPa 0,0 l/m 8,0 km/h (2 Bft) SW 225 0 min 0,5 UV-I 134 W/m 9,7 C 13,2 C 9,7 km/h (2 Bft)
11.05.2022 07:30 14,1 C 13,3 C 75 % 1014,1 hPa 0,0 l/m 6,4 km/h (2 Bft) S-SW 202 0 min 0,5 UV-I 134 W/m 9,7 C 14,1 C 11,3 km/h (2 Bft)
11.05.2022 07:31 14,1 C 13,3 C 75 % 1014,1 hPa 0,0 l/m 6,4 km/h (2 Bft) SW 225 0 min 0,6 UV-I 137 W/m 9,7 C 14,1 C 9,7 km/h (2 Bft)
11.05.2022 07:32 14,1 C 13,3 C 75 % 1014,1 hPa 0,0 l/m 6,4 km/h (2 Bft) SW 225 0 min 0,6 UV-I 145 W/m 9,7 C 14,1 C 9,7 km/h (2 Bft)
11.05.2022 07:33 14,1 C 13,3 C 75 % 1014,1 hPa 0,0 l/m 6,4 km/h (2 Bft) SW 225 0 min 0,6 UV-I 149 W/m 9,7 C 14,1 C 9,7 km/h (2 Bft)
11.05.2022 07:34 14,1 C 13,3 C 75 % 1014,1 hPa 0,0 l/m 8,0 km/h (2 Bft) SW 225 0 min 0,6 UV-I 151 W/m 9,7 C 13,2 C 9,7 km/h (2 Bft)
11.05.2022 07:35 14,2 C 13,3 C 75 % 1014,1 hPa 0,0 l/m 6,4 km/h (2 Bft) SW 225 0 min 0,6 UV-I 155 W/m 9,8 C 14,2 C 9,7 km/h (2 Bft)
11.05.2022 07:36 14,1 C 13,3 C 75 % 1014,0 hPa 0,0 l/m 6,4 km/h (2 Bft) SW 225 0 min 0,6 UV-I 156 W/m 9,7 C 14,1 C 11,3 km/h (2 Bft)
11.05.2022 07:37 14,2 C 13,3 C 75 % 1014,1 hPa 0,0 l/m 6,4 km/h (2 Bft) SW 225 0 min 0,6 UV-I 160 W/m 9,8 C 14,2 C 8,0 km/h (2 Bft)
11.05.2022 07:38 14,2 C 13,3 C 75 % 1014,1 hPa 0,0 l/m 8,0 km/h (2 Bft) S-SW 202 0 min 0,6 UV-I 164 W/m 9,8 C 13,3 C 11,3 km/h (2 Bft)
11.05.2022 07:39 14,2 C 13,3 C 75 % 1014,1 hPa 0,0 l/m 6,4 km/h (2 Bft) S-SW 202 0 min 0,6 UV-I 169 W/m 9,8 C 14,2 C 11,3 km/h (2 Bft)
11.05.2022 07:40 14,2 C 13,3 C 75 % 1014,0 hPa 0,0 l/m 4,8 km/h (1 Bft) SW 225 0 min 0,7 UV-I 171 W/m 9,8 C 14,2 C 8,0 km/h (2 Bft)
11.05.2022 07:41 14,3 C 13,9 C 75 % 1014,1 hPa 0,0 l/m 4,8 km/h (1 Bft) SW 225 0 min 0,7 UV-I 174 W/m 9,9 C 14,3 C 8,0 km/h (2 Bft)
11.05.2022 07:42 14,3 C 13,9 C 75 % 1014,1 hPa 0,0 l/m 4,8 km/h (1 Bft) W-SW 247 0 min 0,7 UV-I 176 W/m 9,9 C 14,3 C 8,0 km/h (2 Bft)
11.05.2022 07:43 14,4 C 13,9 C 75 % 1014,1 hPa 0,0 l/m 4,8 km/h (1 Bft) W-SW 247 0 min 0,7 UV-I 178 W/m 10,0 C 14,4 C 6,4 km/h (2 Bft)
11.05.2022 07:44 14,4 C 13,9 C 75 % 1014,1 hPa 0,0 l/m 8,0 km/h (2 Bft) S-SW 202 0 min 0,7 UV-I 181 W/m 10,0 C 13,5 C 9,7 km/h (2 Bft)
11.05.2022 07:45 14,4 C 13,9 C 74 % 1014,1 hPa 0,0 l/m 6,4 km/h (2 Bft) SW 225 0 min 0,7 UV-I 185 W/m 9,8 C 14,4 C 11,3 km/h (2 Bft)
11.05.2022 07:46 14,5 C 13,9 C 75 % 1014,2 hPa 0,0 l/m 8,0 km/h (2 Bft) SW 225 0 min 0,7 UV-I 186 W/m 10,1 C 13,6 C 12,9 km/h (3 Bft)
11.05.2022 07:47 14,6 C 13,9 C 74 % 1014,1 hPa 0,0 l/m 8,0 km/h (2 Bft) SW 225 0 min 0,7 UV-I 186 W/m 10,0 C 13,7 C 12,9 km/h (3 Bft)
11.05.2022 07:50 14,8 C 14,4 C 74 % 1014,1 hPa 0,0 l/m 6,3 km/h (2 Bft) W 269 0 min 0,8 UV-I 185 W/m 10,2 C 14,8 C 11,3 km/h (2 Bft)
11.05.2022 07:52 14,8 C 15,0 C 74 % 1014,2 hPa 0,0 l/m 6,9 km/h (2 Bft) S-SW 206 0 min 0,8 UV-I 181 W/m 10,2 C 14,5 C 9,7 km/h (2 Bft)
11.05.2022 07:54 14,9 C 15,0 C 74 % 1014,1 hPa 0,0 l/m 4,8 km/h (1 Bft) SW 236 0 min 0,8 UV-I 179 W/m 10,3 C 14,9 C 11,3 km/h (2 Bft)
11.05.2022 07:56 14,9 C 15,6 C 74 % 1014,1 hPa 0,0 l/m 7,0 km/h (2 Bft) SW 215 0 min 0,8 UV-I 186 W/m 10,3 C 14,6 C 12,9 km/h (3 Bft)
11.05.2022 07:58 15,1 C 15,6 C 74 % 1014,1 hPa 0,0 l/m 6,6 km/h (2 Bft) W-SW 242 0 min 0,9 UV-I 204 W/m 10,5 C 15,0 C 11,3 km/h (2 Bft)
11.05.2022 08:00 15,2 C 15,6 C 74 % 1014,2 hPa 0,0 l/m 6,9 km/h (2 Bft) W-SW 244 0 min 0,9 UV-I 218 W/m 10,6 C 14,9 C 11,3 km/h (2 Bft)
11.05.2022 08:02 15,2 C 15,6 C 73 % 1014,2 hPa 0,0 l/m 8,4 km/h (2 Bft) SW 236 0 min 0,9 UV-I 228 W/m 10,4 C 14,1 C 12,9 km/h (3 Bft)
11.05.2022 08:04 15,2 C 16,1 C 73 % 1014,1 hPa 0,0 l/m 7,7 km/h (2 Bft) W-SW 237 0 min 0,9 UV-I 235 W/m 10,4 C 14,5 C 11,3 km/h (2 Bft)
11.05.2022 08:06 15,3 C 16,1 C 73 % 1014,0 hPa 0,0 l/m 5,7 km/h (1 Bft) S-SW 207 0 min 1,0 UV-I 238 W/m 10,5 C 15,3 C 9,7 km/h (2 Bft)
11.05.2022 08:08 15,4 C 16,1 C 73 % 1014,2 hPa 0,0 l/m 6,3 km/h (2 Bft) SW 230 0 min 1,0 UV-I 244 W/m 10,6 C 15,4 C 11,3 km/h (2 Bft)
11.05.2022 08:10 15,4 C 16,1 C 72 % 1014,2 hPa 0,0 l/m 5,3 km/h (1 Bft) SW 217 0 min 1,0 UV-I 250 W/m 10,4 C 15,4 C 8,0 km/h (2 Bft)
11.05.2022 08:12 15,4 C 16,1 C 72 % 1014,1 hPa 0,0 l/m 6,8 km/h (2 Bft) W-SW 254 0 min 1,1 UV-I 255 W/m 10,4 C 15,2 C 11,3 km/h (2 Bft)
11.05.2022 08:14 15,4 C 16,1 C 72 % 1014,1 hPa 0,0 l/m 6,6 km/h (2 Bft) SW 223 0 min 1,1 UV-I 261 W/m 10,4 C 15,3 C 11,3 km/h (2 Bft)
11.05.2022 08:16 15,5 C 16,1 C 72 % 1014,2 hPa 0,0 l/m 7,5 km/h (2 Bft) SW 216 0 min 1,1 UV-I 265 W/m 10,5 C 14,9 C 11,3 km/h (2 Bft)
11.05.2022 08:18 15,6 C 16,1 C 73 % 1014,1 hPa 0,0 l/m 7,6 km/h (2 Bft) W-SW 239 0 min 1,1 UV-I 270 W/m 10,8 C 14,9 C 11,3 km/h (2 Bft)
11.05.2022 08:20 15,7 C 16,1 C 72 % 1014,1 hPa 0,0 l/m 7,4 km/h (2 Bft) SW 218 0 min 1,2 UV-I 275 W/m 10,7 C 15,2 C 12,9 km/h (3 Bft)
11.05.2022 08:22 15,8 C 16,1 C 73 % 1014,1 hPa 0,0 l/m 8,2 km/h (2 Bft) SW 230 0 min 1,2 UV-I 281 W/m 11,0 C 14,8 C 11,3 km/h (2 Bft)
11.05.2022 08:24 15,8 C 16,1 C 72 % 1014,1 hPa 0,0 l/m 9,3 km/h (2 Bft) S-SW 212 0 min 1,2 UV-I 287 W/m 10,8 C 14,3 C 14,5 km/h (3 Bft)
11.05.2022 08:26 15,9 C 16,1 C 72 % 1014,0 hPa 0,0 l/m 6,4 km/h (2 Bft) W-SW 242 0 min 1,3 UV-I 294 W/m 10,9 C 15,9 C 9,7 km/h (2 Bft)
11.05.2022 08:28 16,0 C 16,1 C 72 % 1014,1 hPa 0,0 l/m 6,3 km/h (2 Bft) S-SW 210 0 min 1,3 UV-I 299 W/m 11,0 C 16,0 C 11,3 km/h (2 Bft)
11.05.2022 08:30 16,1 C 16,1 C 72 % 1014,1 hPa 0,0 l/m 7,6 km/h (2 Bft) S-SW 213 0 min 1,3 UV-I 306 W/m 11,0 C 15,5 C 14,5 km/h (3 Bft)
11.05.2022 08:32 16,2 C 16,7 C 72 % 1014,1 hPa 0,0 l/m 7,4 km/h (2 Bft) S-SW 207 0 min 1,4 UV-I 312 W/m 11,1 C 15,7 C 14,5 km/h (3 Bft)
11.05.2022 08:34 16,3 C 16,7 C 71 % 1014,1 hPa 0,0 l/m 8,5 km/h (2 Bft) S-SW 213 0 min 1,4 UV-I 317 W/m 11,0 C 15,2 C 12,9 km/h (3 Bft)
11.05.2022 08:36 16,3 C 16,7 C 71 % 1014,0 hPa 0,0 l/m 6,9 km/h (2 Bft) S-SW 209 0 min 1,4 UV-I 322 W/m 11,0 C 16,0 C 12,9 km/h (3 Bft)
11.05.2022 08:38 16,4 C 17,2 C 71 % 1014,0 hPa 0,0 l/m 7,4 km/h (2 Bft) SW 219 0 min 1,5 UV-I 328 W/m 11,1 C 15,9 C 11,3 km/h (2 Bft)
11.05.2022 08:40 16,4 C 17,2 C 71 % 1013,9 hPa 0,0 l/m 10,8 km/h (2 Bft) S-SW 204 0 min 1,5 UV-I 334 W/m 11,1 C 14,3 C 20,9 km/h (4 Bft)
11.05.2022 08:42 16,6 C 17,2 C 71 % 1013,9 hPa 0,0 l/m 11,5 km/h (2 Bft) S-SW 205 0 min 1,5 UV-I 339 W/m 11,3 C 14,3 C 16,1 km/h (3 Bft)
11.05.2022 08:44 16,7 C 17,8 C 71 % 1013,8 hPa 0,0 l/m 11,0 km/h (2 Bft) SW 218 0 min 1,6 UV-I 343 W/m 11,4 C 14,6 C 14,5 km/h (3 Bft)
11.05.2022 08:46 16,8 C 17,8 C 70 % 1013,9 hPa 0,0 l/m 8,6 km/h (2 Bft) S-SW 196 2 min 1,6 UV-I 347 W/m 11,3 C 15,7 C 14,5 km/h (3 Bft)
11.05.2022 08:48 16,9 C 17,8 C 70 % 1013,9 hPa 0,0 l/m 11,2 km/h (2 Bft) S-SW 208 2 min 1,6 UV-I 352 W/m 11,4 C 14,8 C 16,1 km/h (3 Bft)
11.05.2022 08:50 17,1 C 17,8 C 69 % 1013,9 hPa 0,0 l/m 12,0 km/h (2 Bft) S-SW 194 2 min 1,7 UV-I 357 W/m 11,4 C 14,7 C 19,3 km/h (3 Bft)
11.05.2022 08:52 17,2 C 17,8 C 69 % 1013,9 hPa 0,0 l/m 11,1 km/h (2 Bft) S-SW 205 2 min 1,7 UV-I 361 W/m 11,5 C 15,1 C 14,5 km/h (3 Bft)
11.05.2022 08:54 17,3 C 18,3 C 69 % 1013,8 hPa 0,0 l/m 10,8 km/h (2 Bft) S-SW 198 2 min 1,7 UV-I 370 W/m 11,6 C 15,4 C 14,5 km/h (3 Bft)
11.05.2022 08:56 17,4 C 18,3 C 68 % 1013,7 hPa 0,0 l/m 15,6 km/h (3 Bft) S-SW 194 2 min 1,8 UV-I 377 W/m 11,4 C 13,9 C 20,9 km/h (4 Bft)
11.05.2022 08:58 17,5 C 18,3 C 67 % 1013,9 hPa 0,0 l/m 15,5 km/h (3 Bft) S-SW 213 2 min 1,8 UV-I 382 W/m 11,3 C 14,1 C 20,9 km/h (4 Bft)
11.05.2022 09:00 17,6 C 18,3 C 66 % 1013,7 hPa 0,0 l/m 12,8 km/h (3 Bft) S-SW 197 2 min 1,8 UV-I 386 W/m 11,2 C 15,0 C 20,9 km/h (4 Bft)
11.05.2022 09:02 17,6 C 18,3 C 67 % 1013,7 hPa 0,0 l/m 15,3 km/h (3 Bft) S-SW 213 2 min 1,9 UV-I 393 W/m 11,4 C 14,3 C 20,9 km/h (4 Bft)
11.05.2022 09:04 17,7 C 18,3 C 66 % 1013,6 hPa 0,0 l/m 15,4 km/h (3 Bft) SW 227 2 min 1,9 UV-I 398 W/m 11,3 C 14,4 C 22,5 km/h (4 Bft)
11.05.2022 09:06 17,8 C 18,3 C 66 % 1013,6 hPa 0,0 l/m 13,5 km/h (3 Bft) S-SW 199 2 min 1,9 UV-I 404 W/m 11,4 C 15,0 C 19,3 km/h (3 Bft)
11.05.2022 09:08 17,9 C 18,3 C 66 % 1013,7 hPa 0,0 l/m 14,2 km/h (3 Bft) S-SW 192 2 min 2,0 UV-I 408 W/m 11,5 C 14,9 C 19,3 km/h (3 Bft)
11.05.2022 09:10 17,9 C 18,9 C 65 % 1013,6 hPa 0,0 l/m 15,1 km/h (3 Bft) S-SW 200 2 min 2,0 UV-I 414 W/m 11,2 C 14,7 C 22,5 km/h (4 Bft)
11.05.2022 09:12 17,9 C 18,9 C 65 % 1013,6 hPa 0,0 l/m 15,9 km/h (3 Bft) S-SO 152 2 min 2,1 UV-I 418 W/m 11,2 C 14,5 C 27,4 km/h (4 Bft)
11.05.2022 09:14 17,9 C 18,9 C 65 % 1013,7 hPa 0,0 l/m 14,4 km/h (3 Bft) SW 217 2 min 2,1 UV-I 420 W/m 11,2 C 14,9 C 24,1 km/h (4 Bft)
11.05.2022 09:16 18,0 C 18,9 C 64 % 1013,7 hPa 0,0 l/m 18,6 km/h (3 Bft) S 185 2 min 2,1 UV-I 426 W/m 11,1 C 13,9 C 24,1 km/h (4 Bft)
11.05.2022 09:18 18,1 C 18,9 C 64 % 1013,6 hPa 0,0 l/m 17,8 km/h (3 Bft) S-SW 208 2 min 2,2 UV-I 427 W/m 11,2 C 14,2 C 25,7 km/h (4 Bft)
11.05.2022 09:20 18,2 C 18,9 C 64 % 1013,7 hPa 0,0 l/m 14,9 km/h (3 Bft) S 187 2 min 2,2 UV-I 426 W/m 11,3 C 15,1 C 25,7 km/h (4 Bft)
11.05.2022 09:22 18,2 C 18,9 C 63 % 1013,6 hPa 0,0 l/m 23,0 km/h (4 Bft) S 188 2 min 2,2 UV-I 425 W/m 11,0 C 13,3 C 35,4 km/h (5 Bft)
11.05.2022 09:24 18,2 C 18,9 C 63 % 1013,5 hPa 0,0 l/m 15,4 km/h (3 Bft) SW 220 2 min 2,2 UV-I 425 W/m 11,0 C 15,0 C 27,4 km/h (4 Bft)
11.05.2022 09:26 18,3 C 18,9 C 64 % 1013,6 hPa 0,0 l/m 16,5 km/h (3 Bft) S-SW 197 2 min 2,3 UV-I 424 W/m 11,4 C 14,8 C 27,4 km/h (4 Bft)
11.05.2022 09:28 18,3 C 18,9 C 64 % 1013,6 hPa 0,0 l/m 14,2 km/h (3 Bft) S-SW 194 2 min 2,3 UV-I 422 W/m 11,4 C 15,4 C 20,9 km/h (4 Bft)
11.05.2022 09:30 18,4 C 19,4 C 64 % 1013,6 hPa 0,0 l/m 16,9 km/h (3 Bft) S-SO 163 2 min 2,4 UV-I 421 W/m 11,5 C 14,8 C 24,1 km/h (4 Bft)
11.05.2022 09:32 18,4 C 19,4 C 64 % 1013,5 hPa 0,0 l/m 12,4 km/h (3 Bft) S-SO 165 2 min 2,4 UV-I 419 W/m 11,5 C 16,1 C 17,7 km/h (3 Bft)
11.05.2022 09:34 18,6 C 19,4 C 64 % 1013,5 hPa 0,0 l/m 12,6 km/h (3 Bft) S 182 2 min 2,4 UV-I 417 W/m 11,7 C 16,2 C 20,9 km/h (4 Bft)
11.05.2022 09:36 18,7 C 19,4 C 64 % 1013,5 hPa 0,0 l/m 12,4 km/h (3 Bft) S 178 2 min 2,5 UV-I 414 W/m 11,7 C 16,4 C 20,9 km/h (4 Bft)
11.05.2022 09:38 18,8 C 20,0 C 64 % 1013,5 hPa 0,0 l/m 10,6 km/h (2 Bft) S-SW 192 2 min 2,5 UV-I 412 W/m 11,8 C 17,1 C 19,3 km/h (3 Bft)
11.05.2022 09:40 18,9 C 20,0 C 64 % 1013,5 hPa 0,0 l/m 11,2 km/h (2 Bft) S-SW 195 2 min 2,6 UV-I 410 W/m 11,9 C 17,0 C 16,1 km/h (3 Bft)
11.05.2022 09:42 19,0 C 20,0 C 64 % 1013,5 hPa 0,0 l/m 12,3 km/h (3 Bft) S-SW 207 2 min 2,6 UV-I 409 W/m 12,0 C 16,8 C 24,1 km/h (4 Bft)
11.05.2022 09:44 19,1 C 20,0 C 63 % 1013,6 hPa 0,0 l/m 15,7 km/h (3 Bft) SO 141 2 min 2,7 UV-I 409 W/m 11,9 C 16,0 C 29,0 km/h (5 Bft)
11.05.2022 09:46 19,1 C 20,0 C 62 % 1013,5 hPa 0,0 l/m 15,9 km/h (3 Bft) S 178 2 min 2,7 UV-I 410 W/m 11,6 C 15,9 C 27,4 km/h (4 Bft)
11.05.2022 09:48 19,1 C 20,0 C 62 % 1013,6 hPa 0,0 l/m 15,9 km/h (3 Bft) SW 220 2 min 2,8 UV-I 410 W/m 11,6 C 15,9 C 24,1 km/h (4 Bft)
11.05.2022 09:50 19,2 C 20,6 C 63 % 1013,6 hPa 0,0 l/m 16,2 km/h (3 Bft) S 182 2 min 2,8 UV-I 412 W/m 12,0 C 16,0 C 29,0 km/h (5 Bft)
11.05.2022 09:52 19,3 C 20,6 C 62 % 1013,5 hPa 0,0 l/m 15,1 km/h (3 Bft) S-SW 211 2 min 2,8 UV-I 414 W/m 11,8 C 16,4 C 24,1 km/h (4 Bft)
11.05.2022 09:54 19,3 C 20,6 C 62 % 1013,6 hPa 0,0 l/m 15,8 km/h (3 Bft) SW 220 2 min 2,9 UV-I 419 W/m 11,8 C 16,2 C 25,7 km/h (4 Bft)
11.05.2022 09:56 19,3 C 20,0 C 61 % 1013,5 hPa 0,0 l/m 19,1 km/h (3 Bft) S 185 2 min 2,9 UV-I 424 W/m 11,6 C 15,5 C 27,4 km/h (4 Bft)
11.05.2022 09:58 19,3 C 20,0 C 61 % 1013,5 hPa 0,0 l/m 16,4 km/h (3 Bft) SW 235 2 min 2,9 UV-I 430 W/m 11,6 C 16,1 C 25,7 km/h (4 Bft)
11.05.2022 10:00 19,4 C 20,6 C 61 % 1013,5 hPa 0,0 l/m 17,1 km/h (3 Bft) W-SW 252 2 min 3,0 UV-I 438 W/m 11,7 C 16,0 C 24,1 km/h (4 Bft)
11.05.2022 10:02 19,4 C 20,0 C 61 % 1013,5 hPa 0,0 l/m 20,5 km/h (4 Bft) S-SW 200 2 min 3,0 UV-I 447 W/m 11,7 C 15,3 C 32,2 km/h (5 Bft)
11.05.2022 10:04 19,4 C 20,6 C 62 % 1013,5 hPa 0,0 l/m 18,6 km/h (3 Bft) S 185 2 min 3,1 UV-I 459 W/m 11,9 C 15,7 C 25,7 km/h (4 Bft)
11.05.2022 10:06 19,4 C 20,0 C 61 % 1013,6 hPa 0,0 l/m 18,8 km/h (3 Bft) S-SO 167 2 min 3,1 UV-I 470 W/m 11,7 C 15,7 C 25,7 km/h (4 Bft)
11.05.2022 10:08 19,6 C 20,6 C 61 % 1013,6 hPa 0,0 l/m 19,5 km/h (3 Bft) S-SW 200 2 min 3,1 UV-I 482 W/m 11,9 C 15,8 C 29,0 km/h (5 Bft)
11.05.2022 10:10 19,6 C 20,6 C 61 % 1013,5 hPa 0,0 l/m 22,0 km/h (4 Bft) SW 217 2 min 3,2 UV-I 496 W/m 11,9 C 15,3 C 29,0 km/h (5 Bft)
11.05.2022 10:12 19,7 C 20,6 C 61 % 1013,5 hPa 0,0 l/m 20,2 km/h (4 Bft) S 185 2 min 3,2 UV-I 508 W/m 12,0 C 15,8 C 29,0 km/h (5 Bft)
11.05.2022 10:14 19,8 C 21,1 C 62 % 1013,5 hPa 0,0 l/m 13,0 km/h (3 Bft) S-SW 207 2 min 3,3 UV-I 521 W/m 12,3 C 17,5 C 20,9 km/h (4 Bft)
11.05.2022 10:16 19,9 C 21,1 C 61 % 1013,4 hPa 0,0 l/m 15,7 km/h (3 Bft) SW 220 2 min 3,3 UV-I 538 W/m 12,2 C 17,0 C 32,2 km/h (5 Bft)
11.05.2022 10:18 20,1 C 21,7 C 61 % 1013,4 hPa 0,0 l/m 16,0 km/h (3 Bft) S 170 2 min 3,4 UV-I 548 W/m 12,3 C 17,1 C 25,7 km/h (4 Bft)
11.05.2022 10:20 20,2 C 21,7 C 60 % 1013,4 hPa 0,0 l/m 19,3 km/h (3 Bft) S 172 2 min 3,4 UV-I 563 W/m 12,2 C 16,6 C 32,2 km/h (5 Bft)
11.05.2022 10:22 20,2 C 21,7 C 60 % 1013,5 hPa 0,0 l/m 17,6 km/h (3 Bft) SW 214 2 min 3,4 UV-I 575 W/m 12,2 C 16,9 C 29,0 km/h (5 Bft)
11.05.2022 10:24 20,4 C 21,7 C 60 % 1013,5 hPa 0,0 l/m 11,4 km/h (2 Bft) SW 217 2 min 3,5 UV-I 584 W/m 12,4 C 18,7 C 22,5 km/h (4 Bft)
11.05.2022 10:26 20,6 C 22,2 C 60 % 1013,5 hPa 0,0 l/m 16,3 km/h (3 Bft) SW 231 2 min 3,5 UV-I 595 W/m 12,6 C 17,7 C 33,8 km/h (5 Bft)
11.05.2022 10:28 20,6 C 22,2 C 60 % 1013,4 hPa 0,0 l/m 21,1 km/h (4 Bft) S-SW 195 2 min 3,6 UV-I 603 W/m 12,6 C 16,8 C 32,2 km/h (5 Bft)
11.05.2022 10:30 20,6 C 22,2 C 59 % 1013,5 hPa 0,0 l/m 22,1 km/h (4 Bft) S-SW 195 2 min 3,6 UV-I 609 W/m 12,3 C 16,6 C 33,8 km/h (5 Bft)
11.05.2022 10:32 20,6 C 22,2 C 60 % 1013,4 hPa 0,0 l/m 18,1 km/h (3 Bft) S 190 2 min 3,6 UV-I 614 W/m 12,6 C 17,3 C 27,4 km/h (4 Bft)
11.05.2022 10:34 20,6 C 22,2 C 59 % 1013,4 hPa 0,0 l/m 19,2 km/h (3 Bft) S 190 2 min 3,7 UV-I 620 W/m 12,3 C 17,1 C 27,4 km/h (4 Bft)
11.05.2022 10:36 20,6 C 22,2 C 57 % 1013,4 hPa 0,0 l/m 22,9 km/h (4 Bft) S-SW 200 2 min 3,7 UV-I 624 W/m 11,8 C 16,5 C 37,0 km/h (5 Bft)
11.05.2022 10:38 20,5 C 21,7 C 58 % 1013,5 hPa 0,0 l/m 24,8 km/h (4 Bft) SW 233 2 min 3,8 UV-I 627 W/m 11,9 C 16,1 C 33,8 km/h (5 Bft)
11.05.2022 10:40 20,4 C 21,7 C 57 % 1013,4 hPa 0,0 l/m 22,4 km/h (4 Bft) S 173 2 min 3,8 UV-I 630 W/m 11,6 C 16,3 C 32,2 km/h (5 Bft)
11.05.2022 10:42 20,6 C 22,2 C 58 % 1013,4 hPa 0,0 l/m 19,9 km/h (4 Bft) S 186 2 min 3,9 UV-I 636 W/m 12,0 C 17,0 C 29,0 km/h (5 Bft)
11.05.2022 10:44 20,6 C 22,2 C 57 % 1013,4 hPa 0,0 l/m 17,8 km/h (3 Bft) S-SO 167 2 min 3,9 UV-I 640 W/m 11,8 C 17,4 C 27,4 km/h (4 Bft)
11.05.2022 10:46 20,7 C 22,8 C 58 % 1013,5 hPa 0,0 l/m 17,4 km/h (3 Bft) S-SO 165 2 min 3,9 UV-I 642 W/m 12,1 C 17,6 C 24,1 km/h (4 Bft)
11.05.2022 10:48 20,8 C 23,3 C 57 % 1013,4 hPa 0,0 l/m 19,3 km/h (3 Bft) S 184 2 min 4,0 UV-I 645 W/m 12,0 C 17,4 C 27,4 km/h (4 Bft)
11.05.2022 10:50 20,8 C 23,3 C 56 % 1013,3 hPa 0,0 l/m 21,9 km/h (4 Bft) S-SW 205 2 min 4,0 UV-I 651 W/m 11,7 C 16,9 C 30,6 km/h (5 Bft)
11.05.2022 10:52 20,7 C 23,3 C 56 % 1013,4 hPa 0,0 l/m 24,9 km/h (4 Bft) S-SW 194 2 min 4,0 UV-I 654 W/m 11,6 C 16,3 C 37,0 km/h (5 Bft)
11.05.2022 10:54 20,7 C 23,3 C 57 % 1013,4 hPa 0,0 l/m 24,0 km/h (4 Bft) S-SW 194 2 min 4,1 UV-I 659 W/m 11,9 C 16,5 C 38,6 km/h (5 Bft)
11.05.2022 10:56 20,7 C 23,9 C 56 % 1013,3 hPa 0,0 l/m 25,3 km/h (4 Bft) S-SW 202 2 min 4,1 UV-I 665 W/m 11,6 C 16,3 C 33,8 km/h (5 Bft)
11.05.2022 10:58 20,7 C 23,9 C 57 % 1013,4 hPa 0,0 l/m 25,1 km/h (4 Bft) S-SW 193 2 min 4,1 UV-I 671 W/m 11,9 C 16,3 C 40,2 km/h (6 Bft)
11.05.2022 11:00 20,7 C 23,9 C 57 % 1013,4 hPa 0,0 l/m 20,0 km/h (4 Bft) S-SW 196 2 min 4,2 UV-I 675 W/m 11,9 C 17,1 C 30,6 km/h (5 Bft)
11.05.2022 11:02 20,8 C 24,4 C 57 % 1013,3 hPa 0,0 l/m 20,0 km/h (4 Bft) S-SW 213 2 min 4,2 UV-I 677 W/m 12,0 C 17,2 C 32,2 km/h (5 Bft)
11.05.2022 11:04 21,0 C 24,4 C 56 % 1013,3 hPa 0,0 l/m 23,4 km/h (4 Bft) S-SW 205 2 min 4,2 UV-I 679 W/m 11,9 C 17,0 C 35,4 km/h (5 Bft)
11.05.2022 11:06 21,0 C 24,4 C 56 % 1013,4 hPa 0,0 l/m 25,0 km/h (4 Bft) S-SW 196 2 min 4,3 UV-I 687 W/m 11,9 C 16,7 C 37,0 km/h (5 Bft)
11.05.2022 11:08 21,0 C 24,4 C 56 % 1013,3 hPa 0,0 l/m 24,0 km/h (4 Bft) S-SW 194 2 min 4,3 UV-I 686 W/m 11,9 C 16,9 C 41,8 km/h (6 Bft)
11.05.2022 11:10 20,9 C 24,4 C 54 % 1013,4 hPa 0,0 l/m 29,8 km/h (5 Bft) W-SW 242 2 min 4,4 UV-I 693 W/m 11,2 C 16,0 C 45,1 km/h (6 Bft)
11.05.2022 11:12 20,9 C 23,9 C 54 % 1013,3 hPa 0,0 l/m 29,9 km/h (5 Bft) S-SO 163 2 min 4,4 UV-I 694 W/m 11,2 C 16,0 C 40,2 km/h (6 Bft)
11.05.2022 11:14 20,9 C 23,9 C 55 % 1013,2 hPa 0,0 l/m 25,5 km/h (4 Bft) S-SO 167 2 min 4,4 UV-I 694 W/m 11,5 C 16,5 C 38,6 km/h (5 Bft)
11.05.2022 11:16 21,1 C 24,4 C 56 % 1013,3 hPa 0,0 l/m 22,5 km/h (4 Bft) S-SW 202 2 min 4,4 UV-I 700 W/m 12,0 C 17,2 C 30,6 km/h (5 Bft)
11.05.2022 11:18 21,2 C 24,4 C 55 % 1013,3 hPa 0,0 l/m 20,6 km/h (4 Bft) SW 223 2 min 4,5 UV-I 704 W/m 11,8 C 17,7 C 30,6 km/h (5 Bft)
11.05.2022 11:20 21,2 C 24,4 C 55 % 1013,3 hPa 0,0 l/m 19,3 km/h (3 Bft) S-SW 206 2 min 4,4 UV-I 710 W/m 11,8 C 17,9 C 30,6 km/h (5 Bft)
11.05.2022 11:22 21,2 C 23,9 C 55 % 1013,3 hPa 0,0 l/m 22,0 km/h (4 Bft) S-SW 199 2 min 4,5 UV-I 716 W/m 11,8 C 17,4 C 38,6 km/h (5 Bft)
11.05.2022 11:24 21,2 C 25,0 C 55 % 1013,3 hPa 0,0 l/m 19,4 km/h (3 Bft) S-SW 194 2 min 4,7 UV-I 727 W/m 11,8 C 17,9 C 32,2 km/h (5 Bft)
11.05.2022 11:26 21,3 C 24,4 C 54 % 1013,3 hPa 0,0 l/m 21,5 km/h (4 Bft) S-SW 192 2 min 4,2 UV-I 735 W/m 11,6 C 17,6 C 29,0 km/h (5 Bft)
11.05.2022 11:28 21,3 C 25,0 C 55 % 1013,2 hPa 0,0 l/m 21,3 km/h (4 Bft) S 185 2 min 4,7 UV-I 731 W/m 11,9 C 17,7 C 33,8 km/h (5 Bft)
11.05.2022 11:30 21,4 C 25,0 C 54 % 1013,0 hPa 0,0 l/m 23,7 km/h (4 Bft) S 183 2 min 4,8 UV-I 745 W/m 11,7 C 17,5 C 33,8 km/h (5 Bft)
11.05.2022 11:32 21,4 C 25,0 C 54 % 1013,2 hPa 0,0 l/m 23,9 km/h (4 Bft) S 184 2 min 4,8 UV-I 744 W/m 11,7 C 17,4 C 32,2 km/h (5 Bft)
11.05.2022 11:34 21,6 C 25,6 C 55 % 1013,2 hPa 0,0 l/m 17,9 km/h (3 Bft) SW 216 2 min 4,9 UV-I 746 W/m 12,2 C 18,6 C 32,2 km/h (5 Bft)
11.05.2022 11:36 21,8 C 26,1 C 56 % 1013,2 hPa 0,0 l/m 18,7 km/h (3 Bft) S 172 2 min 5,0 UV-I 766 W/m 12,6 C 18,7 C 30,6 km/h (5 Bft)
11.05.2022 11:38 21,8 C 25,6 C 54 % 1013,1 hPa 0,0 l/m 24,7 km/h (4 Bft) S-SW 198 2 min 5,0 UV-I 760 W/m 12,1 C 17,9 C 35,4 km/h (5 Bft)
11.05.2022 11:40 21,7 C 25,6 C 54 % 1013,1 hPa 0,0 l/m 22,1 km/h (4 Bft) S 188 2 min 5,0 UV-I 759 W/m 12,0 C 18,1 C 29,0 km/h (5 Bft)
11.05.2022 11:42 21,9 C 26,1 C 55 % 1013,2 hPa 0,0 l/m 18,7 km/h (3 Bft) SW 235 2 min 5,1 UV-I 766 W/m 12,4 C 18,9 C 30,6 km/h (5 Bft)
11.05.2022 11:44 21,8 C 25,6 C 54 % 1013,2 hPa 0,0 l/m 22,5 km/h (4 Bft) S-SW 207 2 min 4,1 UV-I 772 W/m 12,1 C 18,2 C 35,4 km/h (5 Bft)
11.05.2022 11:46 21,7 C 24,4 C 54 % 1013,0 hPa 0,0 l/m 29,2 km/h (5 Bft) SW 231 2 min 5,0 UV-I 787 W/m 12,0 C 17,2 C 49,9 km/h (6 Bft)
11.05.2022 11:48 21,6 C 24,4 C 52 % 1013,0 hPa 0,0 l/m 30,0 km/h (5 Bft) S-SO 165 2 min 4,9 UV-I 786 W/m 11,3 C 17,0 C 46,7 km/h (6 Bft)
11.05.2022 11:50 21,7 C 25,0 C 52 % 1012,9 hPa 0,0 l/m 27,3 km/h (4 Bft) SW 227 2 min 5,1 UV-I 772 W/m 11,4 C 17,4 C 37,0 km/h (5 Bft)
11.05.2022 11:52 21,8 C 25,0 C 52 % 1012,9 hPa 0,0 l/m 26,0 km/h (4 Bft) SW 214 2 min 5,2 UV-I 780 W/m 11,5 C 17,7 C 35,4 km/h (5 Bft)
11.05.2022 11:54 21,8 C 25,0 C 52 % 1013,1 hPa 0,0 l/m 23,2 km/h (4 Bft) S-SW 212 2 min 5,2 UV-I 776 W/m 11,5 C 18,1 C 38,6 km/h (5 Bft)
11.05.2022 11:56 21,9 C 25,6 C 53 % 1013,0 hPa 0,0 l/m 20,4 km/h (4 Bft) S-SW 207 2 min 5,2 UV-I 776 W/m 11,9 C 18,6 C 35,4 km/h (5 Bft)
11.05.2022 11:58 22,0 C 25,6 C 51 % 1012,9 hPa 0,0 l/m 26,4 km/h (4 Bft) S-SW 198 2 min 5,3 UV-I 775 W/m 11,4 C 17,9 C 46,7 km/h (6 Bft)
11.05.2022 12:00 21,9 C 25,6 C 51 % 1013,1 hPa 0,0 l/m 30,0 km/h (5 Bft) SW 228 2 min 5,3 UV-I 784 W/m 11,3 C 17,4 C 46,7 km/h (6 Bft)
11.05.2022 12:02 21,9 C 24,4 C 51 % 1013,1 hPa 0,0 l/m 28,4 km/h (4 Bft) S-SW 198 2 min 5,3 UV-I 786 W/m 11,3 C 17,6 C 41,8 km/h (6 Bft)
11.05.2022 12:04 22,0 C 25,6 C 52 % 1013,0 hPa 0,0 l/m 18,3 km/h (3 Bft) SW 225 2 min 5,4 UV-I 793 W/m 11,7 C 19,1 C 29,0 km/h (5 Bft)
11.05.2022 12:06 22,1 C 25,6 C 51 % 1013,0 hPa 0,0 l/m 28,9 km/h (5 Bft) S 180 2 min 5,4 UV-I 787 W/m 11,5 C 17,8 C 43,5 km/h (6 Bft)
11.05.2022 12:08 22,0 C 25,0 C 50 % 1013,1 hPa 0,0 l/m 30,6 km/h (5 Bft) S-SW 195 2 min 5,4 UV-I 789 W/m 11,1 C 17,5 C 45,1 km/h (6 Bft)
11.05.2022 12:10 21,9 C 25,0 C 51 % 1013,0 hPa 0,0 l/m 30,6 km/h (5 Bft) S 184 2 min 5,5 UV-I 795 W/m 11,3 C 17,3 C 46,7 km/h (6 Bft)
11.05.2022 12:12 21,9 C 25,0 C 51 % 1013,0 hPa 0,0 l/m 32,9 km/h (5 Bft) S-SW 207 2 min 5,5 UV-I 798 W/m 11,3 C 17,1 C 45,1 km/h (6 Bft)
11.05.2022 12:14 22,1 C 25,6 C 52 % 1013,1 hPa 0,0 l/m 22,2 km/h (4 Bft) W 274 2 min 5,5 UV-I 791 W/m 11,8 C 18,6 C 41,8 km/h (6 Bft)
11.05.2022 12:16 22,3 C 26,1 C 51 % 1013,0 hPa 0,0 l/m 25,9 km/h (4 Bft) SO 142 2 min 5,5 UV-I 796 W/m 11,7 C 18,4 C 54,7 km/h (7 Bft)
11.05.2022 12:18 22,3 C 26,1 C 50 % 1013,1 hPa 0,0 l/m 23,1 km/h (4 Bft) S-SW 213 2 min 5,6 UV-I 799 W/m 11,4 C 18,7 C 37,0 km/h (5 Bft)
11.05.2022 12:20 22,2 C 26,1 C 49 % 1013,0 hPa 0,0 l/m 33,8 km/h (5 Bft) S-SW 195 2 min 5,6 UV-I 806 W/m 11,0 C 17,5 C 51,5 km/h (7 Bft)
11.05.2022 12:22 22,2 C 25,6 C 51 % 1013,2 hPa 0,0 l/m 27,2 km/h (4 Bft) SW 218 2 min 5,6 UV-I 803 W/m 11,6 C 18,1 C 37,0 km/h (5 Bft)
11.05.2022 12:24 22,2 C 25,6 C 49 % 1012,9 hPa 0,0 l/m 26,1 km/h (4 Bft) S-SW 207 2 min 5,6 UV-I 802 W/m 11,0 C 18,2 C 45,1 km/h (6 Bft)
11.05.2022 12:26 22,2 C 25,6 C 50 % 1013,1 hPa 0,0 l/m 32,2 km/h (5 Bft) SW 230 2 min 5,6 UV-I 807 W/m 11,3 C 17,6 C 43,5 km/h (6 Bft)
11.05.2022 12:28 22,2 C 26,1 C 51 % 1013,0 hPa 0,0 l/m 22,2 km/h (4 Bft) SW 234 2 min 5,7 UV-I 813 W/m 11,6 C 18,7 C 35,4 km/h (5 Bft)
11.05.2022 12:30 22,4 C 26,1 C 49 % 1013,0 hPa 0,0 l/m 25,1 km/h (4 Bft) SW 236 2 min 5,7 UV-I 810 W/m 11,2 C 18,6 C 43,5 km/h (6 Bft)
11.05.2022 12:32 22,4 C 26,1 C 49 % 1012,9 hPa 0,0 l/m 28,0 km/h (4 Bft) S 184 2 min 5,7 UV-I 810 W/m 11,2 C 18,3 C 46,7 km/h (6 Bft)
11.05.2022 12:34 22,5 C 26,1 C 49 % 1012,9 hPa 0,0 l/m 24,5 km/h (4 Bft) S-SW 209 2 min 5,7 UV-I 811 W/m 11,2 C 18,8 C 45,1 km/h (6 Bft)
11.05.2022 12:36 22,4 C 25,6 C 46 % 1012,9 hPa 0,0 l/m 36,4 km/h (5 Bft) S 191 2 min 5,8 UV-I 814 W/m 10,2 C 17,5 C 54,7 km/h (7 Bft)
11.05.2022 12:38 22,3 C 26,1 C 48 % 1012,9 hPa 0,0 l/m 24,9 km/h (4 Bft) S 171 2 min 5,8 UV-I 819 W/m 10,8 C 18,5 C 38,6 km/h (5 Bft)
11.05.2022 12:40 22,4 C 26,1 C 47 % 1012,9 hPa 0,0 l/m 27,8 km/h (4 Bft) S-SW 209 2 min 5,8 UV-I 819 W/m 10,5 C 18,3 C 38,6 km/h (5 Bft)
11.05.2022 12:42 22,5 C 26,1 C 47 % 1013,0 hPa 0,0 l/m 23,4 km/h (4 Bft) SW 234 2 min 5,8 UV-I 821 W/m 10,6 C 19,0 C 38,6 km/h (5 Bft)
11.05.2022 12:44 22,5 C 26,1 C 47 % 1012,8 hPa 0,0 l/m 33,1 km/h (5 Bft) S-SW 211 2 min 5,8 UV-I 821 W/m 10,6 C 18,0 C 45,1 km/h (6 Bft)
11.05.2022 12:46 22,4 C 26,1 C 48 % 1012,9 hPa 0,0 l/m 29,0 km/h (5 Bft) S-SW 205 2 min 5,9 UV-I 821 W/m 10,8 C 18,2 C 43,5 km/h (6 Bft)
11.05.2022 12:48 22,5 C 26,1 C 50 % 1012,9 hPa 0,0 l/m 20,9 km/h (4 Bft) S-SW 194 2 min 5,9 UV-I 824 W/m 11,5 C 19,3 C 27,4 km/h (4 Bft)
11.05.2022 12:50 22,6 C 26,7 C 48 % 1012,9 hPa 0,0 l/m 23,5 km/h (4 Bft) SW 215 2 min 5,9 UV-I 824 W/m 11,0 C 19,1 C 33,8 km/h (5 Bft)
11.05.2022 12:52 22,5 C 26,7 C 49 % 1012,8 hPa 0,0 l/m 25,3 km/h (4 Bft) SW 224 2 min 5,9 UV-I 824 W/m 11,2 C 18,7 C 40,2 km/h (6 Bft)
11.05.2022 12:54 22,5 C 26,7 C 49 % 1012,7 hPa 0,0 l/m 28,1 km/h (4 Bft) W-SW 239 2 min 5,9 UV-I 827 W/m 11,2 C 18,4 C 38,6 km/h (5 Bft)
11.05.2022 12:56 22,4 C 26,1 C 46 % 1012,8 hPa 0,0 l/m 27,4 km/h (4 Bft) SW 226 2 min 5,9 UV-I 825 W/m 10,2 C 18,4 C 37,0 km/h (5 Bft)
11.05.2022 12:58 22,5 C 26,1 C 47 % 1012,8 hPa 0,0 l/m 27,1 km/h (4 Bft) S 172 2 min 6,0 UV-I 832 W/m 10,6 C 18,5 C 46,7 km/h (6 Bft)
11.05.2022 13:00 22,6 C 26,7 C 48 % 1012,9 hPa 0,0 l/m 25,5 km/h (4 Bft) W 261 2 min 6,0 UV-I 830 W/m 11,0 C 18,8 C 37,0 km/h (5 Bft)
11.05.2022 13:02 22,7 C 26,7 C 47 % 1012,9 hPa 0,0 l/m 31,7 km/h (5 Bft) S-SW 198 2 min 6,0 UV-I 831 W/m 10,8 C 18,4 C 45,1 km/h (6 Bft)
11.05.2022 13:04 22,6 C 26,1 C 48 % 1012,7 hPa 0,0 l/m 28,1 km/h (4 Bft) S-SW 193 2 min 6,0 UV-I 836 W/m 11,0 C 18,6 C 40,2 km/h (6 Bft)
11.05.2022 13:06 22,6 C 26,7 C 48 % 1012,9 hPa 0,0 l/m 25,6 km/h (4 Bft) S-SW 204 2 min 6,0 UV-I 835 W/m 11,0 C 18,8 C 43,5 km/h (6 Bft)
11.05.2022 13:08 22,6 C 26,7 C 48 % 1012,8 hPa 0,0 l/m 29,0 km/h (5 Bft) S-SW 203 2 min 6,0 UV-I 839 W/m 11,0 C 18,5 C 45,1 km/h (6 Bft)
11.05.2022 13:10 22,6 C 26,7 C 48 % 1012,8 hPa 0,0 l/m 29,5 km/h (5 Bft) S-SW 209 2 min 6,0 UV-I 834 W/m 11,0 C 18,4 C 40,2 km/h (6 Bft)
11.05.2022 13:12 22,7 C 26,7 C 47 % 1012,7 hPa 0,0 l/m 26,5 km/h (4 Bft) S 189 2 min 5,9 UV-I 833 W/m 10,8 C 18,9 C 38,6 km/h (5 Bft)
11.05.2022 13:14 22,7 C 26,7 C 47 % 1012,7 hPa 0,0 l/m 25,9 km/h (4 Bft) SW 222 2 min 6,0 UV-I 842 W/m 10,8 C 18,9 C 40,2 km/h (6 Bft)
11.05.2022 13:16 22,8 C 27,2 C 48 % 1012,6 hPa 0,0 l/m 20,6 km/h (4 Bft) S 191 2 min 6,0 UV-I 837 W/m 11,2 C 19,7 C 37,0 km/h (5 Bft)
11.05.2022 13:18 23,0 C 27,8 C 48 % 1012,6 hPa 0,0 l/m 19,1 km/h (3 Bft) S 189 2 min 6,1 UV-I 845 W/m 11,4 C 20,2 C 29,0 km/h (5 Bft)
11.05.2022 13:20 23,2 C 27,8 C 47 % 1012,7 hPa 0,0 l/m 20,7 km/h (4 Bft) S 184 2 min 6,1 UV-I 833 W/m 11,3 C 20,2 C 35,4 km/h (5 Bft)
11.05.2022 13:22 23,3 C 28,3 C 47 % 1012,7 hPa 0,0 l/m 20,6 km/h (4 Bft) S 171 2 min 6,1 UV-I 843 W/m 11,3 C 20,4 C 35,4 km/h (5 Bft)
11.05.2022 13:24 23,4 C 28,3 C 46 % 1012,7 hPa 0,0 l/m 21,0 km/h (4 Bft) S-SW 198 2 min 6,1 UV-I 842 W/m 11,1 C 20,5 C 38,6 km/h (5 Bft)
11.05.2022 13:26 23,4 C 28,3 C 45 % 1012,4 hPa 0,0 l/m 22,2 km/h (4 Bft) S-SW 192 2 min 6,1 UV-I 842 W/m 10,8 C 20,3 C 43,5 km/h (6 Bft)
11.05.2022 13:28 23,1 C 27,2 C 43 % 1012,4 hPa 0,0 l/m 28,1 km/h (4 Bft) SW 228 2 min 6,1 UV-I 845 W/m 9,8 C 19,3 C 41,8 km/h (6 Bft)
11.05.2022 13:30 23,0 C 27,2 C 45 % 1012,5 hPa 0,0 l/m 27,8 km/h (4 Bft) SW 221 2 min 6,1 UV-I 841 W/m 10,4 C 19,1 C 37,0 km/h (5 Bft)
11.05.2022 13:32 22,9 C 27,2 C 45 % 1012,5 hPa 0,0 l/m 21,8 km/h (4 Bft) S-SW 209 2 min 6,1 UV-I 843 W/m 10,3 C 19,7 C 33,8 km/h (5 Bft)
11.05.2022 13:34 23,0 C 27,2 C 44 % 1012,3 hPa 0,0 l/m 25,7 km/h (4 Bft) SW 226 2 min 6,1 UV-I 845 W/m 10,1 C 19,4 C 38,6 km/h (5 Bft)
11.05.2022 13:36 23,1 C 27,2 C 44 % 1012,5 hPa 0,0 l/m 26,4 km/h (4 Bft) S-SW 203 2 min 6,1 UV-I 847 W/m 10,2 C 19,4 C 40,2 km/h (6 Bft)
11.05.2022 13:38 23,1 C 27,2 C 45 % 1012,5 hPa 0,0 l/m 26,5 km/h (4 Bft) S-SW 195 2 min 6,1 UV-I 849 W/m 10,5 C 19,4 C 40,2 km/h (6 Bft)
11.05.2022 13:40 23,1 C 27,2 C 42 % 1012,6 hPa 0,0 l/m 29,4 km/h (5 Bft) S 189 2 min 6,1 UV-I 847 W/m 9,5 C 19,1 C 38,6 km/h (5 Bft)
11.05.2022 13:42 23,0 C 27,2 C 44 % 1012,4 hPa 0,0 l/m 24,8 km/h (4 Bft) S-SW 211 2 min 6,1 UV-I 845 W/m 10,1 C 19,5 C 38,6 km/h (5 Bft)
11.05.2022 13:44 23,2 C 27,8 C 42 % 1012,2 hPa 0,0 l/m 26,2 km/h (4 Bft) S-SW 198 2 min 6,1 UV-I 847 W/m 9,6 C 19,6 C 48,3 km/h (6 Bft)
11.05.2022 13:46 23,2 C 27,8 C 43 % 1012,4 hPa 0,0 l/m 23,2 km/h (4 Bft) W-SW 238 2 min 6,1 UV-I 845 W/m 9,9 C 19,9 C 35,4 km/h (5 Bft)
11.05.2022 13:48 23,3 C 27,8 C 45 % 1012,5 hPa 0,0 l/m 24,2 km/h (4 Bft) W-SW 246 2 min 6,0 UV-I 842 W/m 10,7 C 19,9 C 35,4 km/h (5 Bft)
11.05.2022 13:50 23,4 C 27,8 C 44 % 1012,3 hPa 0,0 l/m 21,8 km/h (4 Bft) SW 215 2 min 6,0 UV-I 843 W/m 10,4 C 20,4 C 33,8 km/h (5 Bft)
11.05.2022 13:52 23,3 C 27,8 C 44 % 1012,3 hPa 0,0 l/m 23,8 km/h (4 Bft) S 177 2 min 6,1 UV-I 844 W/m 10,4 C 20,0 C 32,2 km/h (5 Bft)
11.05.2022 13:54 23,3 C 27,8 C 44 % 1012,5 hPa 0,0 l/m 21,8 km/h (4 Bft) S-SW 211 2 min 6,1 UV-I 848 W/m 10,4 C 20,2 C 35,4 km/h (5 Bft)
11.05.2022 13:56 23,4 C 27,8 C 43 % 1012,4 hPa 0,0 l/m 19,5 km/h (3 Bft) S-SW 204 2 min 6,1 UV-I 844 W/m 10,1 C 20,7 C 27,4 km/h (4 Bft)
11.05.2022 13:58 23,6 C 28,3 C 43 % 1012,3 hPa 0,0 l/m 18,1 km/h (3 Bft) S-SW 213 2 min 6,0 UV-I 842 W/m 10,3 C 21,1 C 37,0 km/h (5 Bft)
11.05.2022 14:00 23,7 C 28,3 C 41 % 1012,2 hPa 0,0 l/m 22,3 km/h (4 Bft) S-SW 198 2 min 6,1 UV-I 841 W/m 9,7 C 20,7 C 46,7 km/h (6 Bft)
11.05.2022 14:02 23,6 C 27,8 C 40 % 1012,3 hPa 0,0 l/m 22,7 km/h (4 Bft) SW 215 2 min 6,1 UV-I 843 W/m 9,2 C 20,5 C 35,4 km/h (5 Bft)
11.05.2022 14:04 23,5 C 27,8 C 42 % 1012,3 hPa 0,0 l/m 23,1 km/h (4 Bft) S-SW 210 2 min 6,1 UV-I 843 W/m 9,8 C 20,3 C 30,6 km/h (5 Bft)
11.05.2022 14:06 23,6 C 28,3 C 42 % 1012,2 hPa 0,0 l/m 22,8 km/h (4 Bft) W-SW 241 2 min 6,1 UV-I 845 W/m 9,9 C 20,5 C 35,4 km/h (5 Bft)
11.05.2022 14:08 23,6 C 27,8 C 40 % 1012,3 hPa 0,0 l/m 26,6 km/h (4 Bft) SW 221 2 min 6,1 UV-I 844 W/m 9,2 C 20,1 C 49,9 km/h (6 Bft)
11.05.2022 14:10 23,5 C 27,2 C 41 % 1012,4 hPa 0,0 l/m 21,5 km/h (4 Bft) W-SW 242 2 min 6,0 UV-I 841 W/m 9,5 C 20,5 C 37,0 km/h (5 Bft)
11.05.2022 14:12 23,5 C 27,8 C 38 % 1012,3 hPa 0,0 l/m 25,4 km/h (4 Bft) S-SW 192 2 min 6,0 UV-I 842 W/m 8,4 C 20,1 C 38,6 km/h (5 Bft)
11.05.2022 14:14 23,6 C 28,3 C 39 % 1012,4 hPa 0,0 l/m 23,0 km/h (4 Bft) S-SW 211 2 min 6,0 UV-I 840 W/m 8,8 C 20,5 C 38,6 km/h (5 Bft)
11.05.2022 14:16 23,7 C 28,3 C 38 % 1012,2 hPa 0,0 l/m 25,3 km/h (4 Bft) S 185 2 min 6,0 UV-I 836 W/m 8,5 C 20,4 C 45,1 km/h (6 Bft)
11.05.2022 14:18 23,7 C 28,3 C 39 % 1012,4 hPa 0,0 l/m 15,1 km/h (3 Bft) SW 228 2 min 6,0 UV-I 835 W/m 8,9 C 21,7 C 27,4 km/h (4 Bft)
11.05.2022 14:20 23,8 C 28,9 C 37 % 1012,3 hPa 0,0 l/m 20,4 km/h (4 Bft) S 173 2 min 6,0 UV-I 836 W/m 8,2 C 21,1 C 29,0 km/h (5 Bft)
11.05.2022 14:22 23,8 C 28,3 C 39 % 1012,4 hPa 0,0 l/m 26,7 km/h (4 Bft) SW 229 2 min 6,0 UV-I 834 W/m 9,0 C 20,4 C 38,6 km/h (5 Bft)
11.05.2022 14:24 23,7 C 27,8 C 39 % 1012,2 hPa 0,0 l/m 29,1 km/h (5 Bft) S 178 2 min 5,9 UV-I 830 W/m 8,9 C 20,0 C 45,1 km/h (6 Bft)
11.05.2022 14:26 23,7 C 28,3 C 39 % 1012,3 hPa 0,0 l/m 23,0 km/h (4 Bft) SW 217 2 min 5,9 UV-I 827 W/m 8,9 C 20,6 C 35,4 km/h (5 Bft)
11.05.2022 14:28 23,8 C 28,9 C 39 % 1012,2 hPa 0,0 l/m 15,6 km/h (3 Bft) SW 219 2 min 5,9 UV-I 826 W/m 9,0 C 21,8 C 27,4 km/h (4 Bft)
11.05.2022 14:30 23,8 C 28,9 C 39 % 1012,3 hPa 0,0 l/m 24,4 km/h (4 Bft) W-SW 240 2 min 5,9 UV-I 827 W/m 9,0 C 20,6 C 32,2 km/h (5 Bft)
11.05.2022 14:32 23,8 C 28,3 C 41 % 1012,2 hPa 0,0 l/m 19,5 km/h (3 Bft) SW 217 2 min 5,9 UV-I 834 W/m 9,7 C 21,2 C 30,6 km/h (5 Bft)
11.05.2022 14:34 23,9 C 28,9 C 41 % 1012,1 hPa 0,0 l/m 22,5 km/h (4 Bft) SW 221 2 min 5,7 UV-I 831 W/m 9,8 C 20,9 C 37,0 km/h (5 Bft)
11.05.2022 14:36 23,9 C 28,3 C 41 % 1012,2 hPa 0,0 l/m 21,9 km/h (4 Bft) S-SW 208 2 min 5,8 UV-I 827 W/m 9,8 C 21,0 C 35,4 km/h (5 Bft)
11.05.2022 14:38 23,9 C 28,9 C 42 % 1012,3 hPa 0,0 l/m 23,1 km/h (4 Bft) S-SW 194 2 min 5,8 UV-I 821 W/m 10,2 C 20,9 C 33,8 km/h (5 Bft)
11.05.2022 14:40 23,8 C 28,9 C 41 % 1012,2 hPa 0,0 l/m 23,1 km/h (4 Bft) W-SW 248 2 min 5,8 UV-I 821 W/m 9,7 C 20,7 C 38,6 km/h (5 Bft)
11.05.2022 14:42 23,9 C 28,9 C 42 % 1012,2 hPa 0,0 l/m 25,4 km/h (4 Bft) SW 215 2 min 5,8 UV-I 823 W/m 10,2 C 20,6 C 38,6 km/h (5 Bft)
11.05.2022 14:44 23,8 C 28,3 C 43 % 1012,2 hPa 0,0 l/m 26,3 km/h (4 Bft) S-SW 211 2 min 5,9 UV-I 824 W/m 10,5 C 20,4 C 35,4 km/h (5 Bft)
11.05.2022 14:46 23,8 C 28,3 C 41 % 1012,2 hPa 0,0 l/m 25,2 km/h (4 Bft) SW 214 2 min 5,8 UV-I 821 W/m 9,7 C 20,5 C 35,4 km/h (5 Bft)
11.05.2022 14:48 23,7 C 28,3 C 41 % 1012,3 hPa 0,0 l/m 28,1 km/h (4 Bft) SW 221 2 min 5,8 UV-I 813 W/m 9,7 C 20,1 C 45,1 km/h (6 Bft)
11.05.2022 14:50 23,7 C 28,3 C 42 % 1012,0 hPa 0,0 l/m 25,0 km/h (4 Bft) SW 221 2 min 5,8 UV-I 815 W/m 10,0 C 20,4 C 46,7 km/h (6 Bft)
11.05.2022 14:52 23,7 C 27,8 C 40 % 1012,1 hPa 0,0 l/m 32,6 km/h (5 Bft) S-SW 212 2 min 5,7 UV-I 811 W/m 9,3 C 19,7 C 46,7 km/h (6 Bft)
11.05.2022 14:54 23,8 C 28,3 C 40 % 1012,2 hPa 0,0 l/m 21,4 km/h (4 Bft) S 188 2 min 5,7 UV-I 811 W/m 9,4 C 20,9 C 38,6 km/h (5 Bft)
11.05.2022 14:56 23,8 C 28,3 C 40 % 1012,1 hPa 0,0 l/m 28,4 km/h (4 Bft) S 185 2 min 5,6 UV-I 806 W/m 9,4 C 20,2 C 48,3 km/h (6 Bft)
11.05.2022 14:58 23,7 C 27,8 C 41 % 1012,2 hPa 0,0 l/m 25,4 km/h (4 Bft) S 186 2 min 5,6 UV-I 801 W/m 9,7 C 20,4 C 38,6 km/h (5 Bft)
11.05.2022 15:00 23,8 C 28,3 C 41 % 1012,2 hPa 0,0 l/m 21,7 km/h (4 Bft) SW 216 2 min 5,6 UV-I 804 W/m 9,7 C 20,9 C 38,6 km/h (5 Bft)
11.05.2022 15:02 23,9 C 28,3 C 42 % 1012,0 hPa 0,0 l/m 24,7 km/h (4 Bft) S-SW 205 2 min 5,6 UV-I 799 W/m 10,2 C 20,7 C 41,8 km/h (6 Bft)
11.05.2022 15:04 23,8 C 28,3 C 41 % 1012,1 hPa 0,0 l/m 26,4 km/h (4 Bft) S 190 2 min 5,6 UV-I 802 W/m 9,7 C 20,4 C 35,4 km/h (5 Bft)
11.05.2022 15:06 23,8 C 28,3 C 41 % 1012,1 hPa 0,0 l/m 24,1 km/h (4 Bft) S-SW 203 2 min 5,5 UV-I 794 W/m 9,7 C 20,6 C 38,6 km/h (5 Bft)
11.05.2022 15:08 23,8 C 28,3 C 40 % 1012,0 hPa 0,0 l/m 24,8 km/h (4 Bft) S-SW 202 2 min 5,5 UV-I 796 W/m 9,4 C 20,6 C 35,4 km/h (5 Bft)
11.05.2022 15:10 23,8 C 28,3 C 40 % 1012,1 hPa 0,0 l/m 24,7 km/h (4 Bft) S-SO 163 2 min 5,5 UV-I 796 W/m 9,4 C 20,6 C 35,4 km/h (5 Bft)
11.05.2022 15:12 23,8 C 28,9 C 42 % 1012,1 hPa 0,0 l/m 19,1 km/h (3 Bft) S-SO 150 2 min 5,4 UV-I 786 W/m 10,1 C 21,2 C 37,0 km/h (5 Bft)
11.05.2022 15:14 23,9 C 28,9 C 38 % 1012,0 hPa 0,0 l/m 26,7 km/h (4 Bft) S-SW 199 2 min 5,4 UV-I 783 W/m 8,7 C 20,5 C 43,5 km/h (6 Bft)
11.05.2022 15:16 23,9 C 28,3 C 39 % 1012,0 hPa 0,0 l/m 24,3 km/h (4 Bft) S-SW 198 2 min 5,3 UV-I 781 W/m 9,1 C 20,7 C 43,5 km/h (6 Bft)
11.05.2022 15:18 23,8 C 28,3 C 40 % 1011,9 hPa 0,0 l/m 20,6 km/h (4 Bft) SW 214 2 min 5,3 UV-I 778 W/m 9,4 C 21,0 C 32,2 km/h (5 Bft)
11.05.2022 15:20 23,9 C 28,9 C 41 % 1012,0 hPa 0,0 l/m 19,7 km/h (3 Bft) S-SW 196 2 min 5,3 UV-I 761 W/m 9,8 C 21,3 C 43,5 km/h (6 Bft)
11.05.2022 15:22 24,0 C 28,3 C 40 % 1012,0 hPa 0,0 l/m 30,9 km/h (5 Bft) SW 229 2 min 5,3 UV-I 778 W/m 9,6 C 20,3 C 40,2 km/h (6 Bft)
11.05.2022 15:24 23,8 C 28,3 C 39 % 1011,7 hPa 0,0 l/m 34,3 km/h (5 Bft) S-SW 200 2 min 5,3 UV-I 774 W/m 9,0 C 19,7 C 46,7 km/h (6 Bft)
11.05.2022 15:26 23,7 C 27,2 C 39 % 1011,9 hPa 0,0 l/m 30,2 km/h (5 Bft) S 188 2 min 5,2 UV-I 773 W/m 8,9 C 19,9 C 43,5 km/h (6 Bft)
11.05.2022 15:28 23,7 C 27,8 C 40 % 1011,9 hPa 0,0 l/m 28,5 km/h (4 Bft) S 187 2 min 5,2 UV-I 771 W/m 9,3 C 20,1 C 45,1 km/h (6 Bft)
11.05.2022 15:30 23,6 C 27,8 C 41 % 1011,8 hPa 0,0 l/m 30,9 km/h (5 Bft) S 173 2 min 5,2 UV-I 769 W/m 9,6 C 19,7 C 45,1 km/h (6 Bft)
11.05.2022 15:32 23,7 C 27,8 C 40 % 1011,6 hPa 0,0 l/m 29,3 km/h (5 Bft) S 185 2 min 5,1 UV-I 765 W/m 9,3 C 20,0 C 40,2 km/h (6 Bft)
11.05.2022 15:34 23,7 C 27,8 C 41 % 1011,9 hPa 0,0 l/m 28,6 km/h (4 Bft) S 175 2 min 5,1 UV-I 764 W/m 9,7 C 20,0 C 43,5 km/h (6 Bft)
11.05.2022 15:36 23,6 C 27,8 C 40 % 1011,8 hPa 0,0 l/m 30,7 km/h (5 Bft) S 172 2 min 5,1 UV-I 753 W/m 9,2 C 19,7 C 48,3 km/h (6 Bft)
11.05.2022 15:38 23,6 C 27,8 C 41 % 1011,8 hPa 0,0 l/m 30,6 km/h (5 Bft) SW 216 2 min 5,0 UV-I 749 W/m 9,6 C 19,7 C 48,3 km/h (6 Bft)
11.05.2022 15:40 23,7 C 28,3 C 42 % 1011,7 hPa 0,0 l/m 24,6 km/h (4 Bft) SW 217 2 min 5,0 UV-I 753 W/m 10,0 C 20,4 C 37,0 km/h (5 Bft)
11.05.2022 15:42 23,8 C 27,8 C 41 % 1011,9 hPa 0,0 l/m 31,6 km/h (5 Bft) SW 225 2 min 4,9 UV-I 741 W/m 9,7 C 19,9 C 48,3 km/h (6 Bft)
11.05.2022 15:44 23,8 C 27,8 C 41 % 1011,8 hPa 0,0 l/m 25,0 km/h (4 Bft) S-SO 168 2 min 4,9 UV-I 743 W/m 9,7 C 20,5 C 46,7 km/h (6 Bft)
11.05.2022 15:46 23,8 C 28,3 C 42 % 1011,7 hPa 0,0 l/m 22,7 km/h (4 Bft) S-SO 167 2 min 4,9 UV-I 747 W/m 10,1 C 20,8 C 37,0 km/h (5 Bft)
11.05.2022 15:48 23,8 C 27,8 C 41 % 1011,8 hPa 0,0 l/m 29,9 km/h (5 Bft) S-SW 205 2 min 4,8 UV-I 737 W/m 9,7 C 20,1 C 48,3 km/h (6 Bft)
11.05.2022 15:50 23,7 C 28,3 C 42 % 1011,6 hPa 0,0 l/m 24,9 km/h (4 Bft) S 183 2 min 4,8 UV-I 733 W/m 10,0 C 20,4 C 40,2 km/h (6 Bft)
11.05.2022 15:52 23,8 C 28,3 C 42 % 1011,8 hPa 0,0 l/m 23,6 km/h (4 Bft) S-SW 204 2 min 4,8 UV-I 735 W/m 10,1 C 20,7 C 38,6 km/h (5 Bft)
11.05.2022 15:54 23,8 C 27,8 C 42 % 1011,6 hPa 0,0 l/m 24,8 km/h (4 Bft) S-SW 198 2 min 4,7 UV-I 725 W/m 10,1 C 20,6 C 35,4 km/h (5 Bft)
11.05.2022 15:56 23,8 C 27,8 C 43 % 1011,6 hPa 0,0 l/m 27,8 km/h (4 Bft) S-SO 168 2 min 4,7 UV-I 727 W/m 10,5 C 20,3 C 38,6 km/h (5 Bft)
11.05.2022 15:58 23,8 C 28,3 C 43 % 1011,7 hPa 0,0 l/m 25,6 km/h (4 Bft) S-SW 207 2 min 4,6 UV-I 725 W/m 10,5 C 20,5 C 45,1 km/h (6 Bft)
11.05.2022 16:00 23,7 C 27,8 C 42 % 1011,7 hPa 0,0 l/m 29,2 km/h (5 Bft) SW 232 2 min 4,6 UV-I 721 W/m 10,0 C 20,0 C 41,8 km/h (6 Bft)
11.05.2022 16:02 23,6 C 27,2 C 42 % 1011,4 hPa 0,0 l/m 31,2 km/h (5 Bft) S-SW 201 2 min 4,6 UV-I 721 W/m 9,9 C 19,7 C 45,1 km/h (6 Bft)
11.05.2022 16:04 23,5 C 27,2 C 43 % 1011,6 hPa 0,0 l/m 26,4 km/h (4 Bft) SW 227 2 min 4,5 UV-I 713 W/m 10,2 C 20,0 C 40,2 km/h (6 Bft)
11.05.2022 16:06 23,4 C 27,8 C 43 % 1011,6 hPa 0,0 l/m 25,5 km/h (4 Bft) SW 227 2 min 4,5 UV-I 709 W/m 10,1 C 19,9 C 45,1 km/h (6 Bft)
11.05.2022 16:08 23,6 C 27,8 C 44 % 1011,6 hPa 0,0 l/m 21,2 km/h (4 Bft) SW 218 2 min 4,5 UV-I 714 W/m 10,6 C 20,7 C 35,4 km/h (5 Bft)
11.05.2022 16:10 23,7 C 28,3 C 44 % 1011,6 hPa 0,0 l/m 20,3 km/h (4 Bft) SW 219 2 min 4,5 UV-I 714 W/m 10,7 C 20,9 C 33,8 km/h (5 Bft)
11.05.2022 16:12 23,7 C 28,3 C 44 % 1011,5 hPa 0,0 l/m 18,9 km/h (3 Bft) W-SW 250 2 min 4,4 UV-I 705 W/m 10,7 C 21,1 C 29,0 km/h (5 Bft)
11.05.2022 16:14 23,7 C 27,8 C 43 % 1011,5 hPa 0,0 l/m 24,7 km/h (4 Bft) S-SW 196 2 min 4,4 UV-I 698 W/m 10,4 C 20,4 C 35,4 km/h (5 Bft)
11.05.2022 16:16 23,7 C 27,2 C 44 % 1011,5 hPa 0,0 l/m 23,9 km/h (4 Bft) SW 229 2 min 4,3 UV-I 691 W/m 10,7 C 20,5 C 32,2 km/h (5 Bft)
11.05.2022 16:18 23,8 C 27,2 C 45 % 1011,5 hPa 0,0 l/m 18,6 km/h (3 Bft) SW 219 2 min 4,2 UV-I 684 W/m 11,1 C 21,3 C 30,6 km/h (5 Bft)
11.05.2022 16:20 23,9 C 27,8 C 45 % 1011,6 hPa 0,0 l/m 18,8 km/h (3 Bft) S-SW 200 2 min 4,2 UV-I 681 W/m 11,2 C 21,4 C 30,6 km/h (5 Bft)
11.05.2022 16:22 23,9 C 28,3 C 44 % 1011,5 hPa 0,0 l/m 20,0 km/h (4 Bft) S-SW 208 2 min 4,1 UV-I 661 W/m 10,9 C 21,2 C 29,0 km/h (5 Bft)
11.05.2022 16:24 23,9 C 28,3 C 44 % 1011,5 hPa 0,0 l/m 22,0 km/h (4 Bft) S-SW 200 2 min 4,1 UV-I 672 W/m 10,9 C 21,0 C 32,2 km/h (5 Bft)
11.05.2022 16:26 23,9 C 28,3 C 45 % 1011,6 hPa 0,0 l/m 23,1 km/h (4 Bft) SW 224 2 min 4,1 UV-I 672 W/m 11,2 C 20,9 C 37,0 km/h (5 Bft)
11.05.2022 16:28 23,7 C 27,8 C 43 % 1011,5 hPa 0,0 l/m 26,9 km/h (4 Bft) SW 225 2 min 4,1 UV-I 666 W/m 10,4 C 20,2 C 43,5 km/h (6 Bft)
11.05.2022 16:30 23,5 C 27,2 C 44 % 1011,5 hPa 0,0 l/m 28,8 km/h (4 Bft) S-SW 196 2 min 4,0 UV-I 660 W/m 10,5 C 19,7 C 43,5 km/h (6 Bft)
11.05.2022 16:32 23,4 C 27,2 C 44 % 1011,6 hPa 0,0 l/m 27,6 km/h (4 Bft) SW 220 2 min 4,0 UV-I 653 W/m 10,4 C 19,7 C 43,5 km/h (6 Bft)
11.05.2022 16:34 23,4 C 27,8 C 46 % 1011,5 hPa 0,0 l/m 18,0 km/h (3 Bft) S 186 2 min 4,0 UV-I 659 W/m 11,1 C 20,9 C 25,7 km/h (4 Bft)
11.05.2022 16:36 23,4 C 27,8 C 45 % 1011,6 hPa 0,0 l/m 21,2 km/h (4 Bft) S-SW 200 2 min 3,9 UV-I 637 W/m 10,8 C 20,4 C 30,6 km/h (5 Bft)
11.05.2022 16:38 23,4 C 27,8 C 45 % 1011,7 hPa 0,0 l/m 26,5 km/h (4 Bft) S-SW 204 2 min 3,8 UV-I 632 W/m 10,8 C 19,8 C 43,5 km/h (6 Bft)
11.05.2022 16:40 23,4 C 27,8 C 44 % 1011,6 hPa 0,0 l/m 24,8 km/h (4 Bft) S-SW 207 2 min 3,8 UV-I 638 W/m 10,4 C 20,0 C 33,8 km/h (5 Bft)
11.05.2022 16:42 23,4 C 27,8 C 45 % 1011,6 hPa 0,0 l/m 19,7 km/h (3 Bft) S 191 2 min 3,8 UV-I 642 W/m 10,8 C 20,6 C 30,6 km/h (5 Bft)
11.05.2022 16:44 23,5 C 27,8 C 45 % 1011,6 hPa 0,0 l/m 21,1 km/h (4 Bft) SW 217 2 min 3,7 UV-I 635 W/m 10,9 C 20,6 C 37,0 km/h (5 Bft)
11.05.2022 16:46 23,4 C 27,8 C 46 % 1011,5 hPa 0,0 l/m 21,5 km/h (4 Bft) S-SW 201 2 min 3,7 UV-I 632 W/m 11,1 C 20,4 C 32,2 km/h (5 Bft)
11.05.2022 16:48 23,4 C 28,3 C 46 % 1011,5 hPa 0,0 l/m 22,2 km/h (4 Bft) S-SW 199 2 min 3,7 UV-I 632 W/m 11,1 C 20,3 C 32,2 km/h (5 Bft)
11.05.2022 16:50 23,3 C 27,8 C 45 % 1011,5 hPa 0,0 l/m 24,5 km/h (4 Bft) S-SW 208 2 min 3,6 UV-I 618 W/m 10,7 C 19,9 C 35,4 km/h (5 Bft)
11.05.2022 16:52 23,3 C 28,3 C 46 % 1011,4 hPa 0,0 l/m 18,7 km/h (3 Bft) SW 215 2 min 3,6 UV-I 610 W/m 11,0 C 20,7 C 32,2 km/h (5 Bft)
11.05.2022 16:54 23,4 C 28,3 C 45 % 1011,4 hPa 0,0 l/m 23,4 km/h (4 Bft) S-SW 193 2 min 3,5 UV-I 618 W/m 10,8 C 20,2 C 30,6 km/h (5 Bft)
11.05.2022 16:56 23,4 C 27,8 C 46 % 1011,5 hPa 0,0 l/m 22,2 km/h (4 Bft) S-SW 200 2 min 3,5 UV-I 612 W/m 11,1 C 20,3 C 38,6 km/h (5 Bft)
11.05.2022 16:58 23,4 C 28,3 C 46 % 1011,4 hPa 0,0 l/m 22,3 km/h (4 Bft) SW 224 2 min 3,4 UV-I 606 W/m 11,1 C 20,3 C 32,2 km/h (5 Bft)
11.05.2022 17:00 23,3 C 27,8 C 46 % 1011,4 hPa 0,0 l/m 21,9 km/h (4 Bft) S 175 2 min 3,4 UV-I 617 W/m 11,0 C 20,2 C 32,2 km/h (5 Bft)
11.05.2022 17:02 23,4 C 27,8 C 47 % 1011,5 hPa 0,0 l/m 23,9 km/h (4 Bft) S-SW 194 2 min 3,4 UV-I 612 W/m 11,4 C 20,1 C 38,6 km/h (5 Bft)
11.05.2022 17:04 23,4 C 27,8 C 47 % 1011,5 hPa 0,0 l/m 20,7 km/h (4 Bft) SO 146 2 min 3,4 UV-I 603 W/m 11,4 C 20,5 C 37,0 km/h (5 Bft)
11.05.2022 17:06 23,4 C 27,2 C 47 % 1011,5 hPa 0,0 l/m 20,7 km/h (4 Bft) S-SW 207 2 min 3,1 UV-I 554 W/m 11,4 C 20,5 C 37,0 km/h (5 Bft)
11.05.2022 17:08 23,3 C 27,2 C 46 % 1011,6 hPa 0,0 l/m 24,4 km/h (4 Bft) W-SW 240 2 min 3,0 UV-I 583 W/m 11,0 C 19,9 C 33,8 km/h (5 Bft)
11.05.2022 17:10 23,2 C 26,7 C 46 % 1011,5 hPa 0,0 l/m 22,5 km/h (4 Bft) S 182 2 min 2,9 UV-I 567 W/m 10,9 C 20,0 C 35,4 km/h (5 Bft)
11.05.2022 17:12 23,3 C 27,8 C 47 % 1011,5 hPa 0,0 l/m 21,9 km/h (4 Bft) S-SO 167 2 min 3,2 UV-I 600 W/m 11,3 C 20,2 C 38,6 km/h (5 Bft)
11.05.2022 17:14 23,3 C 27,2 C 46 % 1011,5 hPa 0,0 l/m 24,2 km/h (4 Bft) S-SW 193 2 min 3,1 UV-I 581 W/m 11,0 C 19,9 C 33,8 km/h (5 Bft)
11.05.2022 17:16 23,2 C 27,8 C 47 % 1011,5 hPa 0,0 l/m 23,1 km/h (4 Bft) S 180 2 min 3,1 UV-I 569 W/m 11,3 C 19,9 C 41,8 km/h (6 Bft)
11.05.2022 17:18 23,2 C 27,8 C 47 % 1011,4 hPa 0,0 l/m 26,7 km/h (4 Bft) S 182 2 min 3,0 UV-I 565 W/m 11,3 C 19,5 C 38,6 km/h (5 Bft)
11.05.2022 17:20 23,1 C 27,2 C 47 % 1011,6 hPa 0,0 l/m 24,4 km/h (4 Bft) S-SO 155 2 min 3,0 UV-I 560 W/m 11,2 C 19,7 C 37,0 km/h (5 Bft)
11.05.2022 17:22 22,8 C 25,6 C 47 % 1011,6 hPa 0,0 l/m 23,2 km/h (4 Bft) S-SO 167 2 min 2,0 UV-I 388 W/m 10,9 C 19,4 C 41,8 km/h (6 Bft)
11.05.2022 17:24 22,7 C 25,6 C 47 % 1011,7 hPa 0,0 l/m 22,0 km/h (4 Bft) S-SW 205 2 min 2,6 UV-I 359 W/m 10,8 C 19,4 C 41,8 km/h (6 Bft)
11.05.2022 17:26 22,8 C 27,2 C 48 % 1011,4 hPa 0,0 l/m 18,9 km/h (3 Bft) S 179 2 min 2,8 UV-I 544 W/m 11,2 C 20,0 C 32,2 km/h (5 Bft)
11.05.2022 17:28 22,9 C 27,2 C 47 % 1011,5 hPa 0,0 l/m 28,6 km/h (4 Bft) S-SW 200 2 min 2,8 UV-I 540 W/m 11,0 C 18,9 C 41,8 km/h (6 Bft)
11.05.2022 17:30 22,9 C 27,2 C 48 % 1011,4 hPa 0,0 l/m 22,2 km/h (4 Bft) S 172 2 min 2,7 UV-I 520 W/m 11,3 C 19,7 C 41,8 km/h (6 Bft)
11.05.2022 17:32 22,8 C 26,1 C 47 % 1011,5 hPa 0,0 l/m 24,7 km/h (4 Bft) S-SW 201 2 min 2,2 UV-I 458 W/m 10,9 C 19,2 C 46,7 km/h (6 Bft)
11.05.2022 17:34 22,7 C 25,6 C 48 % 1011,4 hPa 0,0 l/m 24,3 km/h (4 Bft) S-SW 192 0 min 2,3 UV-I 207 W/m 11,1 C 19,1 C 41,8 km/h (6 Bft)
11.05.2022 17:36 22,8 C 25,6 C 48 % 1011,5 hPa 0,0 l/m 25,8 km/h (4 Bft) S 189 2 min 2,6 UV-I 390 W/m 11,2 C 19,1 C 35,4 km/h (5 Bft)
11.05.2022 17:38 22,7 C 26,1 C 47 % 1011,5 hPa 0,0 l/m 26,7 km/h (4 Bft) S 180 2 min 2,6 UV-I 535 W/m 10,8 C 18,9 C 38,6 km/h (5 Bft)
11.05.2022 17:40 22,8 C 26,7 C 48 % 1011,7 hPa 0,0 l/m 24,3 km/h (4 Bft) S-SW 196 2 min 2,6 UV-I 507 W/m 11,2 C 19,3 C 48,3 km/h (6 Bft)
11.05.2022 17:42 22,8 C 26,7 C 48 % 1011,4 hPa 0,0 l/m 25,5 km/h (4 Bft) S-SW 204 2 min 2,5 UV-I 500 W/m 11,2 C 19,1 C 35,4 km/h (5 Bft)
11.05.2022 17:44 22,7 C 26,1 C 47 % 1011,5 hPa 0,0 l/m 27,3 km/h (4 Bft) W 267 2 min 2,4 UV-I 493 W/m 10,8 C 18,8 C 48,3 km/h (6 Bft)
11.05.2022 17:46 22,7 C 26,7 C 48 % 1011,6 hPa 0,0 l/m 24,3 km/h (4 Bft) S-SW 198 2 min 2,4 UV-I 489 W/m 11,1 C 19,1 C 35,4 km/h (5 Bft)
11.05.2022 17:48 22,6 C 26,7 C 48 % 1011,5 hPa 0,0 l/m 20,7 km/h (4 Bft) S 186 2 min 2,4 UV-I 489 W/m 11,0 C 19,5 C 30,6 km/h (5 Bft)
11.05.2022 17:50 22,7 C 26,7 C 48 % 1011,6 hPa 0,0 l/m 23,5 km/h (4 Bft) S 183 2 min 2,4 UV-I 486 W/m 11,1 C 19,2 C 38,6 km/h (5 Bft)
11.05.2022 17:52 22,7 C 26,1 C 47 % 1011,5 hPa 0,0 l/m 30,5 km/h (5 Bft) S 184 2 min 2,3 UV-I 481 W/m 10,8 C 18,5 C 49,9 km/h (6 Bft)
11.05.2022 17:54 22,6 C 25,6 C 47 % 1011,3 hPa 0,0 l/m 24,8 km/h (4 Bft) S-SW 198 2 min 2,2 UV-I 454 W/m 10,7 C 18,9 C 35,4 km/h (5 Bft)
11.05.2022 17:56 22,5 C 25,6 C 48 % 1011,5 hPa 0,0 l/m 21,5 km/h (4 Bft) S 173 2 min 1,9 UV-I 377 W/m 10,9 C 19,2 C 32,2 km/h (5 Bft)
11.05.2022 17:58 22,5 C 25,6 C 49 % 1011,4 hPa 0,0 l/m 22,0 km/h (4 Bft) SW 221 2 min 2,1 UV-I 437 W/m 11,2 C 19,2 C 35,4 km/h (5 Bft)
11.05.2022 18:00 22,6 C 26,1 C 48 % 1011,4 hPa 0,0 l/m 25,2 km/h (4 Bft) S 182 2 min 2,2 UV-I 474 W/m 11,0 C 18,9 C 38,6 km/h (5 Bft)
11.05.2022 18:02 22,6 C 25,6 C 48 % 1011,5 hPa 0,0 l/m 27,8 km/h (4 Bft) S-SW 207 2 min 2,2 UV-I 471 W/m 11,0 C 18,6 C 40,2 km/h (6 Bft)
11.05.2022 18:04 22,6 C 25,6 C 48 % 1011,4 hPa 0,0 l/m 21,2 km/h (4 Bft) S-SW 212 2 min 2,1 UV-I 464 W/m 11,0 C 19,4 C 33,8 km/h (5 Bft)
11.05.2022 18:06 22,6 C 25,6 C 48 % 1011,5 hPa 0,0 l/m 25,8 km/h (4 Bft) SW 218 2 min 2,1 UV-I 487 W/m 11,0 C 18,8 C 43,5 km/h (6 Bft)
11.05.2022 18:08 22,6 C 25,6 C 49 % 1011,4 hPa 0,0 l/m 23,0 km/h (4 Bft) S 184 2 min 2,0 UV-I 445 W/m 11,3 C 19,2 C 33,8 km/h (5 Bft)
11.05.2022 18:10 22,6 C 25,6 C 48 % 1011,5 hPa 0,0 l/m 22,9 km/h (4 Bft) S-SW 196 2 min 2,0 UV-I 426 W/m 11,0 C 19,2 C 38,6 km/h (5 Bft)
11.05.2022 18:12 22,6 C 25,0 C 48 % 1011,6 hPa 0,0 l/m 27,7 km/h (4 Bft) S 186 2 min 1,9 UV-I 413 W/m 11,0 C 18,6 C 43,5 km/h (6 Bft)
11.05.2022 18:14 22,4 C 25,0 C 48 % 1011,6 hPa 0,0 l/m 26,8 km/h (4 Bft) S 186 2 min 1,9 UV-I 421 W/m 10,8 C 18,4 C 41,8 km/h (6 Bft)
11.05.2022 18:16 22,3 C 25,6 C 49 % 1011,5 hPa 0,0 l/m 20,8 km/h (4 Bft) S-SW 194 2 min 1,9 UV-I 420 W/m 11,1 C 19,1 C 29,0 km/h (5 Bft)
11.05.2022 18:18 22,4 C 25,6 C 49 % 1011,7 hPa 0,0 l/m 16,8 km/h (3 Bft) S 182 2 min 1,8 UV-I 412 W/m 11,2 C 19,8 C 24,1 km/h (4 Bft)
11.05.2022 18:20 22,6 C 26,1 C 49 % 1011,4 hPa 0,0 l/m 13,9 km/h (3 Bft) S-SW 198 2 min 1,8 UV-I 401 W/m 11,3 C 20,6 C 22,5 km/h (4 Bft)
11.05.2022 18:22 22,5 C 26,1 C 49 % 1011,5 hPa 0,0 l/m 22,4 km/h (4 Bft) S-SW 210 2 min 1,7 UV-I 395 W/m 11,2 C 19,1 C 30,6 km/h (5 Bft)
11.05.2022 18:24 22,4 C 26,1 C 48 % 1011,5 hPa 0,0 l/m 18,1 km/h (3 Bft) S 180 2 min 1,7 UV-I 391 W/m 10,8 C 19,6 C 27,4 km/h (4 Bft)
11.05.2022 18:26 22,4 C 25,6 C 49 % 1011,5 hPa 0,0 l/m 20,2 km/h (4 Bft) S-SW 211 2 min 1,7 UV-I 387 W/m 11,2 C 19,3 C 32,2 km/h (5 Bft)
11.05.2022 18:28 22,2 C 24,4 C 48 % 1011,5 hPa 0,0 l/m 22,8 km/h (4 Bft) S 178 2 min 1,4 UV-I 381 W/m 10,7 C 18,6 C 32,2 km/h (5 Bft)
11.05.2022 18:30 22,2 C 24,4 C 49 % 1011,4 hPa 0,0 l/m 18,2 km/h (3 Bft) W-SW 246 2 min 1,6 UV-I 373 W/m 11,0 C 19,3 C 29,0 km/h (5 Bft)
11.05.2022 18:32 22,2 C 25,0 C 49 % 1011,4 hPa 0,0 l/m 21,8 km/h (4 Bft) S 185 2 min 1,6 UV-I 366 W/m 11,0 C 18,8 C 38,6 km/h (5 Bft)
11.05.2022 18:34 22,2 C 24,4 C 49 % 1011,4 hPa 0,0 l/m 23,5 km/h (4 Bft) S-SW 194 2 min 1,5 UV-I 364 W/m 11,0 C 18,6 C 37,0 km/h (5 Bft)
11.05.2022 18:36 22,3 C 24,4 C 49 % 1011,5 hPa 0,0 l/m 24,1 km/h (4 Bft) S 180 2 min 1,5 UV-I 360 W/m 11,1 C 18,6 C 37,0 km/h (5 Bft)
11.05.2022 18:38 22,2 C 23,3 C 48 % 1011,4 hPa 0,0 l/m 27,5 km/h (4 Bft) S-SW 196 0 min 1,4 UV-I 325 W/m 10,7 C 18,1 C 49,9 km/h (6 Bft)
11.05.2022 18:40 22,1 C 22,8 C 49 % 1011,5 hPa 0,0 l/m 25,0 km/h (4 Bft) S-SW 205 0 min 1,3 UV-I 214 W/m 10,9 C 18,2 C 38,6 km/h (5 Bft)
11.05.2022 18:42 21,9 C 22,2 C 49 % 1011,5 hPa 0,0 l/m 24,2 km/h (4 Bft) S-SW 199 0 min 1,4 UV-I 289 W/m 10,7 C 18,1 C 38,6 km/h (5 Bft)
11.05.2022 18:44 21,9 C 22,2 C 49 % 1011,6 hPa 0,0 l/m 22,8 km/h (4 Bft) S 190 0 min 1,3 UV-I 324 W/m 10,7 C 18,2 C 30,6 km/h (5 Bft)
11.05.2022 18:46 21,9 C 21,7 C 49 % 1011,6 hPa 0,0 l/m 21,7 km/h (4 Bft) S-SW 205 0 min 1,3 UV-I 318 W/m 10,7 C 18,4 C 33,8 km/h (5 Bft)
11.05.2022 18:48 21,9 C 21,7 C 48 % 1011,4 hPa 0,0 l/m 27,1 km/h (4 Bft) S-SW 213 0 min 1,3 UV-I 310 W/m 10,4 C 17,7 C 48,3 km/h (6 Bft)
11.05.2022 18:50 21,9 C 21,7 C 49 % 1011,6 hPa 0,0 l/m 26,6 km/h (4 Bft) SW 220 0 min 1,2 UV-I 301 W/m 10,7 C 17,8 C 43,5 km/h (6 Bft)
11.05.2022 18:52 21,8 C 21,7 C 48 % 1011,5 hPa 0,0 l/m 28,6 km/h (4 Bft) S 186 0 min 1,2 UV-I 298 W/m 10,3 C 17,4 C 40,2 km/h (6 Bft)
11.05.2022 18:54 21,8 C 21,7 C 48 % 1011,5 hPa 0,0 l/m 24,5 km/h (4 Bft) SW 214 0 min 1,2 UV-I 292 W/m 10,3 C 17,9 C 49,9 km/h (6 Bft)
11.05.2022 18:56 21,8 C 21,1 C 48 % 1011,6 hPa 0,0 l/m 25,4 km/h (4 Bft) S-SW 198 0 min 1,1 UV-I 288 W/m 10,3 C 17,8 C 33,8 km/h (5 Bft)
11.05.2022 18:58 21,7 C 21,1 C 48 % 1011,7 hPa 0,0 l/m 26,2 km/h (4 Bft) SW 229 0 min 1,1 UV-I 285 W/m 10,2 C 17,5 C 43,5 km/h (6 Bft)
11.05.2022 19:00 21,7 C 21,7 C 49 % 1011,6 hPa 0,0 l/m 23,4 km/h (4 Bft) S 177 0 min 1,1 UV-I 279 W/m 10,5 C 17,9 C 32,2 km/h (5 Bft)
11.05.2022 19:02 21,7 C 21,7 C 49 % 1011,6 hPa 0,0 l/m 25,3 km/h (4 Bft) S 183 0 min 1,0 UV-I 268 W/m 10,5 C 17,6 C 37,0 km/h (5 Bft)
11.05.2022 19:04 21,6 C 21,7 C 49 % 1011,5 hPa 0,0 l/m 26,8 km/h (4 Bft) S-SW 194 0 min 1,0 UV-I 260 W/m 10,4 C 17,3 C 43,5 km/h (6 Bft)
11.05.2022 19:06 21,6 C 22,2 C 49 % 1011,8 hPa 0,0 l/m 24,6 km/h (4 Bft) S-SW 208 0 min 1,0 UV-I 251 W/m 10,4 C 17,6 C 33,8 km/h (5 Bft)
11.05.2022 19:08 21,4 C 22,2 C 49 % 1011,8 hPa 0,0 l/m 25,0 km/h (4 Bft) S 171 0 min 0,9 UV-I 228 W/m 10,2 C 17,3 C 38,6 km/h (5 Bft)
11.05.2022 19:10 21,3 C 21,1 C 49 % 1011,6 hPa 0,0 l/m 27,8 km/h (4 Bft) S 169 0 min 0,4 UV-I 121 W/m 10,1 C 16,8 C 37,0 km/h (5 Bft)
11.05.2022 19:12 21,2 C 21,1 C 50 % 1011,6 hPa 0,0 l/m 25,8 km/h (4 Bft) S 180 0 min 0,8 UV-I 100 W/m 10,4 C 16,9 C 41,8 km/h (6 Bft)
11.05.2022 19:14 21,1 C 21,1 C 50 % 1011,4 hPa 0,0 l/m 26,5 km/h (4 Bft) S-SO 165 0 min 0,8 UV-I 208 W/m 10,3 C 16,7 C 45,1 km/h (6 Bft)
11.05.2022 19:16 21,1 C 21,1 C 50 % 1011,5 hPa 0,0 l/m 27,6 km/h (4 Bft) S-SO 163 0 min 0,5 UV-I 209 W/m 10,3 C 16,5 C 46,7 km/h (6 Bft)
11.05.2022 19:18 21,2 C 21,1 C 50 % 1011,6 hPa 0,0 l/m 25,0 km/h (4 Bft) S-SO 161 0 min 0,8 UV-I 195 W/m 10,4 C 17,0 C 40,2 km/h (6 Bft)
11.05.2022 19:20 21,1 C 21,1 C 50 % 1011,6 hPa 0,0 l/m 25,0 km/h (4 Bft) S-SW 209 0 min 0,7 UV-I 184 W/m 10,3 C 16,9 C 38,6 km/h (5 Bft)
11.05.2022 19:22 21,2 C 21,1 C 50 % 1011,6 hPa 0,0 l/m 20,0 km/h (4 Bft) SW 223 0 min 0,7 UV-I 195 W/m 10,4 C 17,8 C 30,6 km/h (5 Bft)
11.05.2022 19:24 21,2 C 21,7 C 50 % 1011,6 hPa 0,0 l/m 19,7 km/h (3 Bft) S-SO 163 0 min 0,7 UV-I 200 W/m 10,4 C 17,8 C 29,0 km/h (5 Bft)
11.05.2022 19:26 21,2 C 21,1 C 50 % 1011,6 hPa 0,0 l/m 17,1 km/h (3 Bft) S-SW 195 0 min 0,7 UV-I 194 W/m 10,4 C 18,3 C 29,0 km/h (5 Bft)
11.05.2022 19:28 21,1 C 21,1 C 51 % 1011,6 hPa 0,0 l/m 22,0 km/h (4 Bft) SW 217 0 min 0,6 UV-I 107 W/m 10,6 C 17,3 C 45,1 km/h (6 Bft)
11.05.2022 19:30 21,0 C 20,6 C 50 % 1011,8 hPa 0,0 l/m 24,2 km/h (4 Bft) S 170 0 min 0,5 UV-I 112 W/m 10,2 C 16,8 C 33,8 km/h (5 Bft)
11.05.2022 19:32 20,9 C 20,6 C 51 % 1011,7 hPa 0,0 l/m 26,0 km/h (4 Bft) S 189 0 min 0,6 UV-I 151 W/m 10,4 C 16,5 C 40,2 km/h (6 Bft)
11.05.2022 19:34 20,8 C 20,0 C 51 % 1011,6 hPa 0,0 l/m 21,8 km/h (4 Bft) S 182 0 min 0,5 UV-I 99 W/m 10,3 C 16,9 C 30,6 km/h (5 Bft)
11.05.2022 19:36 20,8 C 20,0 C 52 % 1011,7 hPa 0,0 l/m 21,8 km/h (4 Bft) S 173 0 min 0,5 UV-I 114 W/m 10,6 C 16,9 C 32,2 km/h (5 Bft)
11.05.2022 19:38 20,7 C 20,0 C 52 % 1011,6 hPa 0,0 l/m 22,5 km/h (4 Bft) S 182 0 min 0,5 UV-I 111 W/m 10,5 C 16,7 C 35,4 km/h (5 Bft)
11.05.2022 19:40 20,7 C 19,4 C 51 % 1011,7 hPa 0,0 l/m 24,1 km/h (4 Bft) S 184 0 min 0,0 UV-I 41 W/m 10,2 C 16,5 C 37,0 km/h (5 Bft)
11.05.2022 19:42 20,6 C 19,4 C 52 % 1011,7 hPa 0,0 l/m 19,1 km/h (3 Bft) S 191 0 min 0,0 UV-I 42 W/m 10,4 C 17,1 C 30,6 km/h (5 Bft)
11.05.2022 19:44 20,5 C 19,4 C 52 % 1011,7 hPa 0,0 l/m 19,8 km/h (3 Bft) S-SW 213 0 min 0,0 UV-I 66 W/m 10,3 C 16,9 C 30,6 km/h (5 Bft)
11.05.2022 19:46 20,4 C 19,4 C 52 % 1011,8 hPa 0,0 l/m 20,7 km/h (4 Bft) S-SW 210 0 min 0,0 UV-I 55 W/m 10,2 C 16,6 C 33,8 km/h (5 Bft)
11.05.2022 19:48 20,4 C 19,4 C 52 % 1011,7 hPa 0,0 l/m 22,1 km/h (4 Bft) S 180 0 min 0,0 UV-I 73 W/m 10,2 C 16,4 C 35,4 km/h (5 Bft)
11.05.2022 19:50 20,4 C 19,4 C 52 % 1011,5 hPa 0,0 l/m 21,6 km/h (4 Bft) S-SW 192 0 min 0,0 UV-I 91 W/m 10,2 C 16,4 C 37,0 km/h (5 Bft)
11.05.2022 19:52 20,4 C 19,4 C 51 % 1011,6 hPa 0,0 l/m 19,9 km/h (4 Bft) S-SW 213 0 min 0,0 UV-I 110 W/m 9,9 C 16,7 C 29,0 km/h (5 Bft)
11.05.2022 19:54 20,4 C 19,4 C 52 % 1011,6 hPa 0,0 l/m 20,2 km/h (4 Bft) SW 221 0 min 0,0 UV-I 87 W/m 10,2 C 16,7 C 29,0 km/h (5 Bft)
11.05.2022 19:56 20,4 C 19,4 C 52 % 1011,5 hPa 0,0 l/m 16,6 km/h (3 Bft) S 169 0 min 0,0 UV-I 60 W/m 10,2 C 17,4 C 24,1 km/h (4 Bft)
11.05.2022 19:58 20,3 C 18,9 C 52 % 1011,5 hPa 0,0 l/m 17,7 km/h (3 Bft) S-SW 207 0 min 0,0 UV-I 97 W/m 10,1 C 17,0 C 30,6 km/h (5 Bft)
11.05.2022 20:00 20,3 C 18,9 C 52 % 1011,5 hPa 0,0 l/m 16,9 km/h (3 Bft) S-SO 163 0 min 0,0 UV-I 99 W/m 10,1 C 17,2 C 25,7 km/h (4 Bft)
11.05.2022 20:02 20,3 C 18,9 C 52 % 1011,6 hPa 0,0 l/m 20,8 km/h (4 Bft) S-SW 198 0 min 0,0 UV-I 94 W/m 10,1 C 16,5 C 33,8 km/h (5 Bft)
11.05.2022 20:04 20,3 C 18,9 C 53 % 1011,5 hPa 0,0 l/m 13,7 km/h (3 Bft) S 171 0 min 0,0 UV-I 92 W/m 10,4 C 17,9 C 22,5 km/h (4 Bft)
11.05.2022 20:06 20,2 C 18,9 C 53 % 1011,6 hPa 0,0 l/m 12,6 km/h (3 Bft) S-SW 199 0 min 0,0 UV-I 85 W/m 10,3 C 18,1 C 19,3 km/h (3 Bft)
11.05.2022 20:08 20,2 C 18,9 C 53 % 1011,6 hPa 0,0 l/m 22,0 km/h (4 Bft) S 184 0 min 0,0 UV-I 52 W/m 10,3 C 16,1 C 32,2 km/h (5 Bft)
11.05.2022 20:10 20,2 C 18,9 C 53 % 1011,6 hPa 0,0 l/m 15,9 km/h (3 Bft) SW 218 0 min 0,0 UV-I 40 W/m 10,3 C 17,3 C 24,1 km/h (4 Bft)
11.05.2022 20:12 20,1 C 18,9 C 53 % 1011,6 hPa 0,0 l/m 14,9 km/h (3 Bft) S 169 0 min 0,0 UV-I 41 W/m 10,2 C 17,4 C 22,5 km/h (4 Bft)
11.05.2022 20:14 20,1 C 18,9 C 53 % 1011,5 hPa 0,0 l/m 18,9 km/h (3 Bft) S-SW 199 0 min 0,0 UV-I 43 W/m 10,2 C 16,5 C 29,0 km/h (5 Bft)
11.05.2022 20:16 20,0 C 18,9 C 54 % 1011,5 hPa 0,0 l/m 16,7 km/h (3 Bft) S-SW 203 0 min 0,0 UV-I 47 W/m 10,4 C 16,9 C 29,0 km/h (5 Bft)
11.05.2022 20:18 19,9 C 18,9 C 54 % 1011,7 hPa 0,0 l/m 16,4 km/h (3 Bft) S-SW 198 0 min 0,0 UV-I 49 W/m 10,3 C 16,8 C 22,5 km/h (4 Bft)
11.05.2022 20:20 19,9 C 18,3 C 54 % 1011,6 hPa 0,0 l/m 16,7 km/h (3 Bft) S 177 0 min 0,0 UV-I 48 W/m 10,3 C 16,7 C 27,4 km/h (4 Bft)
11.05.2022 20:22 19,9 C 18,3 C 54 % 1011,7 hPa 0,0 l/m 18,6 km/h (3 Bft) S-SW 193 0 min 0,0 UV-I 42 W/m 10,3 C 16,3 C 30,6 km/h (5 Bft)
11.05.2022 20:24 19,9 C 18,3 C 54 % 1011,6 hPa 0,0 l/m 19,7 km/h (3 Bft) S-SW 194 0 min 0,0 UV-I 36 W/m 10,3 C 16,1 C 30,6 km/h (5 Bft)
11.05.2022 20:26 19,9 C 18,3 C 54 % 1011,6 hPa 0,0 l/m 19,0 km/h (3 Bft) W-SW 246 0 min 0,0 UV-I 33 W/m 10,3 C 16,3 C 35,4 km/h (5 Bft)
11.05.2022 20:28 19,8 C 18,3 C 54 % 1011,6 hPa 0,0 l/m 14,7 km/h (3 Bft) S-SW 213 0 min 0,0 UV-I 32 W/m 10,2 C 17,1 C 27,4 km/h (4 Bft)
11.05.2022 20:30 19,7 C 18,3 C 54 % 1011,6 hPa 0,0 l/m 16,3 km/h (3 Bft) S-SW 211 0 min 0,0 UV-I 32 W/m 10,1 C 16,6 C 24,1 km/h (4 Bft)
11.05.2022 20:32 19,7 C 18,3 C 55 % 1011,6 hPa 0,0 l/m 14,9 km/h (3 Bft) S 175 0 min 0,0 UV-I 31 W/m 10,4 C 16,9 C 22,5 km/h (4 Bft)
11.05.2022 20:34 19,6 C 18,3 C 55 % 1011,6 hPa 0,0 l/m 16,6 km/h (3 Bft) S-SW 200 0 min 0,0 UV-I 29 W/m 10,3 C 16,4 C 27,4 km/h (4 Bft)
11.05.2022 20:36 19,6 C 18,3 C 55 % 1011,8 hPa 0,0 l/m 18,3 km/h (3 Bft) S-SO 165 0 min 0,0 UV-I 28 W/m 10,3 C 16,0 C 25,7 km/h (4 Bft)
11.05.2022 20:38 19,6 C 18,3 C 55 % 1011,8 hPa 0,0 l/m 17,0 km/h (3 Bft) S-SW 204 0 min 0,0 UV-I 26 W/m 10,3 C 16,3 C 25,7 km/h (4 Bft)
11.05.2022 20:40 19,5 C 18,3 C 55 % 1011,7 hPa 0,0 l/m 16,6 km/h (3 Bft) S 172 0 min 0,0 UV-I 24 W/m 10,2 C 16,3 C 29,0 km/h (5 Bft)
11.05.2022 20:42 19,5 C 18,3 C 55 % 1011,8 hPa 0,0 l/m 15,7 km/h (3 Bft) S 188 0 min 0,0 UV-I 22 W/m 10,2 C 16,5 C 27,4 km/h (4 Bft)
11.05.2022 20:44 19,4 C 18,3 C 55 % 1011,8 hPa 0,0 l/m 15,6 km/h (3 Bft) S 173 0 min 0,0 UV-I 20 W/m 10,1 C 16,4 C 22,5 km/h (4 Bft)
11.05.2022 20:46 19,4 C 17,8 C 55 % 1011,8 hPa 0,0 l/m 17,6 km/h (3 Bft) S-SO 163 0 min 0,0 UV-I 19 W/m 10,1 C 15,9 C 32,2 km/h (5 Bft)
11.05.2022 20:48 19,4 C 17,8 C 55 % 1011,9 hPa 0,0 l/m 15,1 km/h (3 Bft) S 185 0 min 0,0 UV-I 17 W/m 10,1 C 16,5 C 22,5 km/h (4 Bft)
11.05.2022 20:50 19,3 C 17,8 C 55 % 1011,9 hPa 0,0 l/m 17,4 km/h (3 Bft) S-SO 167 0 min 0,0 UV-I 16 W/m 10,0 C 15,8 C 30,6 km/h (5 Bft)
11.05.2022 20:52 19,3 C 17,8 C 56 % 1011,8 hPa 0,0 l/m 16,3 km/h (3 Bft) S 188 0 min 0,0 UV-I 13 W/m 10,3 C 16,1 C 27,4 km/h (4 Bft)
11.05.2022 20:54 19,2 C 17,8 C 56 % 1011,8 hPa 0,0 l/m 13,8 km/h (3 Bft) S-SW 205 0 min 0,0 UV-I 12 W/m 10,2 C 16,6 C 25,7 km/h (4 Bft)
11.05.2022 20:56 19,2 C 17,8 C 56 % 1011,8 hPa 0,0 l/m 15,9 km/h (3 Bft) S 182 0 min 0,0 UV-I 11 W/m 10,2 C 16,1 C 27,4 km/h (4 Bft)
11.05.2022 20:58 19,1 C 17,8 C 56 % 1011,8 hPa 0,0 l/m 15,9 km/h (3 Bft) S-SO 166 0 min 0,0 UV-I 11 W/m 10,1 C 15,9 C 27,4 km/h (4 Bft)
11.05.2022 21:00 19,1 C 17,8 C 57 % 1011,9 hPa 0,0 l/m 14,9 km/h (3 Bft) SW 223 0 min 0,0 UV-I 11 W/m 10,4 C 16,2 C 22,5 km/h (4 Bft)
11.05.2022 21:02 18,9 C 17,8 C 57 % 1011,8 hPa 0,0 l/m 17,5 km/h (3 Bft) S 190 0 min 0,0 UV-I 11 W/m 10,2 C 15,3 C 25,7 km/h (4 Bft)
11.05.2022 21:04 18,9 C 17,8 C 57 % 1011,8 hPa 0,0 l/m 12,6 km/h (3 Bft) S 171 0 min 0,0 UV-I 11 W/m 10,2 C 16,6 C 24,1 km/h (4 Bft)
11.05.2022 21:06 18,8 C 17,2 C 57 % 1011,8 hPa 0,0 l/m 16,2 km/h (3 Bft) S-SW 196 0 min 0,0 UV-I 10 W/m 10,1 C 15,5 C 24,1 km/h (4 Bft)
11.05.2022 21:08 18,9 C 17,2 C 56 % 1011,8 hPa 0,0 l/m 19,4 km/h (3 Bft) S 188 0 min 0,0 UV-I 9 W/m 9,9 C 14,9 C 30,6 km/h (5 Bft)
11.05.2022 21:10 18,9 C 17,2 C 56 % 1011,9 hPa 0,0 l/m 18,8 km/h (3 Bft) S-SW 205 0 min 0,0 UV-I 8 W/m 9,9 C 15,0 C 37,0 km/h (5 Bft)
11.05.2022 21:12 18,9 C 17,2 C 56 % 1011,8 hPa 0,0 l/m 15,6 km/h (3 Bft) S 183 0 min 0,0 UV-I 7 W/m 9,9 C 15,8 C 22,5 km/h (4 Bft)
11.05.2022 21:14 18,9 C 17,2 C 56 % 1011,9 hPa 0,0 l/m 13,6 km/h (3 Bft) S 179 0 min 0,0 UV-I 4 W/m 9,9 C 16,3 C 27,4 km/h (4 Bft)
11.05.2022 21:16 18,8 C 17,2 C 56 % 1012,0 hPa 0,0 l/m 19,0 km/h (3 Bft) S 175 0 min 0,0 UV-I 0 W/m 9,8 C 14,9 C 32,2 km/h (5 Bft)
11.05.2022 21:18 18,8 C 17,2 C 56 % 1012,0 hPa 0,0 l/m 16,5 km/h (3 Bft) S 190 0 min 0,0 UV-I 0 W/m 9,8 C 15,4 C 25,7 km/h (4 Bft)
11.05.2022 21:20 18,8 C 17,2 C 56 % 1012,1 hPa 0,0 l/m 15,1 km/h (3 Bft) S 181 0 min 0,0 UV-I 0 W/m 9,8 C 15,8 C 22,5 km/h (4 Bft)
11.05.2022 21:22 18,7 C 17,2 C 56 % 1011,9 hPa 0,0 l/m 13,0 km/h (3 Bft) S 186 0 min 0,0 UV-I 0 W/m 9,7 C 16,2 C 20,9 km/h (4 Bft)
11.05.2022 21:24 18,6 C 16,7 C 56 % 1012,0 hPa 0,0 l/m 16,5 km/h (3 Bft) S 170 0 min 0,0 UV-I 0 W/m 9,6 C 15,2 C 29,0 km/h (5 Bft)
11.05.2022 21:26 18,6 C 16,7 C 56 % 1012,0 hPa 0,0 l/m 14,3 km/h (3 Bft) S 190 0 min 0,0 UV-I 0 W/m 9,6 C 15,7 C 19,3 km/h (3 Bft)
11.05.2022 21:28 18,6 C 16,7 C 56 % 1012,0 hPa 0,0 l/m 15,5 km/h (3 Bft) S 174 0 min 0,0 UV-I 0 W/m 9,6 C 15,4 C 24,1 km/h (4 Bft)
11.05.2022 21:30 18,5 C 16,7 C 56 % 1012,1 hPa 0,0 l/m 14,1 km/h (3 Bft) S 184 0 min 0,0 UV-I 0 W/m 9,6 C 15,7 C 22,5 km/h (4 Bft)
11.05.2022 21:32 18,4 C 16,7 C 56 % 1012,0 hPa 0,0 l/m 12,0 km/h (2 Bft) S 189 0 min 0,0 UV-I 0 W/m 9,5 C 16,2 C 22,5 km/h (4 Bft)
11.05.2022 21:34 18,4 C 16,7 C 56 % 1012,1 hPa 0,0 l/m 15,0 km/h (3 Bft) S-SO 166 0 min 0,0 UV-I 0 W/m 9,5 C 15,3 C 24,1 km/h (4 Bft)
11.05.2022 21:36 18,3 C 16,7 C 57 % 1012,1 hPa 0,0 l/m 12,7 km/h (3 Bft) SW 221 0 min 0,0 UV-I 0 W/m 9,6 C 15,9 C 22,5 km/h (4 Bft)
11.05.2022 21:38 18,3 C 16,7 C 57 % 1012,1 hPa 0,0 l/m 14,3 km/h (3 Bft) S 178 0 min 0,0 UV-I 0 W/m 9,6 C 15,4 C 20,9 km/h (4 Bft)
11.05.2022 21:40 18,2 C 16,1 C 57 % 1012,1 hPa 0,0 l/m 14,9 km/h (3 Bft) S-SW 198 0 min 0,0 UV-I 0 W/m 9,5 C 15,1 C 22,5 km/h (4 Bft)
11.05.2022 21:42 18,2 C 16,7 C 56 % 1012,1 hPa 0,0 l/m 15,9 km/h (3 Bft) S-SO 157 0 min 0,0 UV-I 0 W/m 9,3 C 14,8 C 25,7 km/h (4 Bft)
11.05.2022 21:44 18,2 C 16,7 C 56 % 1012,1 hPa 0,0 l/m 15,5 km/h (3 Bft) S-SW 198 0 min 0,0 UV-I 0 W/m 9,3 C 14,9 C 22,5 km/h (4 Bft)
11.05.2022 21:46 18,2 C 16,7 C 56 % 1012,1 hPa 0,0 l/m 14,6 km/h (3 Bft) S-SW 194 0 min 0,0 UV-I 0 W/m 9,3 C 15,2 C 20,9 km/h (4 Bft)
11.05.2022 21:48 18,1 C 16,1 C 56 % 1012,1 hPa 0,0 l/m 15,7 km/h (3 Bft) S 190 0 min 0,0 UV-I 0 W/m 9,2 C 14,8 C 24,1 km/h (4 Bft)
11.05.2022 21:50 18,1 C 16,1 C 56 % 1012,0 hPa 0,0 l/m 16,1 km/h (3 Bft) S-SW 199 0 min 0,0 UV-I 0 W/m 9,2 C 14,7 C 25,7 km/h (4 Bft)
11.05.2022 21:52 18,1 C 16,1 C 56 % 1012,1 hPa 0,0 l/m 14,4 km/h (3 Bft) S-SW 194 0 min 0,0 UV-I 0 W/m 9,2 C 15,1 C 22,5 km/h (4 Bft)
11.05.2022 21:54 18,0 C 16,1 C 56 % 1012,1 hPa 0,0 l/m 15,3 km/h (3 Bft) S-SW 192 0 min 0,0 UV-I 0 W/m 9,1 C 14,7 C 22,5 km/h (4 Bft)
11.05.2022 21:56 17,9 C 16,1 C 56 % 1012,1 hPa 0,0 l/m 15,1 km/h (3 Bft) S-SW 198 0 min 0,0 UV-I 0 W/m 9,0 C 14,7 C 19,3 km/h (3 Bft)
11.05.2022 21:58 17,9 C 16,1 C 56 % 1012,1 hPa 0,0 l/m 15,6 km/h (3 Bft) S-SW 194 0 min 0,0 UV-I 0 W/m 9,0 C 14,5 C 25,7 km/h (4 Bft)
11.05.2022 22:00 17,8 C 16,1 C 56 % 1012,2 hPa 0,0 l/m 14,4 km/h (3 Bft) S-SW 198 0 min 0,0 UV-I 0 W/m 8,9 C 14,8 C 24,1 km/h (4 Bft)
11.05.2022 22:02 17,8 C 16,1 C 56 % 1012,2 hPa 0,0 l/m 14,0 km/h (3 Bft) S 182 0 min 0,0 UV-I 0 W/m 8,9 C 14,9 C 20,9 km/h (4 Bft)
11.05.2022 22:04 17,8 C 16,1 C 56 % 1012,2 hPa 0,0 l/m 14,0 km/h (3 Bft) SW 217 0 min 0,0 UV-I 0 W/m 8,9 C 14,9 C 24,1 km/h (4 Bft)
11.05.2022 22:06 17,8 C 16,1 C 56 % 1012,2 hPa 0,0 l/m 13,7 km/h (3 Bft) S 178 0 min 0,0 UV-I 0 W/m 8,9 C 15,0 C 19,3 km/h (3 Bft)
11.05.2022 22:08 17,8 C 16,1 C 56 % 1012,2 hPa 0,0 l/m 17,2 km/h (3 Bft) S-SW 195 0 min 0,0 UV-I 0 W/m 8,9 C 14,0 C 27,4 km/h (4 Bft)
11.05.2022 22:10 17,8 C 16,1 C 56 % 1012,3 hPa 0,0 l/m 16,1 km/h (3 Bft) S-SW 213 0 min 0,0 UV-I 0 W/m 8,9 C 14,3 C 25,7 km/h (4 Bft)
11.05.2022 22:12 17,7 C 16,1 C 56 % 1012,3 hPa 0,0 l/m 16,1 km/h (3 Bft) S 186 0 min 0,0 UV-I 0 W/m 8,8 C 14,2 C 24,1 km/h (4 Bft)
11.05.2022 22:14 17,7 C 16,1 C 56 % 1012,3 hPa 0,0 l/m 14,1 km/h (3 Bft) S 190 0 min 0,0 UV-I 0 W/m 8,8 C 14,7 C 19,3 km/h (3 Bft)
11.05.2022 22:16 17,6 C 16,1 C 56 % 1012,4 hPa 0,0 l/m 13,1 km/h (3 Bft) S-SW 200 0 min 0,0 UV-I 0 W/m 8,7 C 14,9 C 17,7 km/h (3 Bft)
11.05.2022 22:18 17,6 C 16,1 C 56 % 1012,4 hPa 0,0 l/m 11,2 km/h (2 Bft) S-SW 205 0 min 0,0 UV-I 0 W/m 8,7 C 15,5 C 20,9 km/h (4 Bft)
11.05.2022 22:20 17,5 C 16,1 C 56 % 1012,3 hPa 0,0 l/m 13,5 km/h (3 Bft) S-SW 193 0 min 0,0 UV-I 0 W/m 8,6 C 14,7 C 20,9 km/h (4 Bft)
11.05.2022 22:22 17,5 C 16,1 C 57 % 1012,4 hPa 0,0 l/m 15,1 km/h (3 Bft) SW 216 0 min 0,0 UV-I 0 W/m 8,9 C 14,2 C 20,9 km/h (4 Bft)
11.05.2022 22:24 17,5 C 15,6 C 57 % 1012,2 hPa 0,0 l/m 12,6 km/h (3 Bft) SW 221 0 min 0,0 UV-I 0 W/m 8,9 C 15,0 C 17,7 km/h (3 Bft)
11.05.2022 22:26 17,4 C 15,6 C 57 % 1012,2 hPa 0,0 l/m 13,5 km/h (3 Bft) S-SW 196 0 min 0,0 UV-I 0 W/m 8,8 C 14,5 C 17,7 km/h (3 Bft)
11.05.2022 22:28 17,4 C 15,6 C 57 % 1012,3 hPa 0,0 l/m 15,1 km/h (3 Bft) S-SO 165 0 min 0,0 UV-I 0 W/m 8,8 C 14,1 C 20,9 km/h (4 Bft)
11.05.2022 22:30 17,4 C 15,6 C 57 % 1012,4 hPa 0,0 l/m 12,5 km/h (3 Bft) S-SW 206 0 min 0,0 UV-I 0 W/m 8,8 C 14,9 C 17,7 km/h (3 Bft)
11.05.2022 22:32 17,3 C 15,6 C 57 % 1012,5 hPa 0,0 l/m 12,7 km/h (3 Bft) S-SW 209 0 min 0,0 UV-I 0 W/m 8,7 C 14,7 C 17,7 km/h (3 Bft)
11.05.2022 22:34 17,3 C 15,6 C 58 % 1012,4 hPa 0,0 l/m 12,7 km/h (3 Bft) S-SW 192 0 min 0,0 UV-I 0 W/m 9,0 C 14,7 C 19,3 km/h (3 Bft)
11.05.2022 22:36 17,2 C 15,6 C 58 % 1012,4 hPa 0,0 l/m 11,7 km/h (2 Bft) S 184 0 min 0,0 UV-I 0 W/m 8,9 C 14,9 C 16,1 km/h (3 Bft)
11.05.2022 22:38 17,1 C 15,0 C 58 % 1012,4 hPa 0,0 l/m 9,9 km/h (2 Bft) S 182 0 min 0,0 UV-I 0 W/m 8,8 C 15,5 C 14,5 km/h (3 Bft)
11.05.2022 22:40 17,1 C 15,0 C 58 % 1012,4 hPa 0,0 l/m 11,7 km/h (2 Bft) S-SW 203 0 min 0,0 UV-I 0 W/m 8,8 C 14,8 C 17,7 km/h (3 Bft)
11.05.2022 22:42 17,1 C 15,0 C 58 % 1012,3 hPa 0,0 l/m 12,0 km/h (2 Bft) S-SW 199 0 min 0,0 UV-I 0 W/m 8,8 C 14,7 C 19,3 km/h (3 Bft)
11.05.2022 22:44 17,0 C 15,0 C 59 % 1012,4 hPa 0,0 l/m 12,3 km/h (3 Bft) S-SW 193 0 min 0,0 UV-I 0 W/m 8,9 C 14,5 C 17,7 km/h (3 Bft)
11.05.2022 22:46 16,9 C 15,0 C 59 % 1012,3 hPa 0,0 l/m 11,5 km/h (2 Bft) S 189 0 min 0,0 UV-I 0 W/m 8,8 C 14,6 C 17,7 km/h (3 Bft)
11.05.2022 22:48 16,9 C 15,0 C 59 % 1012,4 hPa 0,0 l/m 11,4 km/h (2 Bft) S-SW 210 0 min 0,0 UV-I 0 W/m 8,8 C 14,7 C 16,1 km/h (3 Bft)
11.05.2022 22:50 16,9 C 15,0 C 60 % 1012,3 hPa 0,0 l/m 12,2 km/h (2 Bft) S-SW 198 0 min 0,0 UV-I 0 W/m 9,1 C 14,4 C 16,1 km/h (3 Bft)
11.05.2022 22:52 16,9 C 15,0 C 60 % 1012,4 hPa 0,0 l/m 13,1 km/h (3 Bft) S 187 0 min 0,0 UV-I 0 W/m 9,1 C 14,1 C 19,3 km/h (3 Bft)
11.05.2022 22:54 16,8 C 15,0 C 60 % 1012,3 hPa 0,0 l/m 12,5 km/h (3 Bft) S-SW 196 0 min 0,0 UV-I 0 W/m 9,0 C 14,2 C 17,7 km/h (3 Bft)
11.05.2022 22:56 16,8 C 15,0 C 60 % 1012,4 hPa 0,0 l/m 14,4 km/h (3 Bft) S-SW 211 0 min 0,0 UV-I 0 W/m 9,0 C 13,6 C 22,5 km/h (4 Bft)
11.05.2022 22:58 16,9 C 15,0 C 60 % 1012,4 hPa 0,0 l/m 14,1 km/h (3 Bft) SW 226 0 min 0,0 UV-I 0 W/m 9,1 C 13,8 C 20,9 km/h (4 Bft)
11.05.2022 23:00 16,9 C 15,0 C 60 % 1012,4 hPa 0,0 l/m 13,7 km/h (3 Bft) S-SW 192 0 min 0,0 UV-I 0 W/m 9,1 C 13,9 C 22,5 km/h (4 Bft)
11.05.2022 23:02 16,9 C 15,0 C 60 % 1012,4 hPa 0,0 l/m 15,2 km/h (3 Bft) S-SW 211 0 min 0,0 UV-I 0 W/m 9,1 C 13,4 C 20,9 km/h (4 Bft)
11.05.2022 23:04 16,9 C 15,0 C 61 % 1012,4 hPa 0,0 l/m 13,8 km/h (3 Bft) S-SW 205 0 min 0,0 UV-I 0 W/m 9,3 C 13,9 C 19,3 km/h (3 Bft)
11.05.2022 23:06 16,8 C 15,0 C 61 % 1012,4 hPa 0,0 l/m 12,0 km/h (2 Bft) S-SW 206 0 min 0,0 UV-I 0 W/m 9,2 C 14,3 C 19,3 km/h (3 Bft)
11.05.2022 23:08 16,8 C 15,0 C 61 % 1012,4 hPa 0,0 l/m 13,2 km/h (3 Bft) S-SW 200 0 min 0,0 UV-I 0 W/m 9,2 C 13,9 C 20,9 km/h (4 Bft)
11.05.2022 23:10 16,7 C 15,0 C 62 % 1012,5 hPa 0,0 l/m 11,1 km/h (2 Bft) S 169 0 min 0,0 UV-I 0 W/m 9,4 C 14,6 C 16,1 km/h (3 Bft)
11.05.2022 23:12 16,7 C 15,0 C 62 % 1012,4 hPa 0,0 l/m 11,5 km/h (2 Bft) S-SW 199 0 min 0,0 UV-I 0 W/m 9,4 C 14,4 C 16,1 km/h (3 Bft)
11.05.2022 23:14 16,7 C 15,0 C 63 % 1012,4 hPa 0,0 l/m 14,2 km/h (3 Bft) S 184 0 min 0,0 UV-I 0 W/m 9,6 C 13,5 C 20,9 km/h (4 Bft)
11.05.2022 23:16 16,7 C 15,0 C 63 % 1012,4 hPa 0,0 l/m 14,4 km/h (3 Bft) S 175 0 min 0,0 UV-I 0 W/m 9,6 C 13,4 C 22,5 km/h (4 Bft)
11.05.2022 23:18 16,7 C 15,0 C 63 % 1012,5 hPa 0,0 l/m 13,0 km/h (3 Bft) S-SW 205 0 min 0,0 UV-I 0 W/m 9,6 C 13,9 C 19,3 km/h (3 Bft)
11.05.2022 23:20 16,7 C 15,0 C 63 % 1012,5 hPa 0,0 l/m 14,7 km/h (3 Bft) SW 224 0 min 0,0 UV-I 0 W/m 9,6 C 13,3 C 22,5 km/h (4 Bft)
11.05.2022 23:22 16,7 C 15,0 C 63 % 1012,4 hPa 0,0 l/m 12,9 km/h (3 Bft) S-SW 203 0 min 0,0 UV-I 0 W/m 9,6 C 13,9 C 19,3 km/h (3 Bft)
11.05.2022 23:24 16,7 C 15,0 C 64 % 1012,5 hPa 0,0 l/m 11,7 km/h (2 Bft) S-SW 194 0 min 0,0 UV-I 0 W/m 9,9 C 14,3 C 16,1 km/h (3 Bft)
11.05.2022 23:26 16,6 C 15,0 C 64 % 1012,5 hPa 0,0 l/m 11,1 km/h (2 Bft) S-SW 203 0 min 0,0 UV-I 0 W/m 9,8 C 14,4 C 14,5 km/h (3 Bft)
11.05.2022 23:28 16,5 C 15,0 C 64 % 1012,6 hPa 0,0 l/m 12,0 km/h (2 Bft) S 190 0 min 0,0 UV-I 0 W/m 9,7 C 14,0 C 24,1 km/h (4 Bft)
11.05.2022 23:30 16,4 C 15,0 C 65 % 1012,5 hPa 0,0 l/m 13,4 km/h (3 Bft) S-SW 204 0 min 0,0 UV-I 0 W/m 9,8 C 13,4 C 20,9 km/h (4 Bft)
11.05.2022 23:32 16,4 C 14,4 C 65 % 1012,4 hPa 0,0 l/m 11,6 km/h (2 Bft) S-SW 206 0 min 0,0 UV-I 0 W/m 9,8 C 14,0 C 17,7 km/h (3 Bft)
11.05.2022 23:34 16,4 C 14,4 C 65 % 1012,5 hPa 0,0 l/m 12,5 km/h (3 Bft) SW 219 0 min 0,0 UV-I 0 W/m 9,8 C 13,7 C 17,7 km/h (3 Bft)
11.05.2022 23:36 16,4 C 14,4 C 65 % 1012,4 hPa 0,0 l/m 15,9 km/h (3 Bft) S 175 0 min 0,0 UV-I 0 W/m 9,8 C 12,6 C 29,0 km/h (5 Bft)
11.05.2022 23:38 16,4 C 15,0 C 66 % 1012,5 hPa 0,0 l/m 12,6 km/h (3 Bft) S-SW 207 0 min 0,0 UV-I 0 W/m 10,0 C 13,7 C 19,3 km/h (3 Bft)
11.05.2022 23:40 16,3 C 14,4 C 66 % 1012,5 hPa 0,0 l/m 12,9 km/h (3 Bft) S-SW 213 0 min 0,0 UV-I 0 W/m 9,9 C 13,4 C 17,7 km/h (3 Bft)
11.05.2022 23:42 16,3 C 14,4 C 66 % 1012,6 hPa 0,0 l/m 11,7 km/h (2 Bft) S-SW 202 0 min 0,0 UV-I 0 W/m 9,9 C 13,9 C 17,7 km/h (3 Bft)
11.05.2022 23:44 16,3 C 14,4 C 66 % 1012,5 hPa 0,0 l/m 14,6 km/h (3 Bft) S-SW 192 0 min 0,0 UV-I 0 W/m 9,9 C 12,9 C 25,7 km/h (4 Bft)
11.05.2022 23:46 16,3 C 14,4 C 66 % 1012,6 hPa 0,0 l/m 11,5 km/h (2 Bft) S-SW 198 0 min 0,0 UV-I 0 W/m 9,9 C 14,0 C 16,1 km/h (3 Bft)
11.05.2022 23:48 16,3 C 14,4 C 66 % 1012,5 hPa 0,0 l/m 12,6 km/h (3 Bft) S 183 0 min 0,0 UV-I 0 W/m 9,9 C 13,6 C 20,9 km/h (4 Bft)
11.05.2022 23:50 16,2 C 14,4 C 67 % 1012,5 hPa 0,0 l/m 13,0 km/h (3 Bft) S-SW 193 0 min 0,0 UV-I 0 W/m 10,1 C 13,3 C 17,7 km/h (3 Bft)
11.05.2022 23:52 16,2 C 14,4 C 67 % 1012,6 hPa 0,0 l/m 10,1 km/h (2 Bft) SW 216 0 min 0,0 UV-I 0 W/m 10,1 C 14,4 C 12,9 km/h (3 Bft)
11.05.2022 23:54 16,2 C 14,4 C 67 % 1012,6 hPa 0,0 l/m 12,5 km/h (3 Bft) S 191 0 min 0,0 UV-I 0 W/m 10,1 C 13,5 C 19,3 km/h (3 Bft)
11.05.2022 23:56 16,2 C 14,4 C 67 % 1012,5 hPa 0,0 l/m 16,4 km/h (3 Bft) S 185 0 min 0,0 UV-I 0 W/m 10,1 C 12,2 C 22,5 km/h (4 Bft)
11.05.2022 23:58 16,2 C 15,0 C 67 % 1012,6 hPa 0,0 l/m 12,9 km/h (3 Bft) S-SW 202 0 min 0,0 UV-I 0 W/m 10,1 C 13,3 C 19,3 km/h (3 Bft)
11.05.2022 23:59 16,2 C 15,0 C 67 % 1012,6 hPa 0,0 l/m 14,5 km/h (3 Bft) S-SW 202 0 min 0,0 UV-I 0 W/m 10,1 C 12,8 C 19,3 km/h (3 Bft)
_ Min-Zeit 06:34 06:29 14:20 17:54 - 03:01 - - - - - 06:31 06:44 03:06
Minimum _ 10,3 C 8,3 C 37 % 1011,3 hPa - 0,0 km/h (0 Bft) - - - - - 7,4 C 9,5 C 0,0 km/h (0 Bft)
_ Max-Zeit 15:22 14:20 06:41 00:02 00:00 12:36 - - 08:46 13:18 13:38 11:36 14:28 12:16
Maximum _ 24,0 C 28,9 C 84 % 1016,9 hPa 0,0 l/m 36,4 km/h
S (5 Bft)
- - 2 min 6,1 UV-I 849 W/m 12,6 C 21,8 C 54,7 km/h
S (7 Bft)
Durchschnitt _ 18,3 C 18,7 C 60 % 1013,3 hPa #0,0 l/m 14,9 km/h (3 Bft) SW - #9:50 h 3,6 UV-I 469 W/m 10,1 C 16,1 C 23,1 km/h (4 Bft)